[[{"header":{"parameterUnit":"m.s-1","parameterCategory":1,"la1":30.6,"la2":28.766,"lo1":-90.7593,"lo2":-88.6598,"dy":0.0162,"dx":0.0183,"nx":116,"ny":114,"refTime":"2023-08-02T18:00:00:Z","depth":0,"parameterNumber":2,"parameterNumberName":"U-component_of_WINDS"},"data":[0.0,0.0,0.0,0.0,0.0,0.0,0.0,0.0,0.0,0.0,0.0,0.0,0.0,0.0,0.0,0.0,0.0,0.0,0.0,0.0,0.0,0.0,0.0,0.0,0.0,0.0,0.0,0.0,0.0,0.0,0.0,0.0,0.0,0.0,0.0,0.0,0.0,0.0,0.0,0.0,0.0,0.0,0.0,0.0,0.0,0.0,0.0,0.0,0.0,0.0,0.0,0.0,0.0,0.0,0.0,0.0,0.0,0.0,0.0,0.0,0.0,0.0,0.0,0.0,0.0,0.0,0.0,0.0,0.0,0.0,0.0,0.0,0.0,0.0,0.0,0.0,0.0,0.0,0.0,0.0,0.0,0.0,0.0,0.0,0.0,0.0,0.0,0.0,0.0,0.0,0.0,0.0,0.0,0.0,0.0,0.0,0.0,0.0,0.0,0.0,0.0,0.0,0.0,0.0,0.0,0.0,0.0,0.0,0.0,0.0,0.0,0.0,0.0,0.0,0.0,0.0,0.0,0.0,0.0,0.0,0.0,0.0,0.0,0.0,0.0,0.0,0.0,0.0,0.0,0.0,0.0,0.0,0.0,0.0,0.0,0.0,0.0,0.0,0.0,0.0,0.0,0.0,0.0,0.0,0.0,0.0,0.0,0.0,0.0,0.0,0.0,0.0,0.0,0.0,0.0,0.0,0.0,0.0,0.0,0.0,0.0,0.0,0.0,0.0,0.0,0.0,0.0,0.0,0.0,0.0,0.0,0.0,0.0,0.0,0.0,0.0,0.0,0.0,0.0,0.0,0.0,0.0,0.0,0.0,0.0,0.0,0.0,0.0,0.0,0.0,0.0,0.0,0.0,0.0,0.0,0.0,0.0,0.0,0.0,0.0,0.0,0.0,0.0,0.0,0.0,0.0,0.0,0.0,0.0,0.0,0.0,0.0,0.0,0.0,0.0,0.0,0.0,0.0,0.0,0.0,0.0,0.0,0.0,0.0,0.0,0.0,0.0,0.0,0.0,0.0,0.0,0.0,0.0,0.0,0.0,0.0,0.0,0.0,0.0,0.0,0.0,0.0,0.0,0.0,0.0,0.0,0.0,0.0,0.0,0.0,0.0,0.0,0.0,0.0,0.0,0.0,0.0,0.0,0.0,0.0,0.0,0.0,0.0,0.0,0.0,0.0,0.0,0.0,0.0,0.0,0.0,0.0,0.0,0.0,0.0,0.0,0.0,0.0,0.0,0.0,0.0,0.0,0.0,0.0,0.0,0.0,0.0,0.0,0.0,0.0,0.0,0.0,0.0,0.0,0.0,0.0,0.0,0.0,0.0,0.0,0.0,0.0,0.0,0.0,0.0,0.0,0.0,0.0,0.0,0.0,0.0,0.0,0.0,0.0,0.0,0.0,0.0,0.0,0.0,0.0,0.0,0.0,0.0,0.0,0.0,0.0,0.0,0.0,0.0,0.0,0.0,0.0,0.0,0.0,0.0,0.0,0.0,0.0,0.0,0.0,0.0,0.0,0.0,0.0,0.0,0.0,0.0,0.0,0.0,0.0,0.0,0.0,0.0,0.0,0.0,0.0,0.0,0.0,0.0,0.0,0.0,0.0,0.0,0.0,0.0,0.0,0.0,0.0,0.0,0.0,0.0,0.0,0.0,0.0,0.0,0.0,0.0,0.0,0.0,0.0,0.0,0.0,0.0,0.0,0.0,0.0,0.0,0.0,0.0,0.0,0.0,0.0,0.0,0.0,0.0,0.0,0.0,0.0,0.0,0.0,0.0,0.0,0.0,0.0,0.0,0.0,0.0,0.0,0.0,0.0,0.0,0.0,0.0,0.0,0.0,0.0,0.0,0.0,0.0,0.0,0.0,0.0,0.0,0.0,0.0,0.0,0.0,0.0,0.0,0.0,0.0,0.0,0.0,0.0,0.0,0.0,0.0,0.0,0.0,0.0,0.0,0.0,0.0,0.0,0.0,0.0,0.0,0.0,0.0,0.0,0.0,0.0,0.0,0.0,0.0,0.0,0.0,0.0,0.0,0.0,0.0,0.0,0.0,0.0,0.0,0.0,0.0,0.0,0.0,0.0,0.0,0.0,0.0,0.0,0.0,0.0,0.0,0.0,0.0,0.0,0.0,0.0,0.0,0.0,0.0,0.0,0.0,0.0,0.0,0.0,0.0,0.0,0.0,0.0,0.0,0.0,0.0,0.0,0.0,0.0,0.0,0.0,0.0,0.0,0.0,0.0,0.0,0.0,0.0,0.0,0.0,0.0,0.0,0.0,0.0,0.0,0.0,0.0,0.0,0.0,0.0,0.0,0.0,0.0,0.0,0.0,0.0,0.0,0.0,0.0,0.0,0.0,0.0,0.0,0.0,0.0,0.0,0.0,0.0,0.0,0.0,0.0,0.0,0.0,0.0,0.0,0.0,0.0,0.0,0.0,0.0,0.0,0.0,0.0,0.0,0.0,0.0,0.0,0.0,0.0,0.0,0.0,0.0,0.0,0.0,0.0,0.0,0.0,0.0,0.0,0.0,0.0,0.0,0.0,0.0,0.0,0.0,0.0,0.0,0.0,0.0,0.0,0.0,0.0,0.0,0.0,0.0,0.0,0.0,0.0,0.0,0.0,0.0,0.0,0.0,0.0,0.0,0.0,0.0,0.0,0.0,0.0,0.0,0.0,0.0,0.0,0.0,0.0,0.0,0.0,0.0,0.0,0.0,0.0,0.0,0.0,0.0,0.0,0.0,0.0,0.0,0.0,0.0,0.0,0.0,0.0,0.0,0.0,0.0,0.0,0.0,0.0,0.0,0.0,0.0,0.0,0.0,0.0,0.0,0.0,0.0,0.0,0.0,0.0,0.0,0.0,0.0,0.0,0.0,0.0,0.0,0.0,0.0,0.0,0.0,0.0,0.0,0.0,0.0,0.0,0.0,0.0,0.0,0.0,0.0,0.0,0.0,0.0,0.0,0.0,0.0,0.0,0.0,0.0,0.0,0.0,0.0,0.0,0.0,0.0,0.0,0.0,0.0,0.0,0.0,0.0,0.0,0.0,0.0,0.0,0.0,0.0,0.0,0.0,0.0,0.0,0.0,0.0,0.0,0.0,0.0,0.0,0.0,0.0,0.0,0.0,0.0,0.0,0.0,0.0,0.0,0.0,0.0,0.0,0.0,0.0,0.0,0.0,0.0,0.0,0.0,0.0,0.0,0.0,0.0,0.0,0.0,0.0,0.0,0.0,0.0,0.0,0.0,0.0,0.0,0.0,0.0,0.0,0.0,0.0,0.0,0.0,0.0,0.0,0.0,0.0,0.0,0.0,0.0,0.0,0.0,0.0,0.0,0.0,0.0,0.0,0.0,0.0,0.0,0.0,0.0,0.0,0.0,0.0,0.0,0.0,0.0,0.0,0.0,0.0,0.0,0.0,0.0,0.0,0.0,0.0,0.0,0.0,0.0,0.0,0.0,0.0,0.0,0.0,0.0,0.0,0.0,0.0,0.0,0.0,0.0,0.0,0.0,0.0,0.0,0.0,0.0,0.0,0.0,0.0,0.0,0.0,0.0,0.0,0.0,0.0,0.0,0.0,0.0,0.0,0.0,0.0,0.0,0.0,0.0,0.0,0.0,0.0,0.0,0.0,0.0,0.0,0.0,0.0,0.0,0.0,0.0,0.0,0.0,0.0,0.0,0.0,0.0,0.0,0.0,0.0,0.0,0.0,0.0,0.0,0.0,0.0,0.0,0.0,0.0,0.0,0.0,0.0,0.0,0.0,0.0,0.0,0.0,0.0,0.0,0.0,0.0,0.0,0.0,0.0,0.0,0.0,0.0,0.0,0.0,0.0,0.0,0.0,0.0,0.0,0.0,0.0,0.0,0.0,0.0,0.0,0.0,0.0,0.0,0.0,0.0,0.0,0.0,0.0,0.0,0.0,0.0,0.0,0.0,0.0,0.0,0.0,0.0,0.0,0.0,0.0,0.0,0.0,0.0,0.0,0.0,0.0,0.0,0.0,0.0,0.0,0.0,0.0,0.0,0.0,0.0,0.0,0.0,0.0,0.0,0.0,0.0,0.0,0.0,0.0,0.0,0.0,0.0,0.0,0.0,0.0,0.0,0.0,0.0,0.0,0.0,0.0,0.0,0.0,0.0,0.0,0.0,0.0,0.0,0.0,0.0,0.0,0.0,0.0,0.0,0.0,0.0,0.0,0.0,0.0,0.0,0.0,0.0,0.0,0.0,0.0,0.0,0.0,0.0,0.0,0.0,0.0,0.0,0.0,0.0,0.0,0.0,0.0,0.0,0.0,0.0,0.0,0.0,0.0,0.0,0.0,0.0,0.0,0.0,0.0,0.0,0.0,0.0,0.0,0.0,0.0,0.0,0.0,0.0,0.0,0.0,0.0,0.0,0.0,0.0,0.0,0.0,0.0,0.0,0.0,0.0,0.0,0.0,0.0,0.0,0.0,0.0,0.0,0.0,0.0,0.0,0.0,0.0,0.0,0.0,0.0,0.0,0.0,0.0,0.0,0.0,0.0,0.0,0.0,0.0,0.0,0.0,0.0,0.0,0.0,0.0,0.0,0.0,0.0,0.0,0.0,0.0,0.0,0.0,0.0,0.0,0.0,0.0,0.0,0.0,0.0,0.0,0.0,0.0,0.0,0.0,0.0,0.0,0.0,0.0,0.0,0.0,0.0,0.0,0.0,0.0,0.0,0.0,0.0,0.0,0.0,0.0,0.0,0.0,0.0,0.0,0.0,0.0,0.0,0.0,0.0,0.0,0.0,0.0,0.0,0.0,0.0,0.0,0.0,0.0,0.0,0.0,0.0,0.0,0.0,0.0,0.0,0.0,0.0,0.0,0.0,0.0,0.0,0.0,0.0,0.0,0.0,0.0,0.0,0.0,0.0,0.0,0.0,0.0,0.0,0.0,0.0,0.0,0.0,0.0,0.0,0.0,0.0,0.0,0.0,0.0,0.0,0.0,0.0,0.0,0.0,0.0,0.0,0.0,0.0,0.0,0.0,0.0,0.0,0.0,0.0,0.0,0.0,0.0,0.0,0.0,0.0,0.0,0.0,0.0,0.0,0.0,0.0,0.0,0.0,0.0,0.0,0.0,0.0,0.0,0.0,0.0,0.0,0.0,0.0,0.0,0.0,0.0,0.0,0.0,0.0,0.0,0.0,0.0,0.0,0.0,0.0,0.0,0.0,0.0,0.0,0.0,0.0,0.0,0.0,0.0,0.0,0.0,0.0,0.0,0.0,0.0,0.0,0.0,0.0,0.0,0.0,0.0,0.0,0.0,0.0,0.0,0.0,0.0,0.0,0.0,0.0,0.0,0.0,0.0,0.0,0.0,0.0,0.0,0.0,0.0,0.0,0.0,0.0,0.0,0.0,0.0,0.0,0.0,0.0,0.0,0.0,0.0,0.0,0.0,0.0,0.0,0.0,0.0,0.0,0.0,0.0,0.0,0.0,0.0,0.0,0.0,0.0,0.0,0.0,0.0,0.0,0.0,0.0,0.0,0.0,0.0,0.0,0.0,0.0,0.0,0.0,0.0,0.0,0.0,0.0,0.0,0.0,0.0,0.0,0.0,0.0,0.0,0.0,0.0,0.0,0.0,0.0,0.0,0.0,0.0,0.0,0.0,0.0,0.0,0.0,0.0,0.0,0.0,0.0,0.0,0.0,0.0,0.0,0.0,0.0,0.0,0.0,0.0,0.0,0.0,0.0,0.0,0.0,0.0,0.0,0.0,0.0,0.0,0.0,0.0,0.0,0.0,0.0,0.0,0.0,0.0,0.0,0.0,0.0,0.0,0.0,0.0,0.0,0.0,0.0,0.0,0.0,0.0,0.0,0.0,0.0,0.0,0.0,0.0,0.0,0.0,0.0,0.0,0.0,0.0,0.0,0.0,0.0,0.0,0.0,0.0,0.0,0.0,0.0,0.0,0.0,0.0,0.0,0.0,0.0,0.0,0.0,0.0,0.0,0.0,0.0,0.0,0.0,0.0,0.0,0.0,0.0,0.0,0.0,0.0,0.0,0.0,0.0,0.0,0.0,0.0,0.0,0.0,0.0,0.0,0.0,0.0,0.0,0.0,0.0,0.0,0.0,0.0,0.0,-0.7076,-0.6508,0.0,0.0,0.0,0.0,0.0,0.0,0.0,0.0,0.0,0.0,0.0,0.0,0.0,0.0,0.0,0.0,0.0,0.0,0.0,0.0,0.0,0.0,0.0,0.0,0.0,0.0,0.0,0.0,0.0,0.0,0.0,0.0,0.0,0.0,0.0,0.0,0.0,0.0,0.0,0.0,0.0,0.0,0.0,0.0,0.0,0.0,0.0,0.0,0.0,0.0,0.0,0.0,0.0,0.0,0.0,0.0,0.0,0.0,0.0,0.0,0.0,0.0,0.0,0.0,0.0,0.0,0.0,0.0,0.0,0.0,0.0,0.0,0.0,0.0,0.0,0.0,0.0,0.0,0.0,0.0,0.0,0.0,0.0,0.0,0.0,0.0,0.0,0.0,0.0,0.0,0.0,0.0,0.0,0.0,0.0,0.0,0.0,0.0,0.0,0.0,0.0,0.0,0.0,0.0,0.0,0.0,0.0,0.0,0.0,0.0,0.0,0.0,0.0,0.0,-0.7082,-0.7085,0.0,0.0,0.0,0.0,0.0,0.0,0.0,0.0,0.0,0.0,0.0,0.0,0.0,0.0,0.0,0.0,0.0,0.0,0.0,0.0,0.0,0.0,0.0,0.0,0.0,0.0,0.0,0.0,0.0,0.0,0.0,0.0,0.0,0.0,0.0,0.0,0.0,0.0,0.0,0.0,0.0,0.0,0.0,0.0,0.0,0.0,0.0,0.0,0.0,0.0,0.0,0.0,0.0,0.0,0.0,0.0,0.0,0.0,0.0,0.0,0.0,0.0,0.0,0.0,0.0,0.0,0.0,0.0,0.0,0.0,0.0,0.0,0.0,0.0,0.0,0.0,0.0,0.0,0.0,0.0,0.0,0.0,0.0,0.0,0.0,0.0,0.0,0.0,0.0,0.0,0.0,0.0,0.0,0.0,0.0,0.0,0.0,0.0,0.0,0.0,0.0,0.0,0.0,0.0,0.0,0.0,0.0,0.0,-0.7094,-0.7122,-0.7101,-0.7101,-0.709,-0.7076,-0.7115,-0.7068,-0.6946,-0.4976,0.0,0.0,0.0,0.0,0.0,0.0,0.0,0.0,0.0,0.0,0.0,0.0,0.0,0.0,0.0,0.0,0.0,0.0,0.0,0.0,0.0,0.0,0.0,0.0,0.0,0.0,0.0,0.0,0.0,0.0,0.0,0.0,0.0,0.0,0.0,0.0,0.0,0.0,0.0,0.0,0.0,0.0,0.0,0.0,0.0,0.0,0.0,0.0,0.0,0.0,0.0,0.0,0.0,0.0,0.0,0.0,0.0,0.0,0.0,0.0,0.0,0.0,0.0,0.0,0.0,0.0,0.0,0.0,0.0,0.0,0.0,0.0,0.0,0.0,0.0,0.0,0.0,0.0,0.0,0.0,0.0,0.0,0.0,0.0,0.0,0.0,-0.578,-0.3432,0.0,0.0,0.0,0.0,0.0,0.0,0.0,0.0,0.0,0.0,0.0,0.0,0.0,-0.6924,-0.6678,-0.6673,-0.6776,-0.7088,-0.7068,-0.7136,-0.7119,-0.7119,-0.7119,-0.7115,-0.7136,0.0,-0.7066,-0.6681,0.0,0.0,0.0,0.0,0.0,0.0,0.0,0.0,0.0,0.0,0.0,0.0,0.0,0.0,0.0,0.0,0.0,0.0,0.0,0.0,0.0,0.0,0.0,0.0,0.0,0.0,0.0,0.0,0.0,0.0,0.0,0.0,0.0,0.0,0.0,0.0,0.0,0.0,0.0,0.0,0.0,0.0,0.0,0.0,0.0,0.0,0.0,0.0,0.0,0.0,0.0,0.0,0.0,0.0,0.0,0.0,0.0,0.0,0.0,0.0,0.0,0.0,0.0,0.0,0.0,0.0,0.0,0.0,0.0,0.0,0.0,0.0,0.0,0.0,0.0,0.0,0.0,0.0,0.0,0.0,0.0,0.0,0.0,0.0,0.0,-0.6629,-0.6486,-0.5288,-0.4438,-0.2944,0.0,0.0,0.0,0.0,0.0,0.0,0.0,0.0,0.0,-0.5619,-0.6551,-0.7118,-0.7071,-0.718,-0.731,-0.7285,-0.7363,-0.7397,-0.7397,-0.7397,-0.7397,-0.7397,-0.7397,-0.7366,-0.7396,-0.7228,-0.6508,-0.5581,0.0,0.0,0.0,0.0,-0.5931,-0.5872,0.0,0.0,0.0,0.0,0.0,0.0,0.0,0.0,0.0,0.0,0.0,0.0,0.0,0.0,0.0,0.0,0.0,0.0,0.0,0.0,0.0,0.0,0.0,0.0,0.0,0.0,0.0,0.0,0.0,0.0,0.0,0.0,0.0,0.0,0.0,0.0,0.0,0.0,0.0,0.0,0.0,0.0,0.0,0.0,0.0,0.0,0.0,0.0,0.0,0.0,0.0,0.0,0.0,0.0,0.0,0.0,0.0,0.0,0.0,0.0,0.0,0.0,0.0,0.0,0.0,0.0,0.0,0.0,0.0,0.0,0.0,0.0,0.0,0.0,0.0,0.0,0.0,-0.5489,-0.6124,-0.6401,-0.683,-0.5719,0.0,0.0,0.0,0.0,0.0,0.0,-0.4504,-0.6199,-0.7186,-0.7142,-0.7186,-0.7252,-0.7258,-0.7373,-0.7431,-0.7431,-0.7546,-0.7617,-0.7655,-0.7655,-0.7675,-0.7712,-0.7712,-0.7736,-0.7746,-0.7516,-0.742,-0.7373,-0.7275,-0.7125,-0.7094,-0.7131,-0.7334,-0.7545,0.0,0.0,0.0,0.0,0.0,0.0,0.0,0.0,0.0,0.0,0.0,0.0,0.0,0.0,0.0,0.0,0.0,0.0,0.0,0.0,0.0,0.0,0.0,0.0,0.0,0.0,0.0,0.0,0.0,0.0,0.0,0.0,0.0,0.0,0.0,0.0,0.0,0.0,0.0,0.0,0.0,0.0,0.0,0.0,0.0,0.0,0.0,0.0,0.0,0.0,0.0,0.0,0.0,0.0,0.0,0.0,0.0,0.0,0.0,0.0,0.0,0.0,0.0,0.0,0.0,0.0,0.0,0.0,0.0,0.0,0.0,0.0,0.0,0.0,0.0,0.0,0.0,0.0,0.0,-0.6427,-0.689,0.0,0.0,0.0,0.0,-0.6947,-0.7024,-0.6905,-0.6943,-0.726,-0.7399,-0.7346,-0.7492,-0.757,-0.7577,-0.7584,-0.7587,-0.759,-0.7597,-0.7672,-0.7801,-0.7801,-0.7879,-0.8018,-0.8018,-0.8099,-0.8201,-0.776,-0.7499,-0.737,-0.7363,-0.7272,-0.716,-0.7309,-0.7363,-0.7404,0.0,0.0,0.0,0.0,0.0,0.0,0.0,0.0,0.0,0.0,0.0,0.0,0.0,0.0,0.0,0.0,0.0,0.0,0.0,0.0,0.0,0.0,0.0,0.0,0.0,0.0,0.0,0.0,0.0,0.0,0.0,0.0,0.0,0.0,0.0,0.0,0.0,0.0,0.0,0.0,0.0,0.0,0.0,0.0,0.0,0.0,0.0,0.0,0.0,0.0,0.0,0.0,0.0,0.0,0.0,0.0,0.0,0.0,0.0,0.0,0.0,0.0,0.0,0.0,0.0,0.0,0.0,0.0,0.0,0.0,0.0,0.0,0.0,0.0,0.0,0.0,0.0,0.0,0.0,-0.4599,-0.5277,0.0,-0.6987,-0.6347,-0.623,-0.7059,-0.7229,-0.7265,-0.731,-0.7458,-0.7564,-0.7516,-0.7658,-0.7736,-0.7736,-0.7933,-0.8031,-0.8031,-0.8123,-0.8194,-0.8245,-0.8245,-0.8272,-0.8323,-0.8323,-0.8357,-0.8394,-0.8235,-0.8133,-0.8085,-0.8085,-0.8052,-0.8011,-0.8065,-0.8085,-0.8102,0.0,0.0,0.0,0.0,0.0,0.0,0.0,0.0,0.0,0.0,0.0,0.0,0.0,0.0,0.0,0.0,0.0,0.0,0.0,0.0,0.0,0.0,0.0,0.0,0.0,0.0,0.0,0.0,0.0,0.0,0.0,0.0,0.0,0.0,0.0,0.0,0.0,0.0,0.0,0.0,0.0,0.0,-0.7,0.0,0.0,0.0,0.0,0.0,0.0,0.0,0.0,0.0,0.0,0.0,0.0,0.0,0.0,0.0,0.0,0.0,0.0,0.0,0.0,0.0,0.0,0.0,0.0,0.0,0.0,0.0,0.0,0.0,0.0,0.0,0.0,0.0,0.0,0.0,-0.4739,-0.4739,-0.5207,-0.5959,-0.6957,-0.7166,-0.7183,-0.7183,-0.7406,-0.7468,-0.7516,-0.7665,-0.7773,-0.7824,-0.7963,-0.8038,-0.8038,-0.8241,-0.8367,-0.8421,-0.8513,-0.8611,-0.871,-0.871,-0.8737,-0.8784,-0.8784,-0.8784,-0.8784,-0.8784,-0.8784,-0.8767,-0.856,-0.8482,-0.8482,-0.8482,-0.8482,-0.8482,0.0,0.0,0.0,0.0,0.0,0.0,0.0,0.0,0.0,0.0,0.0,0.0,0.0,0.0,0.0,0.0,0.0,0.0,0.0,0.0,0.0,0.0,0.0,0.0,0.0,0.0,0.0,0.0,0.0,0.0,0.0,0.0,0.0,0.0,0.0,0.0,0.0,0.0,0.0,0.0,0.0,0.0,-0.7132,0.0,0.0,0.0,0.0,0.0,0.0,0.0,0.0,0.0,0.0,0.0,0.0,0.0,0.0,0.0,0.0,0.0,0.0,0.0,0.0,0.0,0.0,0.0,0.0,0.0,0.0,0.0,0.0,0.0,0.0,0.0,0.0,0.0,-0.4013,-0.5641,-0.7101,-0.7101,-0.7094,-0.7091,-0.7091,-0.7302,-0.738,-0.7387,-0.7529,-0.7675,-0.7818,-0.797,-0.8123,-0.8272,-0.8421,-0.8496,-0.8496,-0.8506,-0.8584,-0.873,-0.873,-0.8882,-0.9161,-0.9161,-0.9242,-0.9381,-0.9381,-0.9381,-0.9381,-0.9381,-0.9381,-0.9323,-0.8737,-0.8509,-0.8509,-0.8509,-0.8509,-0.8509,0.0,0.0,0.0,0.0,0.0,0.0,0.0,0.0,0.0,0.0,0.0,0.0,0.0,0.0,0.0,0.0,0.0,0.0,0.0,0.0,0.0,0.0,0.0,0.0,0.0,0.0,0.0,0.0,0.0,0.0,0.0,0.0,0.0,0.0,0.0,0.0,0.0,0.0,0.0,0.0,0.0,0.0,-0.6987,0.0,0.0,0.0,0.0,0.0,0.0,0.0,0.0,0.0,0.0,0.0,0.0,0.0,0.0,0.0,0.0,0.0,0.0,0.0,0.0,0.0,0.0,0.0,0.0,0.0,0.0,0.0,0.0,0.0,0.0,0.0,0.0,-0.673,-0.6112,-0.6653,-0.7084,-0.7068,-0.7251,-0.7319,-0.7319,-0.7451,-0.758,-0.7682,-0.7831,-0.7984,-0.8136,-0.8282,-0.8381,-0.8421,-0.8676,-0.8815,-0.8815,-0.9025,-0.9154,-0.9198,-0.9198,-0.9239,-0.9317,-0.9317,-0.934,-0.9381,-0.9381,-0.9381,-0.9381,-0.9381,-0.9381,-0.9364,-0.9198,-0.9133,-0.9133,-0.9133,-0.9133,-0.9133,0.0,0.0,0.0,0.0,0.0,0.0,0.0,0.0,0.0,0.0,0.0,0.0,0.0,0.0,0.0,0.0,0.0,0.0,0.0,0.0,0.0,0.0,0.0,0.0,0.0,0.0,0.0,0.0,0.0,0.0,0.0,0.0,0.0,0.0,0.0,0.0,0.0,0.0,0.0,0.0,0.0,0.0,-0.7017,-0.7017,-0.6926,-0.6817,-0.6963,-0.6939,-0.6854,-0.7004,0.0,0.0,0.0,0.0,0.0,0.0,0.0,0.0,0.0,0.0,0.0,0.0,0.0,0.0,0.0,0.0,0.0,0.0,0.0,0.0,0.0,0.0,0.0,0.0,-0.698,-0.7115,-0.7115,-0.7197,-0.7251,-0.7238,-0.7373,-0.7492,-0.755,-0.7695,-0.7845,-0.7994,-0.814,-0.8292,-0.8445,-0.8594,-0.8699,-0.876,-0.8998,-0.9123,-0.9123,-0.9293,-0.9412,-0.9476,-0.9476,-0.9507,-0.9564,-0.9564,-0.9564,-0.9564,-0.9564,-0.9564,-0.9564,-0.9564,-0.9564,-0.9554,0.0,0.0,0.0,0.0,-0.9381,-0.9381,0.0,0.0,0.0,0.0,0.0,0.0,0.0,0.0,0.0,0.0,0.0,0.0,0.0,0.0,0.0,0.0,0.0,0.0,0.0,0.0,0.0,0.0,0.0,0.0,0.0,0.0,0.0,0.0,0.0,0.0,0.0,0.0,0.0,0.0,0.0,0.0,0.0,0.0,0.0,0.0,0.0,0.0,-0.7139,-0.7139,-0.7061,-0.697,-0.7095,-0.697,-0.677,-0.6905,0.0,0.0,0.0,0.0,0.0,0.0,0.0,0.0,0.0,0.0,0.0,0.0,0.0,0.0,0.0,0.0,0.0,0.0,0.0,0.0,0.0,0.0,0.0,0.0,-0.719,-0.7377,-0.7394,-0.7428,-0.7434,-0.74,-0.7546,-0.7699,-0.7824,-0.7991,-0.8153,-0.8309,-0.8452,-0.8601,-0.8754,0.0,0.0,0.0,0.0,-0.9408,-0.9408,-0.9422,-0.95,-0.9635,-0.9635,-0.97,-0.9822,-0.9822,-0.9822,-0.9822,-0.9822,-0.9822,-0.9822,-0.9822,-0.9822,-0.9795,-0.9534,-0.9432,-0.9432,-0.9432,-0.9432,-0.9432,0.0,0.0,0.0,0.0,0.0,0.0,0.0,0.0,0.0,0.0,0.0,0.0,0.0,0.0,0.0,0.0,0.0,0.0,0.0,0.0,0.0,0.0,0.0,0.0,0.0,0.0,0.0,0.0,0.0,0.0,0.0,0.0,0.0,0.0,0.0,0.0,0.0,0.0,0.0,0.0,0.0,0.0,-0.7139,-0.7139,-0.7122,-0.7102,-0.7129,-0.7102,-0.7058,-0.7088,-0.7099,-0.7099,-0.7099,0.0,0.0,0.0,0.0,0.0,0.0,0.0,0.0,0.0,0.0,0.0,0.0,0.0,0.0,0.0,0.0,0.0,0.0,0.0,0.0,-0.7285,-0.7358,-0.7414,-0.7539,-0.776,-0.7821,-0.7584,-0.779,-0.7967,-0.7991,-0.8238,-0.8462,-0.8615,-0.8764,-0.8913,-0.9059,-0.9211,-0.931,-0.9337,-0.9486,-0.9564,-0.9564,-0.968,-0.9751,-0.9781,-0.9781,0.0,-0.9822,-0.9822,-0.9822,-0.9822,-0.9822,-0.9822,-0.9822,-0.9822,-0.9822,-0.9815,-0.9758,-0.9737,-0.9737,-0.9737,-0.9737,-0.9737,0.0,0.0,0.0,0.0,0.0,0.0,0.0,0.0,0.0,0.0,0.0,0.0,0.0,0.0,0.0,0.0,0.0,0.0,0.0,0.0,0.0,0.0,0.0,0.0,0.0,0.0,0.0,0.0,0.0,0.0,0.0,0.0,0.0,0.0,0.0,0.0,0.0,0.0,0.0,0.0,0.0,0.0,-0.879,-0.8189,-0.7665,-0.7139,-0.7139,-0.7139,-0.7139,-0.7139,-0.7139,-0.7139,-0.7139,-0.7092,-0.699,0.0,0.0,0.0,0.0,0.0,0.0,0.0,0.0,0.0,0.0,0.0,0.0,0.0,0.0,-0.6746,0.0,0.0,-0.7112,-0.7444,-0.7598,-0.7645,-0.7797,-0.8014,-0.8072,-0.7845,-0.8082,-0.8289,-0.8367,-0.8577,-0.8771,-0.892,-0.9072,-0.9191,-0.9262,-0.9412,-0.9496,-0.9496,-0.9639,-0.9717,-0.9717,-0.9785,-0.9822,-0.9822,-0.9822,-0.9822,-0.9822,-0.9822,-0.9822,-0.9822,-0.9822,-0.9822,-0.9822,-0.9822,-0.9822,-0.9822,-0.9822,-0.9822,-0.9822,-0.9822,-0.9822,-0.9822,0.0,0.0,0.0,0.0,0.0,0.0,0.0,0.0,0.0,0.0,0.0,0.0,0.0,0.0,0.0,0.0,0.0,0.0,0.0,0.0,0.0,0.0,0.0,0.0,0.0,0.0,0.0,0.0,0.0,0.0,0.0,0.0,0.0,0.0,0.0,0.0,0.0,0.0,0.0,0.0,0.0,0.0,-1.0524,-0.9579,-0.8452,-0.7404,-0.7228,-0.7139,-0.7139,-0.7139,-0.7139,-0.7139,-0.7139,-0.7139,-0.7082,-0.6787,-0.679,0.0,0.0,0.0,0.0,0.0,0.0,0.0,0.0,0.0,-0.6614,-0.6793,-0.6831,-0.6912,-0.718,-0.7231,-0.7319,-0.7597,-0.776,-0.7909,-0.8062,-0.8241,-0.8309,-0.8184,-0.8381,-0.8584,-0.874,-0.8893,-0.9039,-0.9188,-0.934,-0.9425,-0.9425,-0.9568,-0.9649,-0.9649,-0.9761,-0.9822,-0.9822,-0.9822,-0.9822,-0.9822,-0.9822,-0.9822,-0.9822,-0.9822,-0.9822,-0.9822,-0.9822,-0.9822,-0.9822,-0.9822,-0.9822,-0.9822,-0.9822,-0.9822,-0.9822,-0.9822,-0.9822,-0.9822,0.0,0.0,0.0,0.0,0.0,0.0,0.0,0.0,0.0,0.0,0.0,0.0,0.0,0.0,0.0,0.0,0.0,0.0,0.0,0.0,0.0,0.0,0.0,0.0,0.0,0.0,0.0,0.0,0.0,0.0,0.0,0.0,0.0,0.0,0.0,0.0,0.0,0.0,0.0,0.0,0.0,0.0,-1.0611,-1.0438,-0.9662,-0.854,-0.7489,-0.7139,-0.7139,-0.7139,-0.7139,-0.7139,-0.7139,-0.7139,-0.7082,-0.6787,0.0,-0.6658,-0.6346,-0.6376,-0.6525,-0.6647,-0.6675,-0.6742,0.0,0.0,-0.6956,-0.7238,-0.7295,-0.735,-0.7516,-0.755,-0.76,-0.7763,-0.7916,-0.8069,-0.8221,-0.8486,-0.8655,-0.8638,-0.8665,-0.8747,-0.8899,-0.9045,-0.9191,-0.9344,-0.9496,-0.9585,-0.9585,-0.972,-0.9798,-0.9798,-0.9812,-0.9822,-0.9822,-0.9822,-0.9822,-0.9822,-0.9822,-0.9822,-0.9822,-0.9822,-0.9822,-0.9822,-0.9822,-0.9822,-0.9822,-0.9822,-0.9822,-0.9822,-0.9822,-0.9822,-0.9822,-0.9822,-0.9822,-0.9822,0.0,0.0,0.0,0.0,0.0,0.0,0.0,0.0,0.0,0.0,0.0,0.0,0.0,0.0,0.0,0.0,0.0,0.0,0.0,0.0,0.0,0.0,0.0,0.0,0.0,0.0,0.0,0.0,0.0,0.0,0.0,0.0,0.0,0.0,0.0,0.0,0.0,0.0,0.0,0.0,0.0,0.0,-1.1552,-1.0869,-0.9847,-0.8639,-0.7444,-0.7017,0.0,0.0,-0.7017,-0.7017,-0.7017,-0.7017,-0.6956,-0.6658,-0.663,0.0,-0.6658,-0.6627,-0.6644,-0.6797,-0.6834,-0.6865,-0.699,-0.7034,-0.7112,-0.7326,-0.7441,-0.755,-0.7695,-0.7723,-0.7801,0.0,-0.8133,-0.8255,-0.8492,-0.8632,-0.8774,-0.8947,-0.8967,-0.8994,-0.9055,-0.9279,-0.9445,-0.951,-0.9649,-0.9734,-0.9734,-0.9788,-0.9822,-0.9822,-0.9822,-0.9822,-0.9822,-0.9822,-0.9822,-0.9822,-0.9822,-0.9822,-0.9822,-0.9822,-0.9869,-0.9954,-0.9954,-1.0005,-1.0086,-1.0086,-1.0086,-1.0086,-1.0086,-1.0086,-1.0066,-0.9886,-0.9822,-0.9822,0.0,0.0,0.0,0.0,0.0,0.0,0.0,0.0,0.0,0.0,0.0,0.0,0.0,0.0,0.0,0.0,0.0,0.0,0.0,0.0,0.0,0.0,0.0,0.0,0.0,0.0,0.0,0.0,0.0,0.0,0.0,0.0,0.0,0.0,0.0,0.0,0.0,0.0,0.0,0.0,0.0,0.0,-1.2231,-1.131,-1.0164,-0.8941,-0.7769,-0.7321,0.0,0.0,-0.7285,-0.72,-0.6949,-0.6865,-0.6814,-0.6549,-0.6522,-0.6614,-0.6763,-0.6753,-0.6736,-0.6892,-0.699,-0.7051,-0.7051,-0.7163,-0.7309,-0.7461,-0.758,-0.7702,-0.7848,-0.7909,-0.8011,-0.8235,-0.834,-0.8465,-0.8679,-0.8781,-0.8913,-0.9127,-0.9225,-0.9279,-0.9279,-0.9479,-0.9625,-0.9663,-0.9764,-0.9822,-0.9822,-0.9822,-0.9822,-0.9822,-0.9822,-0.9822,-0.9822,-0.9822,-0.9822,-0.9822,-0.9822,-0.9842,-0.9886,-0.9927,-1.0008,-1.0114,-1.0114,-1.0178,-1.028,-1.028,-1.028,-1.028,-1.028,-1.028,-1.0253,-1.0029,-0.9947,-0.9947,0.0,0.0,0.0,0.0,0.0,0.0,0.0,0.0,0.0,0.0,0.0,0.0,0.0,0.0,0.0,0.0,0.0,0.0,0.0,0.0,0.0,0.0,0.0,0.0,0.0,0.0,0.0,0.0,0.0,0.0,0.0,0.0,0.0,0.0,0.0,0.0,0.0,0.0,0.0,0.0,0.0,0.0,-1.2298,-1.1968,-1.1122,-1.0036,-0.8776,0.0,0.0,0.0,-0.8172,-0.8012,-0.7033,-0.6709,0.0,-0.6519,-0.638,-0.6305,-0.6447,-0.659,-0.6736,-0.6892,-0.7146,-0.7356,-0.7356,-0.7475,-0.7628,-0.777,-0.7801,-0.7851,-0.8004,-0.8157,-0.8258,-0.8269,-0.8509,-0.8699,-0.871,-0.8957,-0.9144,-0.915,-0.9415,-0.9595,0.0,-0.9605,-0.9666,-0.9802,-0.9819,-0.9822,-0.9822,-0.9822,-0.9822,-0.9822,-0.9822,-0.9822,-0.9822,-0.9822,-0.9822,-0.9822,-0.9822,-0.9897,-1.0046,-1.0198,-1.027,-1.0273,-1.0273,-1.0276,-1.028,-1.028,-1.028,-1.028,-1.028,-1.028,-1.028,-1.027,-1.0266,-1.0266,0.0,0.0,0.0,0.0,0.0,0.0,0.0,0.0,0.0,0.0,0.0,0.0,0.0,0.0,0.0,0.0,0.0,0.0,0.0,0.0,0.0,0.0,0.0,0.0,0.0,0.0,0.0,0.0,0.0,0.0,0.0,0.0,0.0,0.0,0.0,0.0,0.0,0.0,0.0,0.0,0.0,0.0,-1.2316,-1.2228,-1.1233,-1.0054,0.0,0.0,0.0,0.0,0.0,0.0,-0.8697,0.0,-0.7392,-0.6606,-0.6366,-0.6434,-0.6583,-0.6736,-0.6912,-0.716,-0.7299,-0.7397,-0.7499,-0.7634,-0.7753,-0.7801,-0.7892,-0.7977,-0.8031,-0.8167,-0.8299,-0.8394,-0.8577,-0.8747,-0.8849,-0.9032,-0.9191,-0.9293,-0.9486,0.0,0.0,0.0,0.0,-0.9819,-0.9822,-0.9822,-0.9822,-0.9822,-0.9822,-0.9822,-0.9822,-0.9822,-0.9822,-0.9822,-0.9873,-0.9975,-1.0076,-1.0154,-1.0205,-1.0256,-1.0331,-1.0422,-1.0422,-1.0477,-1.0571,-1.0571,-1.0571,-1.0571,-1.0571,-1.0571,-1.0571,-1.0571,-1.0571,-1.0544,0.0,0.0,0.0,0.0,0.0,0.0,0.0,0.0,0.0,0.0,0.0,0.0,0.0,0.0,0.0,0.0,0.0,0.0,0.0,0.0,0.0,0.0,0.0,0.0,0.0,0.0,0.0,0.0,0.0,0.0,0.0,0.0,0.0,0.0,0.0,0.0,0.0,0.0,0.0,0.0,0.0,0.0,-1.2769,-1.2572,-1.1873,0.0,0.0,0.0,0.0,0.0,0.0,0.0,0.0,-0.8728,-0.7708,-0.6659,-0.64,-0.6519,-0.6725,-0.6892,-0.7065,-0.7309,-0.7451,-0.7553,-0.7651,-0.7787,-0.7892,-0.7892,-0.797,-0.8038,-0.8038,-0.8208,-0.836,-0.8397,-0.8577,-0.8747,-0.8845,-0.9028,-0.9208,-0.9364,-0.9561,-0.972,0.0,0.0,0.0,-0.9822,-0.9822,-0.9822,-0.9822,-0.9822,-0.9822,-0.9822,-0.9822,-0.9822,-0.9822,-0.9822,-0.9897,-1.0049,-1.0256,-1.0354,-1.0358,-1.0412,-1.0487,-1.0571,-1.0571,-1.0629,-1.0721,-1.0721,-1.0721,-1.0721,-1.0721,-1.0721,-1.0721,-1.0721,-1.0721,-1.0694,0.0,0.0,0.0,0.0,0.0,0.0,0.0,0.0,0.0,0.0,0.0,0.0,0.0,0.0,0.0,0.0,0.0,0.0,0.0,0.0,0.0,0.0,0.0,0.0,0.0,0.0,0.0,0.0,0.0,0.0,0.0,0.0,0.0,0.0,0.0,0.0,0.0,0.0,0.0,0.0,0.0,0.0,-1.3554,-1.2986,0.0,0.0,0.0,0.0,0.0,0.0,0.0,0.0,-0.9549,-0.857,-0.7614,-0.6759,-0.6488,-0.6559,-0.6858,-0.7044,-0.719,-0.7353,-0.7604,-0.7814,-0.7821,-0.7936,-0.8038,-0.8028,-0.8028,-0.8024,0.0,0.0,-0.8428,-0.8292,-0.8523,-0.8723,-0.8723,-0.8977,-0.9218,0.0,0.0,0.0,0.0,0.0,0.0,-0.9822,0.0,-0.9822,-0.9822,-0.9822,-0.9822,-0.9822,-0.9822,-0.9822,-0.9822,-0.9836,-0.992,-1.0076,-1.0365,-1.0504,-1.0507,-1.0653,-1.0721,-1.0721,-1.0721,-1.0721,-1.0721,-1.0721,-1.0721,-1.0721,-1.0721,-1.0721,-1.0721,-1.0721,-1.0721,-1.0721,0.0,0.0,0.0,0.0,0.0,0.0,0.0,0.0,0.0,0.0,0.0,0.0,0.0,0.0,0.0,0.0,0.0,0.0,0.0,0.0,0.0,0.0,0.0,0.0,0.0,0.0,0.0,0.0,0.0,0.0,0.0,0.0,0.0,0.0,0.0,0.0,0.0,0.0,0.0,0.0,0.0,0.0,-1.3307,0.0,0.0,0.0,0.0,0.0,0.0,0.0,0.0,0.0,-0.8777,-0.8269,-0.7878,-0.6955,-0.6722,-0.6851,-0.7037,-0.7197,-0.7373,-0.7634,-0.7753,-0.7841,-0.7957,-0.8011,-0.8007,-0.7892,-0.7868,-0.7838,0.0,0.0,0.0,-0.8275,-0.8615,0.0,-0.8879,-0.9137,0.0,-0.9374,0.0,-0.9822,-0.9822,-0.9822,0.0,0.0,-0.9822,-0.9822,-0.9822,-0.9822,-0.9822,-0.9822,-0.9822,-0.9822,-0.9822,-1.0049,-1.0236,-1.0382,-1.0571,-1.0663,-1.0663,-1.0704,-1.0721,-1.0721,-1.0721,-1.0721,-1.0721,-1.0721,-1.0721,-1.0721,-1.0721,-1.0721,-1.0721,-1.0721,-1.0721,-1.0721,0.0,0.0,0.0,0.0,0.0,0.0,0.0,0.0,0.0,0.0,0.0,0.0,0.0,0.0,0.0,0.0,0.0,0.0,0.0,0.0,0.0,0.0,0.0,0.0,0.0,0.0,0.0,0.0,0.0,0.0,0.0,0.0,0.0,0.0,0.0,0.0,0.0,0.0,0.0,0.0,0.0,0.0,0.0,0.0,0.0,0.0,0.0,0.0,0.0,0.0,0.0,-0.9463,-0.8457,-0.8164,-0.802,-0.7028,0.0,-0.6973,-0.7183,-0.7356,-0.7526,-0.7753,-0.7862,-0.7916,-0.7936,-0.794,-0.7896,-0.775,-0.7719,-0.7695,-0.7614,-0.7913,0.0,0.0,0.0,0.0,-0.8828,-0.9039,-0.9235,0.0,-0.9588,0.0,-0.9815,-0.9822,-0.9822,0.0,-0.9822,-0.9822,-0.9822,-0.9822,-0.9822,-0.9822,-0.9822,-0.9852,-0.992,-1.0161,-1.0351,-1.0493,-1.0646,-1.0721,-1.0721,-1.0721,-1.0721,-1.0721,-1.0721,-1.0721,-1.0721,-1.0721,-1.0721,-1.0721,-1.0721,-1.0721,-1.0721,-1.0721,-1.0721,-1.0721,0.0,0.0,0.0,0.0,0.0,0.0,0.0,0.0,0.0,0.0,0.0,0.0,0.0,0.0,0.0,0.0,0.0,0.0,0.0,0.0,0.0,0.0,0.0,0.0,0.0,0.0,0.0,0.0,0.0,0.0,0.0,0.0,0.0,0.0,0.0,0.0,0.0,0.0,0.0,0.0,0.0,0.0,0.0,0.0,0.0,0.0,0.0,0.0,0.0,0.0,-0.8591,-0.9187,-0.8313,-0.8073,-0.7939,-0.7172,-0.6956,-0.7017,-0.7295,-0.7485,-0.7634,-0.7777,-0.7926,-0.7997,-0.7845,-0.7811,-0.7767,-0.7604,-0.757,-0.7563,-0.7543,-0.778,-0.7987,-0.8007,0.0,-0.8533,-0.8689,-0.8859,-0.9069,-0.9347,-0.9517,-0.9666,-0.9805,-0.9822,-0.9822,-0.9822,-0.9822,-0.9822,-0.9822,-0.9822,-0.9822,-0.9822,-0.9822,-0.9903,-1.0076,-1.0212,-1.0361,-1.0524,-1.0656,-1.0721,-1.0721,-1.0721,-1.0721,-1.0721,-1.0721,-1.0721,-1.0721,-1.0721,-1.0721,-1.0721,-1.0721,-1.0721,-1.0721,-1.0721,-1.0721,-1.0721,0.0,0.0,0.0,0.0,0.0,0.0,0.0,0.0,0.0,0.0,-1.9695,-1.9592,0.0,0.0,0.0,0.0,0.0,0.0,0.0,0.0,0.0,0.0,0.0,0.0,0.0,0.0,0.0,0.0,0.0,0.0,0.0,0.0,0.0,0.0,0.0,0.0,0.0,0.0,0.0,0.0,0.0,0.0,0.0,0.0,0.0,0.0,0.0,0.0,0.0,0.0,-0.7115,-0.7414,-0.7281,-0.7323,-0.7239,-0.7095,-0.7102,-0.7143,-0.7322,-0.7485,-0.7634,-0.7777,-0.7926,-0.7997,-0.7845,-0.7811,0.0,0.0,-0.7411,-0.7373,-0.7244,-0.7472,-0.7712,-0.7831,-0.8208,-0.8533,-0.8689,-0.8944,-0.9181,0.0,-0.9517,-0.9666,-0.9805,-0.9822,0.0,0.0,-0.9822,-0.9822,-0.9822,-0.9822,-0.9822,-0.9822,-0.9822,-0.9954,-1.0239,-1.0266,-1.0415,-1.068,-1.0707,-1.0721,-1.0721,-1.0721,-1.0721,-1.0721,-1.0721,-1.0721,-1.0721,-1.0721,-1.0721,-1.0721,-1.0721,-1.0721,-1.0721,-1.0721,-1.0721,-1.0721,0.0,0.0,0.0,0.0,0.0,0.0,0.0,0.0,-1.9798,-1.9798,-1.9798,-1.9798,-1.9798,-1.9475,0.0,0.0,0.0,0.0,0.0,0.0,0.0,0.0,0.0,0.0,0.0,0.0,-1.541,-1.541,0.0,0.0,0.0,0.0,0.0,0.0,0.0,0.0,0.0,0.0,0.0,0.0,0.0,0.0,0.0,0.0,0.0,0.0,0.0,0.0,0.0,0.0,-0.6736,-0.6953,-0.7095,-0.7139,-0.7139,-0.7139,-0.7139,-0.7173,-0.7329,-0.7424,-0.7536,-0.7756,-0.7865,-0.7882,-0.7736,0.0,0.0,0.0,-0.7251,-0.7227,-0.7153,-0.7326,0.0,-0.7678,-0.8079,-0.8425,-0.857,-0.8852,-0.9127,-0.9354,-0.9445,-0.9578,-0.9798,-0.9822,-0.9822,-0.9822,-0.9822,-0.9822,-0.9822,-0.9822,-0.9822,-0.9822,-0.9822,-0.9968,-1.0276,-1.028,-1.0429,-1.0721,-1.0721,-1.0721,-1.0721,-1.0721,-1.0721,-1.0721,-1.0721,-1.0721,-1.0721,-1.0721,-1.0721,-1.0721,-1.0721,-1.0721,-1.0721,-1.0721,-1.0721,-1.0721,0.0,0.0,0.0,0.0,0.0,0.0,0.0,-1.9798,-1.9798,-1.9798,-1.9798,-1.9798,-1.9798,-1.9254,-1.915,0.0,0.0,0.0,0.0,0.0,0.0,0.0,0.0,0.0,0.0,0.0,0.0,-1.541,-1.541,0.0,0.0,0.0,0.0,0.0,-1.1233,0.0,0.0,0.0,0.0,0.0,0.0,0.0,0.0,0.0,0.0,0.0,0.0,0.0,0.0,0.0,-0.663,-0.6858,-0.7,-0.7068,-0.7095,-0.7095,-0.7095,-0.7129,-0.7282,-0.7346,-0.7434,-0.7699,-0.7787,-0.7773,-0.7631,-0.76,0.0,-0.7204,-0.7139,-0.7139,-0.7139,-0.7241,-0.7373,0.0,-0.7899,-0.8235,-0.8411,-0.8699,-0.8998,0.0,-0.9361,0.0,-0.9751,-0.9802,0.0,-0.9822,-0.9822,-0.9822,-0.9822,-0.9822,-0.9822,-0.9822,-0.9822,-0.9968,-1.0276,-1.028,-1.0429,-1.0721,-1.0721,-1.0721,-1.0721,-1.0721,-1.0721,-1.0721,-1.0721,-1.0721,-1.0721,-1.0721,-1.0721,-1.0721,-1.0721,-1.0721,-1.0721,-1.0721,-1.0721,-1.0721,0.0,0.0,0.0,0.0,0.0,0.0,0.0,-1.9798,-1.9798,-1.9798,-1.9798,-1.9798,-1.9798,-1.9747,-1.9747,0.0,0.0,0.0,0.0,0.0,0.0,0.0,0.0,0.0,0.0,0.0,0.0,-1.541,-1.541,0.0,0.0,0.0,0.0,0.0,0.0,-1.1288,-1.0624,0.0,0.0,0.0,0.0,0.0,0.0,0.0,0.0,0.0,0.0,0.0,0.0,0.0,0.0,-0.6539,-0.6695,-0.6837,-0.6949,-0.6949,0.0,0.0,-0.7122,-0.7265,-0.7411,-0.7577,-0.7716,-0.7773,-0.7631,0.0,-0.7512,-0.7204,-0.7139,-0.7139,-0.7139,-0.7153,-0.721,0.0,0.0,-0.7957,-0.8248,-0.8543,-0.8842,-0.9137,0.0,0.0,-0.9612,-0.9744,-0.9822,-0.9822,-0.9822,-0.9822,-0.9822,-0.9822,-0.9822,-0.9822,-0.9822,-0.9968,-1.0276,-1.028,-1.0429,-1.0721,-1.0721,-1.0721,-1.0721,-1.0721,-1.0721,-1.0721,-1.0721,-1.0721,-1.0721,-1.0721,-1.0721,-1.0721,-1.0721,-1.0721,-1.0721,-1.0721,-1.0721,-1.0721,0.0,0.0,0.0,0.0,0.0,0.0,-1.9798,-1.9798,-1.9798,-1.9798,-1.9798,-1.9798,-1.9798,-1.9798,-1.9798,0.0,0.0,0.0,0.0,0.0,0.0,0.0,0.0,0.0,0.0,0.0,-1.541,-1.541,-1.541,0.0,0.0,0.0,0.0,0.0,0.0,-1.0926,-1.0624,0.0,0.0,0.0,0.0,0.0,0.0,0.0,0.0,0.0,0.0,0.0,0.0,0.0,0.0,0.0,-0.6444,-0.6536,0.0,0.0,-0.6929,-0.6959,-0.7102,-0.7183,-0.7292,-0.7539,-0.7573,-0.7556,-0.759,0.0,-0.74,-0.7183,-0.7139,-0.7139,-0.7139,-0.7139,-0.716,0.0,0.0,0.0,-0.7977,-0.8408,-0.8788,-0.9001,-0.9235,0.0,0.0,0.0,-0.9822,-0.9822,-0.9822,-0.9822,-0.9822,-0.9822,-0.9822,-0.9822,-0.9822,-0.9924,-1.0141,-1.0236,-1.0382,-1.0582,-1.0677,-1.0721,-1.0721,-1.0721,-1.0721,-1.0721,-1.0721,-1.0721,-1.0721,-1.0721,-1.0721,-1.0721,-1.0721,-1.0721,-1.0721,-1.0721,-1.0721,-1.0721,0.0,0.0,0.0,0.0,0.0,-2.0055,-1.985,-1.9798,-1.9798,-1.9798,-1.9798,-1.9798,-1.9798,-1.9798,-1.9798,-1.9798,0.0,0.0,0.0,0.0,0.0,0.0,0.0,0.0,0.0,0.0,-1.505,-1.505,-1.4815,-1.4085,0.0,0.0,-1.2027,-1.0926,0.0,0.0,0.0,0.0,0.0,0.0,0.0,0.0,0.0,0.0,0.0,0.0,0.0,0.0,0.0,0.0,0.0,0.0,0.0,0.0,0.0,0.0,-0.6824,-0.6895,-0.7037,-0.7109,-0.7204,-0.7465,-0.7451,-0.74,0.0,0.0,-0.7326,-0.7173,-0.7139,-0.7139,-0.7139,-0.7139,-0.7139,0.0,0.0,-0.7712,-0.7797,-0.8218,-0.8584,0.0,0.0,-0.931,0.0,-0.9686,-0.9822,-0.9822,-0.9822,-0.9822,-0.9822,-0.9822,-0.9822,-0.9822,-0.9822,-0.9893,-1.0046,-1.0202,-1.0351,-1.0493,-1.0646,-1.0721,-1.0721,-1.0721,-1.0721,-1.0721,-1.0721,-1.0721,-1.0721,-1.0721,-1.0721,-1.0721,-1.0721,-1.0721,-1.0721,-1.0721,-1.0721,-1.0721,0.0,0.0,0.0,0.0,0.0,0.0,0.0,-1.9798,-1.9798,-1.9798,-1.9798,-1.9798,-1.9798,-1.9798,-1.9798,-1.9798,0.0,0.0,0.0,0.0,0.0,0.0,0.0,0.0,0.0,0.0,-1.4204,-1.4204,-1.3425,-1.3009,-1.3009,-1.2205,-1.1834,-1.1772,0.0,0.0,0.0,0.0,0.0,0.0,0.0,0.0,0.0,0.0,0.0,0.0,0.0,0.0,0.0,0.0,0.0,0.0,0.0,0.0,0.0,0.0,-0.6583,-0.6736,-0.6892,-0.7034,-0.7177,-0.7333,-0.7373,-0.737,0.0,0.0,-0.7326,-0.7173,-0.7139,-0.7139,-0.7139,-0.7139,-0.7139,-0.7139,0.0,0.0,-0.777,-0.7946,-0.8157,0.0,0.0,-0.8998,-0.9144,-0.9561,-0.9822,-0.9822,-0.9822,0.0,-0.9822,-0.9822,-0.9822,-0.9822,-0.9822,-0.9893,-1.0046,-1.0202,-1.0351,-1.0493,-1.0646,-1.0721,-1.0721,-1.0721,-1.0721,-1.0721,-1.0721,-1.0721,0.0,-1.0721,-1.0721,-1.0721,-1.0721,-1.0721,-1.0721,-1.0721,-1.0721,-1.0721,0.0,0.0,0.0,0.0,0.0,0.0,0.0,-1.9798,-1.9798,-1.9798,-1.9798,-1.9798,-1.9798,-1.9798,-1.9798,-1.9798,0.0,0.0,0.0,0.0,0.0,0.0,0.0,0.0,0.0,0.0,-1.3906,-1.3364,-1.313,-1.2704,-1.2197,-1.1896,-1.1531,-1.0989,-1.0681,-1.0301,0.0,0.0,0.0,0.0,0.0,0.0,0.0,0.0,0.0,0.0,0.0,0.0,0.0,0.0,0.0,0.0,0.0,0.0,0.0,0.0,0.0,0.0,-0.6729,-0.6807,-0.6875,-0.7031,-0.699,-0.6966,-0.7166,0.0,-0.7082,-0.7129,-0.7139,-0.7139,-0.7139,-0.7139,-0.7139,-0.7139,-0.7272,0.0,0.0,0.0,0.0,-0.8459,-0.893,-0.9337,0.0,0.0,-0.9822,-0.9822,-0.9822,-0.9822,-0.9822,-0.9822,-0.9822,-0.9822,-0.9822,-0.9842,-0.9893,-1.0046,-1.0144,-1.0192,-1.0443,-1.0565,-1.0568,-1.0673,-1.0721,-1.0721,-1.0721,-1.0721,-1.0721,-1.0721,-1.0721,-1.0721,-1.0721,-1.0721,-1.0721,-1.0721,-1.0721,-1.0721,0.0,0.0,0.0,0.0,0.0,0.0,0.0,-1.9673,-1.9798,-1.9798,-1.9798,-1.9798,-1.9798,-1.9527,-1.9359,-1.9359,0.0,0.0,0.0,0.0,0.0,0.0,0.0,0.0,0.0,-1.3906,-1.3364,-1.2573,-1.2212,-1.1841,-1.1351,-1.1351,-1.1108,-1.0624,-1.0624,-1.011,0.0,0.0,0.0,0.0,0.0,0.0,-0.5898,0.0,0.0,0.0,0.0,0.0,0.0,0.0,0.0,0.0,0.0,0.0,0.0,0.0,-0.6329,0.0,0.0,-0.6658,-0.6722,-0.6817,-0.6814,0.0,0.0,0.0,0.0,-0.7122,-0.7139,-0.7139,-0.7139,-0.7139,-0.7139,-0.7139,-0.7221,0.0,0.0,0.0,0.0,-0.8611,0.0,0.0,0.0,-0.9788,-0.9822,-0.9822,-0.9822,-0.9822,-0.9822,-0.9822,-0.9822,-0.9822,-0.9822,-0.9822,-0.9822,-0.9971,-1.0049,-1.0053,-1.0297,-1.0439,-1.0493,-1.0592,-1.0666,-1.0721,-1.0721,-1.0721,0.0,-1.0721,-1.0721,-1.0721,-1.0721,-1.0721,-1.0721,-1.0721,-1.0721,-1.0721,0.0,0.0,0.0,0.0,0.0,0.0,0.0,0.0,-1.9798,-1.9798,-1.9798,-1.9798,-1.9747,-1.9097,-1.8661,-1.8608,0.0,0.0,0.0,0.0,0.0,0.0,0.0,0.0,0.0,-1.3304,-1.2512,-1.171,-1.0989,-1.0624,-1.0624,-1.0624,-1.0624,-1.0624,-1.0624,-1.011,-0.9075,-0.7391,-0.625,-0.5593,-0.5613,-0.5786,0.0,0.0,0.0,0.0,0.0,0.0,0.0,0.0,0.0,0.0,0.0,0.0,0.0,0.0,0.0,0.0,0.0,-0.6563,-0.6668,-0.6668,-0.6783,0.0,0.0,0.0,0.0,0.0,0.0,-0.7139,-0.7139,-0.7139,-0.7139,-0.7139,-0.7149,0.0,0.0,-0.7848,0.0,0.0,-0.9083,0.0,-0.9581,-0.9737,-0.9822,-0.9822,-0.9822,-0.9822,-0.9822,-0.9822,-0.9822,-0.9822,-0.9822,-0.9822,-0.9822,-0.9961,-1.0032,-1.0036,-1.0188,-1.0334,-1.046,-1.0473,-1.0555,-1.069,-1.07,-1.0704,-1.0704,-1.0714,-1.0721,-1.0721,-1.0721,-1.0721,-1.0721,-1.0721,-1.0721,-1.0721,0.0,0.0,0.0,0.0,0.0,0.0,0.0,0.0,0.0,0.0,-1.9798,-1.9592,-1.9044,-1.8821,-1.8447,0.0,0.0,0.0,0.0,0.0,0.0,0.0,0.0,0.0,0.0,-1.2197,-1.1717,-1.0863,-1.0681,-1.0624,-1.0624,-1.0624,-1.0624,-1.0624,-1.0624,-0.9779,-0.8172,-0.6554,-0.5761,-0.561,-0.5837,-0.5969,0.0,0.0,0.0,0.0,-0.6338,-0.6268,0.0,0.0,0.0,0.0,0.0,0.0,0.0,0.0,-0.6278,-0.6285,-0.6315,0.0,-0.6366,-0.6366,-0.6471,-0.661,0.0,0.0,0.0,0.0,0.0,0.0,0.0,0.0,0.0,-0.7139,0.0,-0.7431,-0.7767,0.0,0.0,-0.9055,-0.9235,-0.9401,-0.9591,-0.9737,-0.9822,-0.9822,-0.9822,-0.9822,-0.9822,-0.9822,-0.9822,-0.9822,-0.9822,-0.9822,-0.9822,-0.9856,-0.9876,-0.9876,-1.0029,-1.012,-1.0158,-1.0276,-1.0348,-1.0388,-1.0497,-1.0548,-1.0555,-1.0673,-1.0721,-1.0721,-1.0721,-1.0721,-1.0721,-1.0721,-1.0721,-1.0721,0.0,0.0,0.0,0.0,0.0,0.0,0.0,0.0,0.0,0.0,0.0,0.0,0.0,0.0,0.0,0.0,0.0,0.0,0.0,0.0,0.0,0.0,0.0,0.0,-1.1826,-1.1834,-1.1413,-1.0624,-1.0624,-1.0624,-1.0624,-1.0624,-1.0624,-1.0561,-0.9779,-0.8668,-0.7394,-0.6162,-0.5667,-0.5806,-0.5966,0.0,0.0,0.0,0.0,0.0,-0.6338,-0.6268,0.0,-0.6264,-0.6281,-0.6298,0.0,0.0,0.0,0.0,-0.4851,-0.5007,-0.6032,-0.6268,-0.6338,-0.6338,-0.642,-0.66,0.0,0.0,0.0,0.0,0.0,0.0,0.0,0.0,0.0,0.0,-0.7383,0.0,0.0,0.0,-0.874,-0.911,-0.9225,-0.9391,0.0,-0.9774,-0.9822,-0.9822,-0.9822,-0.9822,-0.9822,-0.9822,-0.9822,-0.9822,-0.9822,-0.9822,-0.9822,-0.9822,-0.9822,-0.9822,-0.9907,-0.9981,-1.0053,-1.0137,-1.0212,-1.0283,-1.0361,-1.0395,-1.0402,-1.0483,-1.0558,-1.0616,-1.0616,-1.066,-1.0721,-1.0721,-1.0721,-1.0721,0.0,0.0,0.0,0.0,0.0,0.0,0.0,0.0,0.0,0.0,0.0,0.0,0.0,0.0,0.0,0.0,0.0,0.0,0.0,0.0,0.0,0.0,0.0,-1.3235,-1.1648,-1.1648,-1.1288,-1.0624,-1.0624,-1.0624,-1.0624,-1.0428,-1.0301,-1.0104,-0.8517,-0.7451,-0.6873,-0.6047,-0.58,-0.603,-0.6054,0.0,0.0,0.0,0.0,0.0,0.0,0.0,0.0,-0.6268,-0.6295,-0.6247,-0.5902,0.0,0.0,0.0,0.0,0.0,-0.5789,-0.6295,-0.6322,-0.6302,-0.6502,-0.6709,-0.6732,0.0,0.0,0.0,0.0,0.0,0.0,-0.7261,0.0,0.0,0.0,0.0,-0.8292,-0.8462,-0.8699,-0.9106,-0.9174,0.0,-0.9747,-0.9808,-0.9822,-0.9822,-0.9822,-0.9822,-0.9822,-0.9822,-0.9822,-0.9822,-0.9822,-0.9822,-0.9822,-0.9822,-0.9822,-0.9822,-0.9822,-0.989,-1.0015,-1.0015,-1.0086,-1.0212,-1.0236,0.0,-1.0246,-1.0273,-1.0351,-1.046,-1.046,-1.0538,-1.0656,-1.0677,-1.0683,-1.0687,0.0,0.0,0.0,0.0,0.0,0.0,0.0,0.0,0.0,0.0,0.0,0.0,0.0,0.0,0.0,0.0,0.0,0.0,0.0,0.0,0.0,0.0,-1.3191,-1.2458,-1.0807,-1.0807,-1.0744,-1.0624,-1.0624,-1.0624,-1.0561,-0.9849,-0.9134,-0.8361,-0.7493,-0.698,-0.689,-0.6208,-0.5986,-0.604,-0.6173,0.0,0.0,0.0,0.0,0.0,0.0,0.0,0.0,-0.6281,-0.6302,-0.6002,-0.4151,0.0,0.0,0.0,0.0,0.0,-0.62,-0.6451,-0.6607,-0.6331,-0.6502,-0.6736,-0.679,0.0,0.0,0.0,0.0,0.0,0.0,-0.7248,-0.721,0.0,0.0,-0.8153,0.0,0.0,-0.894,-0.913,0.0,-0.9422,-0.9622,-0.9751,-0.9822,-0.9822,-0.9822,-0.9822,-0.9822,-0.9822,-0.9822,-0.9822,-0.9822,-0.9822,-0.9822,-0.9822,-0.9822,-0.9822,-0.9822,-0.9832,-0.9856,-0.9856,-0.9869,-0.99,0.0,-1.0086,-1.0097,-1.0226,-1.0293,-1.0314,-1.0314,-1.0327,-1.0365,-1.0483,-1.0527,-1.0548,0.0,0.0,0.0,0.0,0.0,0.0,0.0,0.0,0.0,0.0,0.0,0.0,0.0,0.0,0.0,0.0,0.0,0.0,0.0,0.0,0.0,-1.307,-1.3009,-1.2282,-1.0624,-1.0624,-1.0624,-1.0624,-1.011,-0.9919,-0.9849,-0.9005,-0.8158,-0.7412,-0.7035,-0.6704,-0.6403,-0.6117,-0.6078,-0.6162,0.0,0.0,0.0,0.0,0.0,0.0,0.0,0.0,0.0,0.0,-0.4787,-0.3144,-0.4401,0.0,0.0,0.0,0.0,0.0,-0.6281,-0.6351,-0.6535,-0.6805,-0.6994,-0.7082,-0.7156,0.0,0.0,0.0,0.0,0.0,0.0,0.0,-0.7516,-0.7906,0.0,-0.8292,-0.8659,-0.8699,-0.8804,0.0,0.0,-0.9381,-0.9693,-0.9781,-0.9822,-0.9822,-0.9822,-0.9822,-0.9822,-0.9822,-0.9822,-0.9822,-0.9822,-0.9822,-0.9822,-0.9822,-0.9822,-0.9822,-0.9822,-0.9822,-0.9822,-0.9822,-0.9822,-0.9825,0.0,-0.9927,-0.993,-1.0002,-1.008,-1.0154,-1.0154,-1.0209,-1.0287,-1.0354,-1.0378,-1.0399,0.0,0.0,0.0,0.0,0.0,0.0,0.0,0.0,0.0,0.0,0.0,0.0,0.0,0.0,0.0,0.0,0.0,0.0,0.0,0.0,-1.4382,-1.2818,-1.2704,-1.2027,-1.0624,-1.0624,-1.0624,-1.0624,-0.9722,-0.9075,-0.8683,-0.8017,-0.7336,-0.6603,-0.6684,-0.6452,-0.603,-0.6067,-0.6152,-0.6338,0.0,0.0,0.0,0.0,0.0,0.0,0.0,0.0,0.0,0.0,0.0,0.0,0.0,0.0,0.0,-0.0548,-0.266,-0.5029,-0.6006,-0.6308,-0.6341,-0.6672,-0.7048,-0.7389,-0.7404,-0.7489,0.0,0.0,0.0,0.0,0.0,-0.7546,0.0,-0.8347,-0.837,-0.8425,-0.8723,-0.8662,-0.8743,-0.9157,-0.9205,-0.9367,-0.9781,-0.9822,-0.9822,-0.9822,-0.9822,-0.9822,-0.9822,-0.9822,-0.9822,-0.9822,-0.9822,-0.9822,-0.9822,-0.9822,-0.9822,-0.9822,-0.9822,-0.9822,-0.9822,-0.9822,-0.9822,-0.9822,-0.9822,-0.9822,-0.9822,-0.9822,-0.989,-0.9995,-0.9995,-1.009,-1.0226,-1.0226,-1.0249,-1.0297,0.0,0.0,0.0,0.0,0.0,0.0,0.0,0.0,0.0,0.0,0.0,0.0,0.0,0.0,0.0,0.0,0.0,0.0,0.0,0.0,-1.3597,-1.195,-1.1888,-1.1469,-1.0624,-1.0624,-1.0624,-1.0624,-0.9722,-0.8484,-0.6915,-0.697,-0.6523,-0.5738,-0.5947,-0.601,-0.6037,-0.6183,-0.6251,-0.6338,-0.6338,0.0,0.0,0.0,0.0,0.0,0.0,0.0,0.0,0.0,0.0,0.0,0.0,0.0,-0.0392,-0.2344,-0.172,-0.1336,-0.5231,-0.6287,-0.6007,-0.4963,-0.5903,0.0,-0.7598,-0.7581,0.0,-0.7556,0.0,0.0,0.0,-0.7699,-0.7902,-0.8231,-0.8387,-0.8574,-0.8879,0.0,-0.9022,-0.9327,-0.9364,-0.9486,-0.9791,-0.9822,-0.9822,-0.9822,-0.9822,-0.9822,-0.9822,-0.9822,-0.9822,-0.9822,-0.9822,-0.9822,-0.9822,-0.9822,-0.9822,-0.9822,-0.9822,-0.9822,-0.9822,-0.9822,-0.9822,-0.9822,-0.9822,-0.9822,-0.9822,-0.9822,-0.9829,-0.9836,-0.9836,-0.993,-1.0066,-1.0066,-1.0158,-1.0283,0.0,0.0,0.0,0.0,0.0,0.0,0.0,0.0,0.0,0.0,0.0,0.0,0.0,0.0,0.0,0.0,0.0,0.0,0.0,0.0,-1.294,-1.1834,-1.1834,-1.1406,-1.0624,-1.0624,-1.0624,-1.0624,-0.9198,-0.7707,-0.611,-0.6076,-0.6086,-0.601,-0.6023,-0.6084,-0.6176,-0.6237,-0.6338,-0.6338,-0.6338,-0.6338,0.0,0.0,0.0,0.0,0.0,0.0,0.0,0.0,-0.211,0.0,0.0,0.0,-0.0157,-0.0939,-0.2455,-0.4025,-0.4532,-0.5687,-0.6669,-0.6239,-0.6735,0.0,0.0,-0.7689,-0.7638,-0.7607,-0.7672,0.0,0.0,0.0,-0.8265,-0.8384,-0.8608,-0.8808,-0.8923,-0.894,-0.9049,-0.9347,-0.9381,-0.9496,-0.9791,-0.9822,-0.9822,-0.9822,-0.9822,-0.9822,-0.9822,-0.9822,-0.9822,-0.9822,-0.9822,-0.9822,-0.9822,-0.9822,-0.9822,-0.9822,-0.9822,-0.9822,-0.9822,-0.9822,-0.9822,-0.9822,-0.9822,-0.9822,-0.9822,-0.9822,-0.9822,-0.9822,-0.9822,-0.9856,-0.9907,-0.9907,-0.9944,-1.0008,0.0,0.0,0.0,0.0,0.0,0.0,0.0,0.0,0.0,0.0,0.0,0.0,0.0,0.0,0.0,0.0,0.0,0.0,-1.3476,-1.2931,-1.2266,-1.1469,-1.1406,-1.117,-1.0624,-1.0624,-1.0624,-1.0624,-0.8958,-0.7537,-0.6444,-0.6085,-0.601,-0.6257,-0.6196,-0.6227,-0.6325,-0.6281,-0.6338,-0.6338,-0.6338,-0.6338,0.0,0.0,0.0,0.0,0.0,0.0,0.0,0.0,0.0,0.0,0.0,0.0,0.0,0.0,0.0,0.0,-0.51,-0.5898,-0.7118,0.0,0.0,0.0,-0.775,-0.7777,-0.7743,-0.774,-0.7818,-0.7896,-0.7946,0.0,0.0,0.0,-0.8771,-0.894,-0.894,-0.9265,-0.9687,-0.9956,-1.0033,-1.0171,-1.0437,-1.0034,-0.9822,-0.9822,-0.9822,-0.9822,-0.9822,-0.9822,-0.9822,-0.9822,-0.9822,-0.9822,-0.9822,-0.9822,-0.9822,-0.9822,-0.9822,-0.9822,-0.9822,-0.9822,-0.9822,-0.9822,-0.9822,-0.9822,-0.9822,-0.9822,-0.9822,-0.9822,-0.9822,-0.9822,-0.9822,-0.9822,-0.9822,-0.9836,0.0,0.0,0.0,0.0,0.0,0.0,0.0,0.0,0.0,0.0,0.0,0.0,0.0,0.0,0.0,0.0,0.0,0.0,-1.1834,-1.1834,-1.1469,-1.0624,-1.0624,-1.0624,-1.0624,-1.0568,-1.0568,-1.0568,-0.9089,-0.816,-0.7794,-0.6872,-0.6396,-0.6271,-0.641,-0.6471,-0.6461,-0.6322,-0.6338,-0.6338,-0.6338,-0.6338,-0.6338,0.0,0.0,0.0,0.0,0.0,0.0,0.0,0.0,0.0,0.0,0.0,0.0,0.0,-0.7065,-0.7797,-0.7295,-0.7101,0.0,0.0,0.0,0.0,-0.775,-0.7702,-0.7685,-0.798,-0.8038,-0.8089,-0.8241,-0.8387,0.0,-0.8686,-0.8838,-0.8937,-0.8937,-1.0241,-1.1173,-1.135,-1.1423,-1.1615,-1.1808,-1.0565,-0.9819,-0.9819,-0.9819,-0.9822,-0.9822,-0.9822,-0.9822,-0.9822,-0.9822,-0.9822,-0.9822,-0.9822,-0.9819,-0.9819,-0.9819,-0.9822,-0.9822,-0.9822,-0.9822,-0.9822,-0.9822,-0.9822,-0.9822,-0.9822,-0.9822,-0.9822,-0.9822,-0.9822,-0.9822,-0.9822,-0.9822,-0.9822,0.0,0.0,0.0,0.0,0.0,0.0,0.0,0.0,0.0,0.0,0.0,0.0,0.0,0.0,0.0,0.0,0.0,0.0,-1.1888,-1.1834,-1.1469,-1.0624,-1.0624,-1.0624,-1.0624,-1.0157,-0.9661,-0.9037,-0.8065,-0.7343,-0.688,-0.656,-0.6356,-0.641,-0.6454,-0.6417,-0.6322,-0.6278,-0.6338,-0.6338,-0.6338,-0.6338,-0.6338,0.0,0.0,0.0,0.0,0.0,0.0,0.0,0.0,0.0,0.0,0.0,0.0,-0.6565,-0.5791,-0.5247,-0.6704,0.0,0.0,-0.7451,0.0,0.0,0.0,-0.778,0.0,0.0,-0.8038,-0.8089,-0.8241,-0.8476,0.0,-1.0075,-1.0341,-1.0781,-1.1864,-1.2403,-1.2697,-1.2798,-1.3007,-1.2873,-1.1925,-1.2579,-1.2693,-1.1619,-1.2573,-1.3172,-1.3172,-1.3172,-1.3172,-1.3172,-1.3172,-1.3172,-1.3172,-1.3172,-1.2573,-1.1499,-1.1499,-1.0899,-0.9822,-0.9822,-0.9822,-0.9822,-0.9822,-0.9822,-0.9822,-0.9822,-0.9822,-0.9822,-0.9822,-0.9822,-0.9822,-0.9822,-0.9822,-0.9822,0.0,0.0,0.0,0.0,0.0,0.0,0.0,0.0,0.0,0.0,0.0,0.0,0.0,0.0,0.0,0.0,0.0,0.0,0.0,0.0,-1.1108,-1.0624,-1.0624,-1.0469,-1.0233,-0.991,-0.9178,-0.8134,-0.7731,-0.7402,-0.7277,-0.6774,-0.6508,-0.6474,-0.6536,-0.6481,-0.6342,-0.6285,-0.6338,-0.6338,-0.6338,-0.6338,-0.6338,0.0,0.0,0.0,0.0,0.0,0.0,0.0,0.0,0.0,0.0,0.0,0.0,-0.6545,-0.5936,-0.5472,-0.7048,0.0,0.0,-0.7631,-0.7726,-0.7828,-0.7889,0.0,0.0,0.0,-0.8177,-0.8463,-0.9235,-0.9481,0.0,-1.1572,-1.1891,-1.2295,-1.3156,-1.3804,-1.418,-1.4217,-1.4441,-1.4338,-1.3533,-1.4098,-1.403,-1.3163,-1.4009,-1.4604,-1.4604,-1.4604,-1.4604,-1.4604,-1.4604,-1.4604,-1.4604,-1.4009,-1.3172,-1.2213,-1.1495,-1.102,-1.0781,-1.0061,-0.9822,-0.9822,-0.9822,-0.9822,-0.9822,-0.9822,-0.9822,-0.9822,-0.9822,-0.9822,-0.9822,-0.9822,-0.9822,-0.9822,0.0,0.0,0.0,0.0,0.0,0.0,0.0,0.0,0.0,0.0,0.0,0.0,0.0,0.0,0.0,0.0,0.0,0.0,0.0,0.0,-1.0681,-1.0624,-1.0672,-1.0403,-0.9873,-0.9766,-0.9138,-0.7868,-0.7772,-0.7914,-0.8217,-0.7319,-0.6732,-0.6461,-0.6614,-0.6597,-0.6444,-0.6315,-0.6338,-0.6338,-0.6338,-0.6338,-0.6338,-0.6338,0.0,0.0,0.0,0.0,0.0,0.0,0.0,0.0,0.0,0.0,0.0,-0.6427,-0.7054,-0.7451,-0.7882,0.0,0.0,0.0,-0.7926,0.0,-0.812,-0.8158,-0.8099,-0.8241,0.0,-0.9271,-1.0686,-1.1086,-1.1755,-1.3264,-1.348,-1.3588,-1.3696,-1.4776,-1.5636,-1.5636,-1.576,-1.591,-1.6028,-1.5145,-1.4691,-1.479,-1.4945,-1.5079,-1.5079,-1.5079,-1.5079,-1.5079,-1.5079,-1.5079,-1.5079,-1.3646,-1.2813,-1.2573,-1.1137,-1.1137,-1.2333,-1.0778,-1.0061,-1.0061,-0.9819,-0.9822,-0.9822,-0.9822,-0.9822,-0.9822,-0.9822,-0.9822,-0.9822,-0.9822,-0.9822,-0.9822,0.0,0.0,0.0,0.0,0.0,0.0,0.0,0.0,0.0,0.0,0.0,0.0,0.0,0.0,0.0,0.0,0.0,0.0,0.0,0.0,-1.1288,-1.0624,-1.0995,-1.116,-1.1134,-1.0173,-0.9278,-0.8488,-0.7447,-0.693,-0.6918,-0.6715,-0.6474,-0.6312,-0.6458,-0.6441,-0.6305,-0.6352,-0.6338,-0.6338,-0.6338,-0.6338,-0.6338,-0.6338,-0.6338,0.0,0.0,0.0,0.0,0.0,0.0,0.0,0.0,-0.638,-0.6354,-0.6892,-0.7131,-0.7197,0.0,-0.7617,0.0,0.0,-0.7926,-0.8322,-0.9574,-0.9019,-0.8231,-0.8262,-1.0327,-1.1819,-1.1026,-1.1939,-1.3264,-1.477,-1.4984,-1.531,-1.6499,-1.6929,-1.7147,-1.7147,-1.7401,-1.7047,-1.5893,-1.7004,-1.7424,-1.6195,-1.745,-1.8409,-1.8409,-1.8409,-1.8409,-1.8409,-1.8409,-1.8409,-1.8409,-1.8052,-1.7214,-1.6015,-1.566,-1.495,-1.4004,-1.2453,-1.1736,-1.1619,-1.0301,-0.9822,-0.9822,-0.9822,-0.9822,-0.9822,-0.9822,-0.9822,-0.9822,-0.9822,-0.9822,-0.9822,0.0,0.0,0.0,0.0,0.0,0.0,0.0,0.0,0.0,0.0,0.0,0.0,0.0,0.0,0.0,0.0,0.0,0.0,0.0,0.0,0.0,-1.0962,-1.181,-1.2024,-1.1473,-1.0539,-0.9533,-0.8551,-0.7233,-0.6552,-0.6471,-0.6471,-0.6396,-0.6268,-0.641,-0.6393,-0.6338,-0.6338,-0.6338,-0.6338,-0.6338,-0.6338,-0.6338,-0.6338,-0.6338,-0.6338,-0.6338,0.0,0.0,0.0,0.0,0.0,0.0,0.0,-0.6841,-0.7083,-0.7088,-0.7207,0.0,0.0,0.0,0.0,0.0,-0.916,-1.0129,-1.0945,-1.1239,-1.0621,-1.1312,-1.2221,-1.2961,-1.3719,-1.477,-1.6174,-1.6493,-1.6717,-1.7477,-1.7582,-1.7582,-1.7582,-1.7716,-1.7541,-1.6919,-1.776,-1.8276,-1.7729,-1.8594,-1.9219,-1.9359,-1.9366,-1.9366,-1.9366,-1.9366,-1.9366,-1.9366,-1.8642,-1.7806,-1.6968,-1.6256,-1.5784,-1.5666,-1.4118,-1.3407,-1.3287,-1.2453,-1.2097,-1.2097,-1.2097,-1.1615,-1.0899,-1.0899,-1.0539,-0.9822,-0.9822,-0.9822,-0.9822,0.0,0.0,0.0,0.0,0.0,0.0,0.0,0.0,0.0,0.0,0.0,0.0,0.0,0.0,0.0,0.0,0.0,0.0,0.0,0.0,0.0,-1.171,-1.2685,-1.2683,-1.1693,-1.0781,-0.9751,-0.8401,-0.7101,-0.6461,-0.6434,-0.6434,-0.6373,-0.6345,-0.6383,-0.6369,-0.6338,-0.6338,-0.6338,-0.6338,-0.6338,-0.6338,-0.6264,-0.6288,-0.6298,-0.6302,-0.6329,-0.6413,-0.6512,-0.6512,0.0,0.0,0.0,0.0,-0.699,-0.7105,-0.716,-0.7261,0.0,0.0,0.0,0.0,0.0,0.0,-1.108,-1.2903,-1.4367,-1.3881,-1.2876,-1.2723,-1.495,-1.563,-1.6174,-1.7364,-1.7582,-1.7582,-1.7582,-1.7582,-1.7582,-1.7582,-1.7582,-1.7682,-1.7943,-1.8016,-1.825,-1.8738,-1.8818,-1.8978,-1.9279,-1.9292,-1.9319,-1.9366,-1.9366,-1.9366,-1.9366,-1.8046,-1.7443,-1.7443,-1.6026,-1.6144,-1.7325,-1.6026,-1.5316,-1.4955,-1.4718,-1.4604,-1.4604,-1.4604,-1.377,-1.2573,-1.2573,-1.1856,-1.066,-1.066,-1.066,-1.066,0.0,0.0,0.0,0.0,0.0,0.0,0.0,0.0,0.0,0.0,0.0,0.0,0.0,0.0,0.0,0.0,0.0,0.0,-1.1404,0.0,0.0,-1.2946,-1.3126,-1.2862,-1.2216,-1.1025,-0.9751,-0.8401,-0.7101,-0.641,-0.6288,-0.6288,-0.6278,-0.6338,-0.6281,-0.6278,-0.6338,-0.6338,-0.6338,-0.6338,-0.6338,-0.6338,-0.6274,-0.6396,-0.6444,-0.6461,-0.6597,-0.6654,-0.6671,-0.6671,-0.6773,0.0,0.0,0.0,-0.7115,-0.7136,-0.7234,-0.7353,0.0,0.0,0.0,0.0,0.0,-1.2494,0.0,0.0,-1.3991,0.0,-1.6871,-1.6455,-1.5518,-1.6393,-1.7364,-1.7582,-1.7582,-1.7582,-1.7582,-1.7582,-1.7582,-1.7582,-1.7582,-1.7602,-1.7642,-1.7889,-1.8076,-1.8156,-1.8404,-1.8677,-1.8965,-1.8985,-1.9098,-1.9359,-1.9366,-1.9366,-1.9366,-1.9243,-1.9127,-1.9127,-1.8887,-1.8887,-1.912,-1.8887,-1.8046,-1.6615,-1.5192,-1.4604,-1.4604,-1.4604,-1.4485,-1.4247,-1.4247,-1.4123,-1.4004,-1.4004,-1.4004,-1.4004,0.0,0.0,0.0,0.0,0.0,0.0,0.0,0.0,0.0,0.0,0.0,0.0,0.0,0.0,0.0,-1.1206,-1.1108,-1.1296,-1.1877,-1.2478,-1.2933,-1.32,-1.2851,-1.2545,-1.2206,-1.0284,-0.8923,-0.8252,-0.6972,-0.6322,-0.6338,-0.6338,-0.6338,-0.6338,-0.6338,-0.6338,-0.6338,-0.6338,-0.6338,-0.6345,-0.6346,-0.643,-0.6515,-0.6576,-0.6654,-0.6725,-0.6709,-0.6756,-0.6827,-0.6827,-0.6926,-0.7048,-0.7048,0.0,0.0,0.0,-0.7187,-0.7455,-0.8352,0.0,0.0,0.0,0.0,-1.3729,-1.4589,0.0,-1.5738,-1.7305,-1.7582,-1.7364,-1.6717,-1.7147,-1.7582,-1.7582,-1.7582,-1.7582,-1.7582,-1.7582,-1.7582,-1.7582,-1.7582,-1.7582,-1.7582,-1.7709,-1.7856,-1.8029,-1.817,-1.837,-1.8664,-1.8838,-1.8985,-1.9118,-1.9279,-1.9366,-1.9366,-1.9366,-1.9366,-1.9366,-1.9366,-1.9366,-1.9366,-1.9366,-1.9004,-1.8286,-1.7572,-1.7337,-1.7337,-1.7337,-1.6738,-1.5902,-1.5902,-1.4837,-1.3292,-1.3292,-1.2693,-1.1856,0.0,0.0,0.0,0.0,0.0,0.0,0.0,0.0,0.0,0.0,0.0,0.0,0.0,0.0,0.0,0.0,-1.1176,-1.1737,-1.2485,-1.31,-1.3266,-1.3011,-1.2553,-1.1957,-1.1211,-0.9403,-0.8231,-0.774,-0.6798,-0.6338,-0.6338,-0.6338,-0.6338,-0.6338,-0.6338,-0.6338,-0.6338,-0.6338,-0.6281,-0.6329,-0.6471,-0.662,-0.6766,-0.6841,-0.7111,-0.7454,-0.6997,-0.7114,-0.7465,-0.708,-0.7051,-0.7139,-0.7139,-0.7139,0.0,0.0,0.0,-0.7371,0.0,0.0,0.0,0.0,0.0,-1.5028,0.0,0.0,-1.7321,0.0,-1.7582,-1.7582,-1.7582,-1.7582,-1.7582,-1.7582,-1.7582,-1.7582,-1.7582,-1.7582,-1.7582,-1.7582,-1.7582,-1.7582,-1.7582,-1.7582,-1.7675,-1.7909,-1.7929,-1.8063,-1.8364,-1.8584,-1.8731,-1.8811,-1.9105,-1.9259,-1.9259,-1.9332,-1.9366,-1.9366,-1.9366,-1.9366,-1.9366,-1.9366,-1.9366,-1.9366,-1.9366,-1.9366,-1.9366,-1.9366,-1.8648,-1.7566,-1.7566,-1.6138,-1.3999,-1.3999,-1.3283,-1.2209,0.0,0.0,0.0,0.0,0.0,0.0,0.0,0.0,0.0,0.0,0.0,0.0,-1.1142,-1.1068,-1.1162,-1.1356,-1.141,-1.1924,-1.3086,-1.3714,-1.3516,-1.2372,-1.2316,0.0,-0.8945,-0.8582,-0.7829,-0.6551,-0.641,-0.6338,-0.6338,-0.6338,-0.6338,-0.6338,-0.6338,-0.6338,-0.6338,-0.6338,-0.6339,-0.6474,-0.6627,-0.678,-0.6949,-0.7231,-0.8148,-0.9045,-0.7786,-0.8148,-0.8931,-0.7528,-0.7136,-0.7139,-0.7139,-0.7139,-0.7139,0.0,0.0,0.0,0.0,0.0,0.0,0.0,0.0,0.0,0.0,0.0,-1.7562,-1.7582,-1.7582,-1.7582,-1.7582,-1.7582,-1.7582,-1.7582,-1.7582,-1.7582,-1.7582,-1.7582,-1.7582,-1.7582,-1.7582,-1.7582,-1.7582,-1.7582,-1.7589,-1.7602,-1.7609,-1.7742,-1.8056,-1.8083,-1.8223,-1.8504,-1.8791,-1.8945,-1.8945,-1.9225,-1.9366,-1.9366,-1.9366,-1.9366,-1.9366,-1.9366,-1.9366,-1.9366,-1.9366,-1.9366,-1.9366,-1.9366,-1.9366,-1.9249,-1.9249,-1.9127,-1.901,-1.901,-1.9004,-1.8887,0.0,0.0,0.0,0.0,0.0,0.0,0.0,0.0,0.0,0.0,0.0,0.0,0.0,-1.1482,-1.1316,-1.1416,-1.2131,-1.2913,-1.3721,-1.3968,-1.3827,-1.3118,-1.183,-1.0554,-0.9385,-0.7942,-0.6955,-0.6335,-0.6285,-0.6338,-0.6338,-0.6338,-0.6338,-0.6338,-0.6338,-0.6338,-0.6345,-0.6359,-0.6427,-0.6582,-0.7762,-0.785,-0.7313,-0.8223,-0.8494,-0.837,-0.8528,-0.8359,-0.808,-0.8372,-0.7927,-0.7139,-0.7139,-0.7139,-0.7139,-0.7139,-0.7139,-0.7524,0.0,0.0,0.0,-1.3836,-1.5538,-1.6734,-1.684,-1.7235,-1.7582,-1.7582,-1.7582,-1.7582,-1.7582,-1.7582,-1.7582,-1.7582,-1.7582,-1.7582,-1.7582,-1.7582,-1.7582,-1.7582,-1.7582,-1.7582,-1.7582,-1.7582,-1.7582,-1.7582,-1.7582,-1.7629,-1.7742,-1.7943,-1.8096,-1.8203,-1.849,-1.8644,-1.8644,-1.8938,-1.9085,-1.9085,-1.9279,-1.9366,-1.9366,-1.9366,-1.9366,-1.9366,-1.9366,-1.9366,-1.9366,-1.9366,-1.9366,-1.9366,-1.9366,-1.8765,-1.7806,-1.7806,-1.7214,-1.6267,0.0,0.0,0.0,0.0,0.0,0.0,0.0,0.0,0.0,0.0,0.0,0.0,0.0,0.0,-1.1804,-1.2011,-1.2839,-1.352,-1.3915,-1.3848,-1.3536,-1.292,-1.1489,-1.0238,-0.9159,-0.7679,-0.6745,-0.6338,-0.621,-0.621,-0.6338,-0.6338,-0.6338,-0.6342,-0.6312,-0.6332,-0.6339,-0.643,-0.6532,-0.6822,-0.8521,-0.843,-0.7563,-0.8938,-0.8999,-0.846,-0.9158,-0.9071,-0.8893,-0.9795,-0.9345,-0.8524,-0.8027,-0.7797,-0.7665,-0.7665,-0.8013,-0.8656,-1.0617,0.0,0.0,0.0,0.0,-1.6613,-1.6807,-1.7154,-1.7462,-1.7562,-1.7582,-1.7582,-1.7582,-1.7582,-1.7582,-1.7582,-1.7582,-1.7582,-1.7582,-1.7582,-1.7582,-1.7582,-1.7582,-1.7582,-1.7582,-1.7582,-1.7582,-1.7582,-1.7582,-1.7582,-1.7582,-1.7776,-1.7943,-1.8043,-1.8237,-1.839,-1.849,-1.8684,-1.8778,-1.8784,-1.9078,-1.9219,-1.9225,-1.9325,-1.9366,-1.9366,-1.9366,-1.9366,-1.9366,-1.9366,-1.9366,-1.9366,-1.9366,-1.8765,-1.7806,-1.7806,-1.7097,-1.6267,0.0,0.0,0.0,0.0,0.0,0.0,0.0,0.0,0.0,-1.1247,0.0,0.0,0.0,0.0,0.0,-1.3173,-1.348,-1.3641,-1.3552,-1.3367,-1.2711,-1.1558,-1.1473,-1.0391,-0.8119,-0.7871,-0.7326,0.0,0.0,0.0,0.0,-0.6338,-0.6338,-0.6342,-0.6489,-0.6555,-0.6558,-0.6565,-0.6658,-0.7039,-0.867,-0.8635,-0.7682,-0.9296,-0.9789,-0.9537,-0.9621,-1.0445,-1.1456,-1.1553,-1.1543,-1.1212,-0.975,-0.9118,-0.8978,-0.8978,-0.9749,-1.0656,0.0,0.0,0.0,0.0,0.0,0.0,-1.6994,0.0,-1.7228,-1.7508,-1.7575,-1.7582,-1.7582,-1.7582,-1.7582,-1.7582,-1.7582,-1.7582,-1.7582,-1.7582,-1.7582,-1.7582,-1.7582,-1.7582,-1.7582,-1.7582,-1.7582,-1.7582,-1.7582,-1.7582,-1.7582,-1.7582,-1.7722,-1.8023,-1.8029,-1.817,-1.8464,-1.847,-1.8477,-1.8477,-1.8771,-1.8911,-1.8918,-1.9212,-1.9345,-1.9352,-1.9352,-1.9359,-1.9366,-1.9366,-1.9366,-1.9366,-1.9366,-1.9366,-1.9366,-1.9366,-1.9366,-1.9366,0.0,0.0,0.0,0.0,0.0,0.0,0.0,0.0,0.0,0.0,0.0,0.0,-1.2963,-1.2969,-1.3113,-1.3494,-1.3594,-1.3554,-1.3347,-1.3253,-1.2949,-1.2479,-1.1684,-1.0551,-0.9005,-0.8187,-0.7326,0.0,0.0,0.0,0.0,0.0,0.0,-0.7411,-0.7663,-0.7805,-0.7849,-0.7083,-0.6851,-0.7135,-0.9782,-1.0086,-0.9196,-1.1687,-1.2052,-1.1355,-1.2234,-1.2069,-1.1487,-1.2679,-1.2111,-1.0782,-1.0372,-1.0226,-1.0096,-1.0096,-1.0351,-1.0829,-1.2031,0.0,0.0,0.0,0.0,0.0,-1.648,0.0,-1.7174,-1.7255,-1.7435,-1.7582,-1.7582,-1.7582,-1.7582,-1.7582,-1.7582,-1.7582,-1.7582,-1.7582,-1.7582,-1.7582,-1.7582,-1.7582,-1.7582,-1.7582,-1.7582,0.0,-1.7582,-1.7582,-1.7582,-1.7582,-1.7622,-1.7709,-1.7709,-1.7749,-1.7836,-1.8056,-1.817,-1.817,-1.847,-1.8611,-1.8611,-1.8698,-1.8844,-1.9045,-1.9045,-1.9165,-1.9366,-1.9366,-1.9366,-1.9366,-1.9366,-1.9366,-1.9366,-1.9366,-1.9366,-1.9366,0.0,0.0,0.0,0.0,0.0,0.0,0.0,0.0,0.0,0.0,0.0,0.0,-1.3768,-1.3484,-1.346,-1.3627,-1.3414,-1.32,-1.3026,-1.2899,-1.2752,-1.2565,-1.2024,-1.1105,-0.997,-0.928,-0.8529,0.0,0.0,0.0,0.0,0.0,0.0,0.0,-0.8804,-0.891,-0.8534,-0.8475,-0.8131,-0.7914,-1.0505,-1.0668,-0.971,-1.262,-1.2869,-1.1947,-1.3239,-1.313,-1.2575,-1.4054,-1.3312,-1.169,-1.169,-1.1549,-1.1295,-1.1295,-1.1716,-1.247,-1.3447,-1.3904,-1.4368,-1.5312,0.0,0.0,-1.64,-1.672,-1.7034,0.0,-1.7462,-1.7582,-1.7582,-1.7582,-1.7582,-1.7582,-1.7582,-1.7582,-1.7582,-1.7582,-1.7582,-1.7582,-1.7582,-1.7582,-1.7582,-1.7582,-1.7582,-1.7582,-1.7582,-1.7582,-1.7582,-1.7582,-1.7582,-1.7582,-1.7582,-1.7582,-1.7582,-1.7762,-1.7856,-1.7856,-1.815,-1.8297,-1.831,-1.8437,-1.8584,-1.8744,-1.8744,-1.8911,-1.9185,-1.9185,-1.9259,-1.9366,-1.9366,-1.9366,-1.9366,-1.9366,-1.9366,-1.9366,0.0,0.0,0.0,0.0,0.0,0.0,0.0,0.0,0.0,0.0,-1.3003,-1.3507,-1.4028,-1.3821,-1.3627,-1.3594,-1.3073,-1.2808,-1.2775,-1.2452,-1.2305,-1.2305,-1.2305,-1.1848,-1.0783,-1.0645,-1.0205,0.0,0.0,0.0,0.0,0.0,0.0,0.0,0.0,0.0,-0.9123,-1.0257,-1.0197,-0.9472,-1.099,-1.0864,-1.0044,-1.2853,-1.3095,-1.2113,-1.3467,-1.3912,-1.4111,-1.5308,-1.4814,-1.3519,-1.3459,-1.3129,-1.2659,-1.2605,-1.3578,-1.4676,-1.4937,-1.5204,-1.5464,-1.5758,-1.5832,0.0,-1.6493,-1.6633,-1.6807,0.0,-1.7462,-1.7482,-1.7482,-1.7482,-1.7482,-1.7482,-1.7515,-1.7549,-1.7582,-1.7582,-1.7582,-1.7582,-1.7582,-1.7582,-1.7582,-1.7582,-1.7582,-1.7582,-1.7582,-1.7582,-1.7582,-1.7582,-1.7582,-1.7582,-1.7582,-1.7582,-1.7582,-1.7582,-1.7582,-1.7589,-1.7842,-1.7976,-1.8003,-1.827,-1.841,-1.8444,-1.8444,-1.8604,-1.8878,-1.8878,-1.9072,-1.9366,-1.9366,-1.9366,-1.9366,-1.9366,-1.9366,-1.9366,-1.6533,0.0,0.0,0.0,0.0,0.0,0.0,0.0,0.0,-1.4364,-1.4093,-1.3961,-1.4075,-1.3821,-1.3547,-1.3313,-1.2959,-1.2721,-1.2405,-1.2338,-1.2305,-1.2305,-1.2305,-1.1848,-1.0783,-1.0736,-1.0295,0.0,0.0,0.0,0.0,0.0,0.0,0.0,0.0,0.0,-1.1472,-1.1798,-1.2014,-1.2031,-1.2392,-1.2534,-1.2621,-1.4419,-1.5026,-1.4986,-1.5246,-1.5217,-1.512,-1.5365,-1.553,-1.5639,-1.508,-1.5008,-1.5015,-1.4558,-1.481,-1.5237,-1.5297,-1.5351,-1.5464,-1.5758,-1.5832,0.0,-1.5972,-1.6186,-1.6386,0.0,-1.6714,-1.6881,-1.6881,-1.6881,-1.6881,-1.6881,-1.7074,-1.7315,-1.7549,-1.7582,-1.7582,-1.7582,-1.7582,-1.7582,-1.7582,-1.7582,-1.7582,-1.7582,-1.7582,-1.7582,-1.7582,-1.7582,-1.7582,-1.7582,-1.7582,-1.7582,-1.7582,-1.7582,-1.7582,-1.7582,-1.7642,-1.7669,-1.7675,-1.7736,-1.7896,-1.813,-1.813,-1.8303,-1.8577,-1.8577,-1.8891,-1.9366,-1.9366,-1.9366,-1.9366,-1.9366,-1.9366,-1.9366,-1.6074,0.0,0.0,0.0,0.0,0.0,0.0,0.0,-1.6187,-1.5359,-1.4545,-1.4035,-1.3881,-1.3601,-1.3307,-1.3006,-1.2699,-1.2458,-1.2311,-1.2305,-1.2305,-1.2305,-1.2305,-1.207,-1.1545,-1.1677,-1.1526,0.0,0.0,0.0,0.0,0.0,0.0,0.0,0.0,0.0,-1.251,-1.2948,-1.293,-1.2545,-1.2898,-1.317,-1.3626,-1.5026,-1.5705,-1.5845,-1.5999,-1.6052,-1.6052,-1.6052,-1.6052,-1.6025,-1.5879,-1.5732,-1.5558,-1.5264,-1.5384,-1.5578,-1.5438,-1.5504,-1.5651,-1.5792,-1.5832,0.0,0.0,-1.6166,-1.6313,-1.646,-1.6607,-1.6707,-1.6707,-1.6707,-1.6707,-1.6707,-1.6954,-1.7148,-1.7148,-1.7395,-1.7582,-1.7582,-1.7582,-1.7582,-1.7582,-1.7582,-1.7582,-1.7582,-1.7582,-1.7582,-1.7582,-1.7582,-1.7582,-1.7582,-1.7582,-1.7582,-1.7582,-1.7582,-1.7582,-1.7582,-1.7582,-1.7582,-1.7582,-1.7582,-1.7669,-1.7816,-1.7816,-1.7989,-1.827,-1.827,-1.8531,-1.8945,-1.9085,-1.9239,-1.9366,-1.9366,-1.9366,-1.9366,-1.5977,-1.6484,0.0,0.0,0.0,0.0,0.0,0.0,-1.745,-1.6203,-1.5054,-1.44,-1.4309,-1.409,-1.3803,-1.3614,-1.3304,-1.298,-1.2763,-1.2763,-1.2716,-1.2559,-1.2505,-1.2505,-1.2559,-1.2739,-1.2916,0.0,0.0,0.0,0.0,0.0,0.0,0.0,0.0,0.0,-1.3082,-1.3887,-1.3671,-1.2868,-1.3314,-1.3713,-1.4124,-1.5256,-1.5818,-1.5952,-1.6246,-1.6547,-1.678,-1.6727,-1.6426,-1.6106,-1.6233,-1.6025,-1.5698,-1.5531,-1.5725,-1.5919,-1.5571,-1.5651,-1.5832,-1.5832,-1.5832,-1.5892,0.0,0.0,0.0,-1.6486,-1.654,-1.654,-1.654,-1.654,0.0,-1.6393,0.0,0.0,0.0,-1.7007,0.0,-1.7415,-1.7515,-1.7562,-1.7502,-1.7502,-1.7522,-1.7582,-1.7528,-1.7522,-1.7582,-1.7582,-1.7582,-1.7582,-1.7582,-1.7582,-1.7582,-1.7582,-1.7582,-1.7582,-1.7582,-1.7582,-1.7582,-1.7582,-1.7582,-1.7582,-1.7582,-1.7722,-1.7956,-1.7956,-1.8136,-1.8437,-1.8791,-1.9072,-1.9292,-1.9345,-1.9366,-1.9366,-1.7725,-1.7793,-1.7861,0.0,0.0,0.0,0.0,0.0,-1.8453,-1.7245,-1.6191,-1.5854,-1.6798,-1.662,-1.6464,-1.6415,-1.6158,-1.5499,-1.4612,-1.4535,-1.4209,-1.348,-1.3247,-1.3227,-1.3487,-1.3273,-1.316,0.0,0.0,0.0,0.0,0.0,0.0,0.0,-1.4269,-1.4256,-1.3972,-1.4289,-1.4528,-1.4685,-1.4751,-1.4797,-1.4863,-1.5331,-1.5772,-1.6259,-1.6553,-1.6847,-1.7061,-1.6794,-1.6834,-1.6914,-1.6426,-1.6587,-1.6794,-1.6012,-1.6172,-1.6486,-1.5932,-1.5805,-1.5832,-1.5832,-1.5832,-1.5838,-1.5872,0.0,-1.5885,-1.5919,0.0,-1.5925,-1.5925,0.0,0.0,-1.5244,-1.5845,-1.6179,-1.5625,-1.6273,-1.6807,-1.6807,-1.7261,-1.7482,-1.7228,-1.7201,-1.7301,-1.7562,-1.7341,-1.7315,-1.7569,-1.7582,-1.7582,-1.7582,-1.7582,-1.7582,-1.7582,-1.7582,-1.7582,-1.7582,-1.7582,-1.7582,-1.7582,-1.7582,-1.7582,-1.7582,-1.7582,-1.7602,-1.7635,-1.7635,-1.7816,-1.815,-1.8711,-1.8945,-1.9005,-1.9272,-1.9366,-1.9366,-1.8203,-1.8408,-1.875,0.0,0.0,0.0,0.0,0.0,-1.847,-1.6904,-1.6397,-1.6292,-1.622,-1.6006,-1.6238,-1.7317,-1.6628,-1.5833,-1.5253,-1.5245,-1.4677,-1.3394,-1.3273,-1.3267,-1.3394,-1.344,-1.346,0.0,-1.3634,0.0,0.0,0.0,0.0,0.0,-1.4469,-1.4549,-1.4603,-1.4723,-1.485,-1.4977,-1.515,-1.5317,-1.5498,-1.5792,-1.6273,-1.68,-1.6921,-1.7148,-1.7382,-1.7255,-1.7074,-1.6907,-1.7001,-1.6854,-1.66,-1.6393,-1.6393,-1.6359,-1.5945,-1.5952,-1.6046,-1.5872,-1.5959,-1.6039,-1.5872,-1.5832,-1.5832,-1.5832,0.0,0.0,0.0,0.0,0.0,0.0,-1.5919,-1.6126,-1.5705,0.0,-1.6707,-1.6707,-1.6927,0.0,-1.7148,-1.7301,-1.7455,-1.7569,-1.7468,-1.7455,-1.7575,-1.7582,-1.7582,-1.7582,-1.7582,-1.7582,-1.7582,-1.7582,-1.7582,-1.7582,-1.7582,-1.7582,-1.7582,-1.7582,-1.7582,-1.7582,-1.7582,-1.7582,-1.7582,-1.7582,-1.7662,-1.7816,-1.825,-1.8517,-1.8704,-1.9005,-1.9112,-1.9132,-1.8955,-1.9209,-1.9639,-1.9639,0.0,0.0,0.0,-1.9416,-1.8261,-1.7212,-1.709,-1.705,-1.6921,-1.6789,-1.7315,-1.8751,-1.8034,-1.7343,-1.6839,-1.6419,-1.5782,-1.4856,-1.3973,-1.3682,-1.4158,-1.3899,-1.3768,0.0,0.0,0.0,0.0,0.0,0.0,0.0,0.0,-1.4636,-1.485,-1.493,-1.532,-1.5756,-1.5616,-1.5974,-1.6684,-1.6623,-1.7123,-1.7874,-1.7874,-1.8212,-1.8693,-1.8601,-1.8076,-1.7479,-1.7839,-1.7259,-1.654,-1.6667,-1.6613,-1.6433,-1.6052,-1.6112,-1.6206,-1.5905,-1.5992,-1.6092,-1.5879,-1.5832,-1.5832,-1.5832,-1.5832,0.0,0.0,0.0,-1.5778,-1.5618,0.0,-1.6019,-1.5645,-1.6099,-1.6466,-1.6466,-1.654,-1.67,0.0,-1.7221,-1.7375,-1.7455,-1.7462,-1.7502,-1.7582,-1.7582,-1.7582,-1.7582,-1.7582,-1.7582,-1.7582,-1.7582,-1.7582,-1.7582,-1.7582,-1.7582,-1.7582,-1.7582,-1.7582,-1.7582,-1.7582,-1.7582,-1.7582,-1.7582,-1.7582,-1.7602,-1.7829,-1.805,-1.829,-1.8664,-1.8858,-1.8951,-2.0498,-2.0508,-2.0527,-2.0527,-2.0547,0.0,0.0,-1.8667,-1.8109,-1.9068,-1.8657,-1.8815,-2.0256,-2.0769,-2.1205,-2.1724,-2.1753,-2.1218,-2.015,-1.8708,-1.8244,-1.8844,-1.5777,-1.49,-1.6688,-1.5021,-1.4075,-1.4075,0.0,0.0,0.0,0.0,0.0,0.0,-1.4396,-1.4522,-1.4556,-1.4843,-1.6098,-1.7654,-1.6372,-1.7092,-1.8903,-1.7619,-1.8114,-1.9509,-1.9509,-2.0428,-2.1492,-2.1238,-2.0221,-1.9074,-1.8775,-1.7996,-1.7068,-1.6787,-1.6901,-1.6994,-1.6413,-1.6266,-1.6206,-1.5905,-1.5838,-1.5838,-1.5832,-1.5832,-1.5832,-1.5832,-1.5832,-1.5832,-1.5832,-1.5832,-1.5645,-1.5084,-1.5471,0.0,0.0,-1.5491,-1.5858,-1.5858,-1.6112,-1.64,-1.6693,-1.6727,-1.6854,-1.7141,-1.7161,-1.7288,-1.7569,-1.7582,-1.7582,-1.7582,-1.7582,-1.7582,-1.7582,-1.7582,-1.7582,-1.7582,-1.7582,-1.7582,-1.7582,-1.7582,-1.7582,-1.7582,-1.7582,-1.7582,-1.7582,-1.7582,-1.7582,-1.7582,-1.7595,-1.7602,-1.7682,-1.8283,-1.8684,-1.8925,-1.9775,-1.9717,-1.9893,-2.0469,-2.0322,-1.9893,-1.918,-1.912,-1.8995,-1.8415,-1.9203,-1.997,-2.0398,-2.0439,-2.1062,-2.2561,-2.1987,-2.124,-2.0698,-2.022,-1.9548,-1.8771,-1.7435,-1.6638,-1.6511,-1.5592,-1.481,-1.4088,0.0,0.0,0.0,0.0,0.0,0.0,0.0,-1.5046,-1.6038,-1.6672,-1.7331,-1.8043,-1.8086,-1.9033,-2.0245,-1.9176,-1.9736,-2.0939,-2.0939,-2.1347,-2.1727,-2.1603,-2.1105,-2.0536,-2.0648,-2.015,-1.961,-1.9613,-1.9665,-1.954,-1.9299,-1.9408,-1.9251,-1.775,-1.7594,-1.7348,-1.6103,-1.5832,-1.5832,-1.5832,-1.5832,-1.5832,-1.5832,-1.5832,-1.5765,-1.5571,-1.5698,-1.5758,0.0,-1.5705,-1.5832,-1.5832,-1.6092,-1.6313,-1.6413,-1.6774,-1.7041,-1.7141,-1.7328,-1.7475,-1.7582,-1.7582,-1.7582,-1.7582,-1.7582,-1.7582,-1.7582,-1.7582,-1.7582,-1.7582,-1.7582,-1.7582,-1.7582,-1.7582,-1.7582,-1.7582,-1.7582,-1.7582,-1.7582,-1.7582,-1.7582,-1.7582,-1.7582,-1.7582,-1.7635,-1.8043,-1.8263,-1.8397,-1.9365,-1.9287,-1.9463,-2.001,-1.9873,-1.9502,-1.8955,-1.9463,-1.9589,-1.8704,-1.987,-2.0816,-2.0912,-2.095,-2.1485,-2.2989,-2.2403,-2.1831,-2.1658,-2.1145,-2.0661,-2.0208,-1.8931,-1.8126,-1.7977,-1.6592,-1.5792,-1.5485,-1.4958,-1.4657,0.0,0.0,0.0,0.0,0.0,-1.5675,-1.7593,-1.7812,-1.8659,-2.0007,-2.0587,-2.1312,-2.1926,-2.1265,-2.1476,-2.2178,-2.2315,-2.2767,-2.3076,-2.3076,-2.2702,-2.2141,-2.2389,-2.1835,-2.1195,-2.1321,-2.123,-2.112,-2.0987,-2.1022,-2.0859,-1.9518,-1.9356,-1.8985,-1.7127,-1.6735,-1.6735,-1.6735,-1.6177,-1.6171,-1.7318,-1.6619,-1.5953,-1.6619,-1.6177,-1.5832,0.0,-1.5832,-1.5832,-1.5832,-1.5999,-1.6159,-1.6259,-1.6613,-1.6921,-1.7134,-1.7321,-1.7475,-1.7575,-1.7582,-1.7582,-1.7582,-1.7582,-1.7582,-1.7582,-1.7582,-1.7582,-1.7582,-1.7582,-1.7582,-1.7582,-1.7582,-1.7582,-1.7582,-1.7582,-1.7582,-1.7582,-1.7582,-1.7582,-1.7582,-1.7582,-1.7582,-1.7609,-1.7809,-1.7949,-1.813,-1.9375,-1.9287,-1.9287,-1.9287,-1.9307,-1.9316,-1.9316,-1.9678,-1.9961,-2.001,-2.0762,-2.1465,-2.1904,-2.2305,-2.2705,-2.3105,-2.3135,-2.3135,-2.3135,-2.1764,-2.1631,-2.3028,-2.0312,-1.9462,-2.088,-1.7969,-1.6946,-1.7971,-1.6526,0.0,0.0,0.0,0.0,0.0,-1.4977,0.0,-1.9187,-1.8386,-2.0165,-2.3468,-2.3637,-2.3782,-2.3764,-2.3782,-2.3537,-2.3141,-2.3646,-2.4609,-2.5742,-2.5742,-2.4815,-2.3791,-2.3791,-2.2868,-2.1853,-2.1853,-2.1853,-2.1871,-2.1519,-2.1427,-2.1335,-2.0975,-2.0883,-2.0504,-1.8827,-1.8376,-1.8376,-1.8376,-1.7194,-1.6968,-2.0126,-1.811,-1.6402,-1.7904,-1.6852,-1.5832,-1.5832,-1.5832,-1.5832,-1.5832,-1.5845,-1.5952,-1.6226,-1.6279,-1.6526,-1.7088,-1.7141,-1.7275,-1.7569,-1.7569,-1.7569,-1.7582,-1.7582,-1.7582,-1.7582,-1.7582,-1.7582,-1.7582,-1.7582,-1.7582,-1.7582,-1.7582,-1.7582,-1.7582,-1.7582,-1.7582,-1.7582,-1.7582,-1.7582,-1.7582,-1.7582,-1.7687,-1.7687,-1.7582,-1.7776,-1.8123,-1.9434,-1.9287,-1.9287,-1.9287,-1.9541,-1.9756,-1.9756,-2.0117,-2.0635,-2.1299,-2.1846,-2.2353,-2.2773,-2.291,-2.3018,-2.3125,-2.3135,-2.3135,-2.3135,-2.2766,-2.2659,-2.3047,-2.2093,-2.1323,-2.0889,-1.9512,-1.8537,-1.7971,-1.7269,0.0,-1.6927,0.0,0.0,0.0,0.0,-1.8518,-2.0935,-2.1054,-2.2653,-2.4975,-2.406,-2.411,-2.4766,-2.5101,-2.4948,-2.4632,-2.5072,-2.543,-2.5742,-2.5742,-2.543,-2.5226,-2.5226,-2.4922,-2.4707,-2.4707,-2.4707,-2.4688,-2.4585,-2.4547,-2.4249,-2.2946,-2.2654,-2.2259,-2.052,-2.015,-2.015,-2.015,-1.979,-1.9415,-1.9057,-1.8243,-1.7428,-1.6619,-1.6062,-1.5832,-1.5832,-1.5832,-1.5832,-1.5832,-1.6025,-1.6106,-1.5959,-1.6339,-1.6653,-1.6807,-1.7021,-1.7275,-1.7569,-1.7375,-1.7361,-1.7575,-1.7582,-1.7582,-1.7582,-1.7582,-1.7582,-1.7582,-1.7582,-1.7582,-1.7582,-1.7582,-1.7582,-1.7582,-1.7582,-1.7582,-1.7582,-1.7582,-1.7582,-1.7582,-1.7582,-1.8199,-1.902,-1.7989,-1.7769,-1.8043,-1.9424,-1.959,-1.9785,-1.96,-2.0234,-2.0644,-2.0254,-2.0576,-2.1103,-2.1797,-2.2246,-2.2607,-2.2832,-2.3027,-2.3135,-2.3135,-2.3135,-2.3135,-2.3135,-2.3135,-2.3135,-2.3135,-2.291,-2.2505,-2.187,-2.0723,-2.006,-1.9731,-1.8745,0.0,-1.831,0.0,0.0,0.0,0.0,-1.9835,-2.2283,-2.3072,-2.4192,-2.5363,-2.4837,-2.4868,0.0,-2.5644,-2.5586,-2.5391,-2.5644,-2.5742,-2.5742,-2.5742,-2.5742,-2.5742,-2.5742,-2.5742,-2.5742,-2.5742,-2.5742,-2.5742,-2.5742,-2.5742,-2.5479,-2.4532,-2.4369,-2.3957,-2.2259,-2.1882,-2.1882,-2.1874,-2.1256,-2.0996,-2.1411,-1.9798,-1.7772,-1.6062,-1.5832,-1.5832,-1.5832,-1.5832,-1.5832,-1.5832,-1.5979,-1.6012,-1.5845,-1.6359,-1.6707,-1.6707,-1.686,-1.7027,0.0,-1.7168,-1.7228,-1.7388,-1.7515,-1.7582,-1.7582,-1.7582,-1.7582,-1.7582,-1.7582,-1.7582,-1.7582,-1.7582,-1.7582,-1.7582,-1.7582,-1.7891,-1.8506,-1.8506,-1.8805,-1.9413,-1.9413,-1.9819,-2.0436,-1.9723,-1.9121,-1.8681,-1.9742,-2.0315,-2.076,-2.0146,-2.1184,-2.1806,-2.1145,-2.1222,-2.1562,-2.1992,-2.2373,-2.2598,-2.2598,-2.292,-2.3135,-2.3135,-2.3135,-2.3164,-2.3223,-2.3223,-2.3252,-2.3301,-2.331,-2.331,-2.331,-2.1973,-2.1569,-2.2051,-2.066,0.0,0.0,0.0,0.0,0.0,0.0,0.0,0.0,-2.456,-2.5098,-2.5195,-2.5586,-2.5742,-2.5742,-2.5742,-2.5742,-2.5742,-2.5742,-2.5742,-2.5742,-2.5742,-2.5742,-2.5742,-2.5742,-2.5742,-2.5742,-2.5742,-2.5742,-2.5742,-2.5742,-2.5742,-2.5742,-2.5742,-2.5742,-2.5334,-2.3851,-2.3574,-2.3584,-2.3565,-2.2408,-2.2268,-2.4918,-2.1664,-1.8118,-1.6585,-1.6293,-1.6225,-1.6408,-1.6313,-1.6205,-1.6347,-1.6286,0.0,-1.6021,-1.6424,-1.6647,-1.6647,-1.6647,-1.668,0.0,0.0,-1.7128,-1.7201,-1.7455,-1.7582,-1.7582,-1.7582,-1.7687,-1.7891,-1.7687,-1.7786,-1.8087,-1.7996,-1.7989,-1.8094,-1.8094,-1.8805,-1.9834,-1.9834,-2.0641,-2.1752,-2.1853,-2.1954,-2.1954,-2.1954,-2.1143,-1.9975,-2.1816,-2.2018,-2.2148,-2.1164,-2.1946,-2.2918,-2.3502,-2.2792,-2.2441,-2.2861,-2.2988,-2.3027,-2.3027,-2.3096,-2.3135,-2.3135,-2.3135,-2.3291,-2.3652,-2.3682,-2.3828,-2.418,-2.4189,-2.4189,-2.4189,-2.359,-2.3163,-2.292,-2.232,0.0,0.0,0.0,0.0,0.0,0.0,0.0,-2.4228,-2.4824,-2.5283,-2.5625,-2.5703,-2.5742,-2.5742,-2.5742,-2.5742,-2.5742,-2.5742,-2.5742,-2.5742,-2.5742,-2.5742,-2.5742,-2.5742,-2.5742,-2.5742,-2.5742,-2.5742,-2.5742,-2.5742,-2.5742,-2.5742,-2.5742,-2.5742,-2.5616,-2.5334,-2.5315,-2.5324,-2.5217,-2.5053,-2.4638,-2.3842,-2.1882,-2.0164,-1.9429,-1.8674,-1.8566,-1.9806,-1.8954,-1.8468,-1.9217,-1.8682,-1.7985,-1.7463,-1.6711,-1.6346,-1.6346,-1.6346,-1.656,0.0,0.0,-1.7007,0.0,-1.7555,-1.7582,0.0,0.0,-1.8199,-1.922,-1.8094,-1.8805,-2.0939,-1.9826,-1.993,-2.0939,-2.0939,-2.1143,-2.1347,-2.1347,-2.1448,-2.1853,-2.2868,-2.3384,-2.3384,-2.3384,-2.3176,-2.2785,-2.381,-2.3875,-2.3872,-2.3345,-2.3842,-2.4473,-2.4941,-2.5027,-2.483,-2.4567,-2.4237,-2.3963,-2.3963,-2.387,-2.3799,-2.3799,-2.3799,-2.3887,-2.4102,-2.4111,-2.4209,-2.4404,-2.4414,-2.4414,-2.4414,-2.4219,-2.3789,-2.3135,-2.2939,-2.2627,0.0,0.0,0.0,0.0,0.0,-2.3516,0.0,0.0,-2.5195,-2.541,-2.5644,-2.5742,-2.5742,-2.5742,-2.5742,-2.5742,-2.5742,-2.5742,-2.5742,-2.5742,-2.5742,-2.5742,-2.5742,-2.5742,-2.5742,-2.5742,-2.5742,-2.5742,-2.5742,-2.5742,-2.5742,-2.5742,-2.5742,-2.5742,-2.5742,-2.5742,-2.5742,-2.5742,-2.5742,-2.5198,-2.3584,-2.2485,-2.1475,-2.0615,-1.9917,-1.9782,-2.0641,-2.0184,-1.9926,-2.0417,-1.9821,-1.9304,-1.898,-1.8379,-1.7508,-1.6357,-1.6273,-1.646,-1.6894,0.0,-1.7197,0.0,0.0,0.0,-1.9723,0.0,-1.9317,-2.0633,-2.0025,-2.0428,-2.1651,-2.1041,-2.1041,-2.1752,-2.1752,-2.2055,-2.2767,-2.3484,-2.3791,-2.3791,-2.451,-2.4716,-2.4716,-2.4716,-2.4304,-2.3484,-2.557,-2.5641,-2.5633,-2.5487,-2.5961,-2.6392,-2.6587,-2.7529,-2.7713,-2.6321,-2.5797,-2.5509,-2.5509,-2.53,-2.5209,-2.5209,-2.5209,-2.5067,-2.4901,-2.4911,-2.4868,-2.4687,-2.4697,-2.4697,-2.4697,-2.4697,-2.4326,-2.3545,-2.3467,-2.3164,0.0,0.0,0.0,0.0,0.0,0.0,0.0,0.0,-2.5127,-2.5244,-2.5596,-2.5742,-2.5742,-2.5742,-2.5742,-2.5742,-2.5742,-2.5742,-2.5742,-2.5742,-2.5742,-2.5742,-2.5742,-2.5742,-2.5742,-2.5742,-2.5742,-2.5742,-2.5742,-2.5742,-2.5742,-2.5742,-2.5742,-2.5742,-2.5742,-2.5742,-2.5742,-2.5742,-2.5742,-2.5305,-2.397,-2.3404,-2.2926,-2.1857,-2.1276,-2.1043,-2.1734,-2.1585,-2.1454,-2.1665,-2.1191,-2.0703,-2.0619,-2.007,-1.9129,-1.7483,-1.7197,-1.7281,-1.7654,0.0,0.0,0.0,0.0,-1.9517,-2.1651,0.0,-2.0743,-2.2156,-2.1853,-2.1954,-2.2567,-2.2257,-2.2257,-2.2567,-2.2567,-2.3176,-2.4196,-2.5226,-2.5742,-2.5742,-2.5742,-2.5742,-2.5742,-2.5742,-2.502,-2.3998,-2.6772,-2.7299,-2.7634,-2.6653,-2.7731,-2.8904,-2.9392,-3.0309,-3.0068,-2.7481,-2.7502,-2.7805,-2.7805,-2.7796,-2.7765,-2.7765,-2.7765,-2.7424,-2.67,-2.6639,-2.6382,-2.5596,-2.5615,-2.5615,-2.5615,-2.5615,-2.5371,-2.4883,-2.4492,-2.3877,0.0,0.0,0.0,0.0,0.0,0.0,0.0,-2.5039,-2.5303,-2.5674,-2.5723,-2.5742,-2.5742,-2.5742,-2.5742,-2.5742,-2.5742,-2.5742,-2.5742,-2.5742,-2.5742,-2.5742,-2.5742,-2.5742,-2.5742,-2.5742,-2.5742,-2.5742,-2.5742,-2.5742,-2.5742,-2.5742,-2.5742,-2.5742,-2.5742,-2.5742,-2.5742,-2.5742,-2.5742,-2.5499,-2.5051,-2.5169,-2.5286,-2.4774,-2.3906,-2.3834,-2.5101,-2.4184,-2.3742,-2.4564,-2.3697,-2.2853,-2.2398,-2.1354,-2.0716,-2.0778,-2.011,-2.0036,-2.072,0.0,0.0,-2.1484,-2.133,-2.1448,-2.1752,-2.155,-2.2156,-2.3484,-2.2257,-2.2976,-2.5323,-2.4097,-2.4205,-2.5333,-2.5333,-2.543,-2.5528,-2.5635,-2.5742,-2.5742,-2.5742,-2.5742,-2.5742,-2.5742,-2.5635,-2.5528,-2.9609,-2.9591,-2.9616,-2.9492,-2.9736,-3.0183,-3.0713,-3.1415,-3.1456,-3.0362,-2.9827,-2.9514,-2.9514,-2.909,-2.8914,-2.8914,-2.8914,-2.8462,-2.7389,-2.7306,-2.7212,-2.6839,-2.6849,-2.6849,-2.6849,-2.6849,-2.6625,-2.6166,-2.5258,-2.4851,-2.502,0.0,0.0,0.0,0.0,-2.4746,-2.5088,-2.5361,-2.5576,-2.5742,-2.5742,-2.5742,-2.5742,-2.5742,-2.5742,-2.5742,-2.5742,-2.5742,-2.5742,-2.5742,-2.5742,-2.5742,-2.5742,-2.5742,-2.5742,-2.5742,-2.5742,-2.5742,-2.5742,-2.5742,-2.5742,-2.5742,-2.5742,-2.5742,-2.5742,-2.5742,-2.5742,-2.5742,-2.5742,-2.5684,-2.5508,-2.54,-2.5361,-2.5449,-2.4987,-2.4822,-2.5596,-2.5226,-2.5051,-2.5392,-2.4833,-2.4317,-2.4146,-2.3411,-2.3137,-2.3542,-2.1692,-2.0765,-2.1495,0.0,0.0,-2.2859,0.0,-2.2458,-2.4097,-2.3276,-2.3583,-2.4913,-2.4402,-2.4609,-2.5635,-2.5118,-2.5226,-2.5742,-2.5742,-2.5742,-2.5742,-2.5742,-2.5742,-2.5742,-2.5742,-2.5742,-2.5742,-2.5742,-2.5742,-2.5742,-3.1386,-3.1223,-3.1198,-3.1574,-3.1474,-3.1461,-3.1825,-3.2215,-3.2466,-3.2466,-3.1749,-3.1209,-3.1209,-3.0732,-3.0508,-3.0508,-3.0508,-2.9966,-2.8773,-2.868,-2.8495,-2.8132,-2.8132,-2.8132,-2.8132,-2.8132,-2.7971,-2.7629,-2.6671,-2.637,-2.6797,0.0,0.0,0.0,-2.6013,-2.6227,-2.637,-2.6696,-2.6754,-2.6754,-2.6754,-2.6754,-2.6754,-2.6754,-2.6754,-2.6754,-2.639,-2.6294,-2.6197,-2.583,-2.5742,-2.5742,-2.5742,-2.5742,-2.5742,-2.5742,-2.5742,-2.5742,-2.5742,-2.5742,-2.5742,-2.5742,-2.5742,-2.5742,-2.5742,-2.5742,-2.5742,-2.5742,-2.5742,-2.5742,-2.5742,-2.5478,-2.5371,-2.5684,-2.5469,-2.5371,-2.5693,-2.5742,-2.5684,-2.5557,-2.5371,-2.5215,-2.5078,-2.4912,-2.4932,-2.5244,-2.34,-2.2399,-2.2841,0.0,0.0,0.0,0.0,0.0,-2.5635,-2.4716,-2.4716,-2.5742,-2.5742,-2.5742,-2.5742,-2.5742,-2.5742,-2.5742,-2.5742,-2.5742,-2.5742,-2.5742,-2.5742,-2.5742,-2.5742,-2.5742,-2.5742,-2.5742,-2.5742,-2.5742,-3.1386,-3.1825,-3.219,-3.2202,-3.2667,-3.3056,-3.3056,-3.3056,-3.3068,-3.3068,-3.3068,-3.3068,-3.3068,-3.3068,-3.3081,-3.3081,-3.3081,-3.2513,-3.1223,-3.1134,-3.0586,-2.9407,-2.9407,-2.9407,-2.9407,-2.9407,-2.9407,-2.9396,-2.8925,-2.8521,-2.8113,0.0,-2.7899,-2.8779,-2.8779,-2.8948,-2.9304,-2.9315,-2.9315,-2.9315,-2.9315,-2.9315,-2.9315,-2.9315,-2.9315,-2.9223,-2.8049,-2.7589,-2.74,-2.611,-2.5742,-2.5742,-2.5742,-2.5742,-2.5742,-2.5742,-2.5742,-2.5742,-2.5742,-2.5742,-2.5742,-2.5742,-2.5742,-2.5742,-2.5742,-2.5742,-2.5742,-2.5742,-2.5742,-2.5742,-2.5742,-2.5732,-2.5732,-2.5742,-2.5732,-2.5732,-2.5742,-2.5742,-2.5576,-2.5127,-2.5459,-2.5557,-2.5117,-2.5459,-2.5723,-2.5723,-2.5625,-2.5625,-2.5635,0.0,0.0,-2.5635,-2.5635,0.0,-2.5742,-2.5635,-2.5635,-2.5742,-2.5742,-2.5742,-2.5742,-2.5742,-2.5742,-2.5742,-2.5742,-2.5742,-2.5742,-2.5742,-2.5742,-2.5742,-2.5742,-2.5742,-2.5742,-2.5742,-2.5742,-2.5742,-3.2541,-3.2679,-3.2805,-3.2805,-3.2955,-3.3081,-3.3081,-3.3081,-3.3081,-3.3081,-3.3081,-3.3081,-3.3081,-3.3081,-3.3081,-3.3081,-3.3081,-3.2525,-3.1311,-3.1223,-3.1033,-3.0676,-3.0676,-3.0676,-3.0676,-3.0676,-3.0676,-3.0676,-2.9704,0.0,0.0,-2.8869,-2.8959,-2.9183,-2.9183,-2.9261,-2.9407,-2.9407,-2.9407,-2.9407,-2.9407,-2.9407,-2.9407,-2.9407,-2.9407,-2.9315,-2.8947,-2.8319,-2.7494,-2.7125,-2.639,-2.5742,-2.5742,-2.5742,-2.5742,-2.5742,-2.5742,-2.5742,-2.5742,-2.5742,-2.5742,-2.5742,-2.5742,-2.5742,-2.5742,-2.5742,-2.5742,-2.5742,-2.5742,-2.5742,-2.5742,-2.5742,-2.5742,-2.5742,-2.5742,-2.5742,-2.5742,-2.5742,-2.5684,-2.5537,-2.5644,-2.5684,-2.5537,-2.5654,-2.5742,-2.5742,-2.5742,-2.5742,0.0,0.0,0.0,0.0,-2.5742,0.0,-2.5742,-2.5742,-2.5742,-2.5742,-2.5742,-2.5742,-2.5742,-2.5742,-2.5742,-2.5742,-2.5742,-2.5742,-2.5742,-2.5742,-2.5742,-2.5742,-2.5742,-2.5742,-2.5742,-2.5742,-2.5742,-2.5742,-3.3081,-3.3081,-3.3081,-3.3081,-3.3081,-3.3081,-3.3081,-3.3081,-3.3081,-3.3081,-3.3081,-3.3081,-3.3081,-3.3081,-3.3081,-3.3081,-3.3081,-3.2797,-3.1965,-3.1865,-3.1865,-3.1865,-3.1865,-3.1865,-3.1865,-3.1865,0.0,-3.1865,-3.1146,-3.0777,-3.0777,-3.0777,-3.0777,-3.0777,-3.0777,-3.0777,-3.0777,-3.0777,-3.0777,-3.0777,-3.0777,-3.0777,-3.0777,-3.0777,-3.0777,-3.0687,-3.0226,-2.959,-2.8855,-2.8402,-2.7767,-2.702,-2.6572,-2.638,-2.6294,-2.583,-2.5742,-2.5742,-2.5742,-2.5742,-2.5742,-2.5742,-2.5742,-2.5742,-2.5742,-2.5742,-2.5742,-2.5742,-2.5742,-2.5742,-2.5742,-2.5742,-2.5742,-2.5742,-2.5742,-2.5742,-2.5742,-2.5742,-2.5674,-2.5508,-2.5635,-2.5674,-2.5508,-2.5635,-2.5742,-2.5742,-2.5742,0.0,0.0,0.0,-2.5742,-2.5742,-2.5742,-2.5742,-2.5742,-2.5742,-2.5742,-2.5742,-2.5742,-2.5742,-2.5742,-2.5742,-2.5742,-2.5742,-2.5742,-2.5742,-2.5742,-2.5742,-2.5742,-2.5742,-2.5742,-2.5742,-2.5742,-2.5742,-2.5742,-2.5742,-3.3194,-3.3194,-3.3194,-3.3194,-3.3194,-3.3194,-3.3194,-3.3194,-3.3194,-3.3194,-3.3194,-3.3181,-3.3131,-3.3131,-3.3119,-3.3081,-3.3081,-3.3081,-3.3081,-3.3081,-3.3081,-3.3081,-3.3081,-3.3081,-3.3081,-3.3081,-3.3081,-3.3081,-3.3081,-3.3081,-3.3081,-3.3081,-3.3081,-3.3081,-3.3081,-3.3081,-3.3081,-3.3081,-3.3081,-3.3081,-3.3081,-3.3081,-3.3081,-3.3081,-3.3081,-3.2982,-3.1777,-3.1311,-3.1033,-2.9863,-2.9498,-2.9223,-2.8038,-2.7673,-2.7494,-2.611,-2.5742,-2.5742,-2.5742,-2.5732,-2.583,-2.5732,-2.5742,-2.5742,-2.5742,-2.5742,-2.5742,-2.5742,-2.5742,-2.5742,-2.5742,-2.5742,-2.5742,-2.5742,-2.5742,-2.5742,-2.5742,-2.5742,-2.5586,-2.5166,-2.5478,-2.5576,-2.5156,-2.5488,-2.5742,-2.5742,-2.5742,0.0,0.0,0.0,-2.5742,-2.5742,-2.5742,-2.5742,-2.5742,-2.5742,-2.5742,-2.5742,-2.5742,-2.5742,-2.5742,-2.5742,-2.5742,-2.5742,-2.5742,-2.5742,-2.5742,-2.5742,-2.5742,-2.5742,-2.5742,-2.5742,-2.5742,-2.5742,-2.5742,-2.5742,-3.4336,-3.4336,-3.4336,-3.4336,-3.4336,-3.4336,-3.4336,-3.4336,-3.4336,-3.4336,-3.4336,-3.4173,-3.3759,-3.3709,-3.3533,-3.3119,-3.3081,-3.3081,-3.3081,-3.3081,-3.3081,-3.3081,-3.3081,-3.3081,-3.3081,-3.3081,-3.3081,-3.3081,-3.3081,-3.3081,-3.3081,-3.3081,-3.3081,-3.3081,-3.3081,-3.3081,-3.3081,-3.3081,-3.3081,-3.3081,-3.3081,-3.3081,-3.3081,-3.3081,-3.3081,-3.3081,-3.2797,-3.2052,-3.1134,-3.0855,-3.0135,-2.9315,-2.9039,-2.8947,-2.8588,-2.638,-2.5742,-2.5742,-2.5742,-2.638,-2.6945,-2.5917,-2.5742,-2.5742,-2.5742,-2.5742,-2.5742,-2.5742,-2.5742,-2.5742,-2.5742,-2.5742,-2.5742,-2.5742,-2.5742,-2.5742,-2.5742,-2.5742,-2.5693,-2.5596,-2.5674,-2.5693,-2.5586,-2.5674,-2.5742,-2.5742,-2.5742,-2.5742,-2.5742,-2.5742,-2.5742,-2.5742,-2.5742,-2.5742,-2.5742,-2.5742,-2.5742,-2.5742,-2.5742,-2.5742,-2.5742,-2.5742,-2.5742,-2.5742,-2.5742,-2.5742,-2.5742,-2.5742,-2.5742,-2.5742,-2.5742,-2.5742,-2.5742,-2.5742,-2.5742,-2.5742,-3.4726,-3.4726,-3.4726,-3.4726,-3.4726,-3.4726,-3.4726,-3.4726,-3.4726,-3.4726,-3.4726,-3.4512,-3.396,-3.3897,-3.3671,-3.3131,-3.3081,-3.3081,-3.3081,-3.3081,-3.3081,-3.3081,-3.3081,-3.3081,-3.3081,-3.3081,-3.3081,-3.3081,-3.3081,-3.3081,-3.3081,-3.3081,-3.3081,-3.3081,-3.3081,-3.3081,-3.3081,-3.3081,-3.3081,-3.3081,-3.3081,-3.3081,-3.3081,-3.3081,-3.3081,-3.3081,-3.3081,-3.2698,-3.2052,-3.2052,-3.1601,-3.0956,-3.0406,-3.0226,-2.9852,-2.7945,-2.7389,-2.7389,-2.7389,-2.7851,-2.8226,-2.7579,-2.7389,-2.7389,-2.7389,-2.6935,-2.6572,-2.6572,-2.611,-2.5742,-2.5742,-2.5742,-2.5742,-2.5742,-2.5566,-2.5508,-2.5713,-2.5557,-2.5508,-2.5713,-2.5742,-2.5742,-2.5742,-2.5742,-2.5742,-2.5742,-2.5742,0.0,-2.5742,-2.5742,-2.5742,-2.5742,-2.5742,-2.5742,-2.5742,-2.5742,-2.5742,-2.5742,-2.5742,-2.5742,-2.5742,-2.5742,-2.5742,-2.5742,-2.5742,-2.5742,-2.5742,-2.5742,-2.5742,-2.5742,-2.5742,-2.5742,-2.5742,-2.5742,-2.5742,-2.5742,-3.4977,-3.4977,-3.4977,-3.4977,-3.4977,-3.4977,-3.4977,-3.4977,-3.4977,-3.4977,-3.4977,-3.4763,-3.4211,-3.4073,-3.3796,-3.3257,-3.3131,-3.3081,-3.3081,-3.3081,-3.3081,-3.3081,-3.3081,-3.3081,-3.3081,-3.3081,-3.3081,-3.3081,-3.3081,-3.3081,-3.3081,-3.3081,-3.3081,-3.3081,-3.3081,-3.3081,-3.3081,-3.3081,-3.3081,-3.3081,-3.3081,-3.3081,-3.3081,-3.3081,-3.3081,-3.3081,-3.3081,-3.3081,-3.3081,-3.3081,-3.3081,-3.2896,-3.1865,-3.15,-3.1311,-3.0226,-2.9954,-2.9863,-2.9498,-2.9407,-2.9407,-2.959,-2.9498,-2.9407,-2.9407,-2.8588,-2.7861,-2.7861,-2.6849,-2.6014,-2.6014,-2.583,-2.5713,-2.5644,-2.5371,-2.5283,-2.5596,-2.5371,-2.5312,-2.5693,-2.5742,-2.5742,-2.5742,-2.5742,-2.5742,-2.5742,-2.5742,-2.5742,-2.5742,-2.5742,-2.5742,-2.5742,-2.5742,-2.5742,-2.5742,-2.5742,-2.5742,-2.5742,-2.5742,-2.5742,-2.5742,-2.5742,-2.5742,-2.5742,-2.5742,-2.5742,-2.5742,-2.5742,-2.5742,-2.5742,-2.5742,-2.5742,-2.5742,-2.5742,-2.5742,-2.5742,-3.6107,-3.6107,-3.6107,-3.6107,-3.6107,-3.6107,-3.6107,-3.6107,-3.6107,-3.6107,-3.6107,-3.5893,-3.5353,-3.4876,-3.4374,-3.3822,-3.3345,-3.3081,-3.3081,-3.3081,-3.3081,-3.3081,-3.3081,-3.3081,-3.3081,-3.3081,-3.3081,-3.3081,-3.3081,-3.3081,-3.3081,-3.3081,-3.3081,-3.3081,-3.3081,-3.3081,-3.3081,-3.3081,-3.3081,-3.3081,-3.3081,-3.3081,-3.3081,-3.3081,-3.3081,-3.3081,-3.3081,-3.3081,-3.3081,-3.3081,-3.3081,-3.3068,-3.2884,-3.2797,-3.2797,-3.2612,-3.2525,-3.2064,-2.9954,-2.9407,-2.967,-3.0676,-3.0135,-2.9407,-2.9407,-2.9223,-2.9131,-2.9131,-2.8132,-2.7315,-2.7315,-2.638,-2.5615,-2.5234,-2.543,-2.5527,-2.5215,0.0,-2.5664,-2.5732,-2.5742,-2.5742,-2.5742,-2.5742,-2.5742,-2.5742,-2.5742,-2.5742,-2.5742,-2.5742,-2.5742,-2.5742,-2.5742,-2.5742,-2.5742,-2.5742,-2.5742,-2.5742,-2.5742,-2.5742,-2.5742,-2.5742,-2.5742,-2.5742,-2.5742,-2.5742,-2.5742,-2.5742,-2.5742,-2.5742,-2.5742,-2.5742,-2.5742,-2.5742,-2.5742,-2.5742,-3.6358,-3.6358,-3.6358,-3.6358,-3.6358,-3.6358,-3.6358,-3.6358,-3.6358,-3.6358,-3.6358,-3.6157,-3.5604,-3.5052,-3.45,-3.3947,-3.3395,-3.3081,-3.3081,-3.3081,-3.3081,-3.3081,-3.3081,-3.3081,-3.3081,-3.3081,-3.3081,-3.3081,-3.3081,-3.3081,-3.3081,-3.3081,-3.3081,-3.3081,-3.3081,-3.3081,-3.3081,-3.3081,-3.3081,-3.3081,-3.3081,-3.3081,-3.3081,-3.3081,-3.3081,-3.3081,-3.3081,-3.3081,-3.3081,-3.3081,-3.3081,-3.3081,-3.3081,-3.3081,-3.3081,-3.3081,-3.3081,-3.2896,-3.1689,-3.1424,-3.1512,-3.2052,-3.1777,-3.1424,-3.1424,-3.0866,-3.0406,-3.0406,-2.9407,-2.8588,-2.8588,-2.7579,-2.6683,-2.6469,-2.5859,-2.5391,-2.543,-2.54,-2.5469,-2.5713,-2.5742,-2.5742,-2.5742,-2.5742,-2.5742,-2.5742,-2.5742,-2.5742,-2.5742,-2.5742,-2.5742,-2.5742,-2.5742,-2.5742,-2.5742,-2.5742,-2.5742,-2.5742,-2.5742,-2.5742,-2.5742,-2.5742,-2.5742,-2.5742,-2.5742,-2.5742,-2.5742,-2.5742,-2.5742,-2.5742,-2.5742,-2.5742,-2.5742,-2.5742,-2.5742,-2.5742,-3.6358,-3.6358,-3.6358,-3.6358,-3.6358,-3.6358,-3.6358,-3.6358,-3.6358,-3.6358,-3.6358,-3.6194,-3.578,-3.5127,-3.455,-3.4123,-3.347,-3.3081,-3.3081,-3.3081,-3.3081,-3.3081,-3.3081,-3.3081,-3.3081,-3.3081,-3.3081,-3.3081,-3.3081,-3.3081,-3.3081,-3.3081,-3.3081,-3.3081,-3.3081,-3.3081,-3.3081,-3.3081,-3.3081,-3.3081,-3.3081,-3.3081,-3.3081,-3.3081,-3.3081,-3.3081,-3.3081,-3.3081,-3.3081,-3.3081,-3.3081,-3.3081,-3.3081,-3.3081,-3.3081,-3.3081,-3.3081,-3.3081,-3.3081,-3.3081,-3.3081,-3.3081,-3.3081,-3.3081,-3.3081,-3.2326,-3.1677,-3.1677,-3.0676,-2.9863,-2.9863,-2.8866,-2.8006,-2.79,0.0,-2.6034,-2.6008,-2.5839,-2.5724,-2.5693,-2.5742,-2.5742,-2.5742,-2.5742,-2.5742,-2.5742,-2.5742,-2.5742,-2.5742,-2.5742,-2.5742,-2.5742,-2.5742,-2.5742,-2.5742,-2.5742,-2.5742,-2.5742,-2.5742,-2.5742,-2.5742,-2.5742,-2.5742,-2.5742,-2.5742,-2.5742,-2.5742,-2.5742,-2.5742,-2.5742,-2.5742,-2.5742,-2.5742,-2.5742,-2.5742,-2.5742,-3.6358,-3.6358,-3.6358,-3.6358,-3.6358,-3.6358,-3.6358,-3.6358,-3.6358,-3.6358,-3.6358,-3.6345,-3.6307,-3.5366,-3.47,-3.4663,-3.3696,-3.3081,-3.3081,-3.3081,-3.3081,-3.3081,-3.3081,-3.3081,-3.3081,-3.3081,-3.3081,-3.3081,-3.3081,-3.3081,-3.3081,-3.3081,-3.3081,-3.3081,-3.3081,-3.3081,-3.3081,-3.3081,-3.3081,-3.3081,-3.3081,-3.3081,-3.3081,-3.3081,-3.3081,-3.3081,-3.3081,-3.3081,-3.3081,-3.3081,-3.3081,-3.3081,-3.3081,-3.3081,-3.3081,-3.3081,-3.3081,-3.3081,-3.3081,-3.3081,-3.3081,-3.3081,-3.3081,-3.3081,-3.3081,-3.3068,-3.2982,-3.2982,-3.1965,-3.1045,-3.1045,-3.0045,-2.917,-2.8723,0.0,0.0,-2.6991,-2.7191,-2.6999,-2.583,-2.5742,-2.5742,-2.5742,-2.5742,-2.5742,-2.5742,-2.5742,-2.5742,-2.5742,-2.5742,-2.5742,-2.5742,-2.5742,-2.5742,-2.5742,-2.5742,-2.5742,-2.5742,-2.5742,-2.5742,-2.5742,-2.5742,-2.5742,-2.5742,-2.5742,-2.5742,-2.5742,-2.5742,-2.5742,-2.5742,-2.5742,-2.5742,-2.5742,-2.5742,-2.5742,-2.5742,-3.6358,-3.6358,-3.6358,-3.6358,-3.6358,-3.6358,-3.6358,-3.6358,-3.6358,-3.6358,-3.6358,-3.6358,-3.6358,-3.5378,-3.4726,-3.4726,-3.3709,-3.3081,-3.3081,-3.3081,-3.3081,-3.3081,-3.3081,-3.3081,-3.3081,-3.3081,-3.3081,-3.3081,-3.3081,-3.3081,-3.3081,-3.3081,-3.3081,-3.3081,-3.3081,-3.3081,-3.3081,-3.3081,-3.3081,-3.3081,-3.3081,-3.3081,-3.3081,-3.3081,-3.3081,-3.3081,-3.3081,-3.3081,-3.3081,-3.3081,-3.3081,-3.3081,-3.3081,-3.3081,-3.3081,-3.3081,-3.3081,-3.3081,-3.3081,-3.3081,-3.3081,-3.3081,-3.3081,-3.3081,-3.3081,-3.3081,-3.3081,-3.3081,-3.2698,-3.2426,-3.2426,-3.1323,-3.0438,-3.033,0.0,-2.9157,-2.8521,-2.856,-2.8226,-2.703,-2.6849,-2.6572,-2.5732,-2.5742,-2.5742,-2.5742,-2.5742,-2.5742,-2.5742,-2.5742,-2.5742,-2.5742,-2.5742,-2.5742,-2.5742,-2.5742,-2.5742,-2.5742,-2.5742,-2.5742,-2.5742,-2.5742,-2.5742,-2.5742,-2.5742,-2.5742,-2.5742,-2.5742,-2.5742,-2.5742,-2.5742,-2.5742,-2.5742,-2.5742,-2.5742,-2.5742,-3.6358,-3.6358,-3.6358,-3.6358,-3.6358,-3.6358,-3.6358,-3.6358,-3.6358,-3.6358,-3.6358,-3.6358,-3.6358,-3.5378,-3.4726,-3.4726,-3.3709,-3.3081,-3.3081,-3.3081,-3.3081,-3.3081,-3.3081,-3.3081,-3.3081,-3.3081,-3.3081,-3.3081,-3.3081,-3.3081,-3.3081,-3.3081,-3.3081,-3.3081,-3.3081,-3.3081,-3.3081,-3.3081,-3.3081,-3.3081,-3.3081,-3.3081,-3.3081,-3.3081,-3.3081,-3.3081,-3.3081,-3.3081,-3.3081,-3.3081,-3.3081,-3.3081,-3.3081,-3.3081,-3.3081,-3.3081,-3.3081,-3.3081,-3.3081,-3.3081,-3.3081,-3.3081,-3.3081,-3.3081,-3.3081,-3.3081,-3.3081,-3.3081,-3.3081,-3.3081,-3.3081,-3.2426,-3.1777,-3.1777,-3.1134,-3.0406,-3.0045,-2.9954,-2.9498,-2.8319,-2.7861,-2.722,-2.638,-2.5917,-2.5742,-2.5742,-2.5742,-2.5742,-2.5742,-2.5742,-2.5742,-2.5742,-2.5742,-2.5742,-2.5742,-2.5742,-2.5742,-2.5742,-2.5742,-2.5742,-2.5742,-2.5742,-2.5742,-2.5742,-2.5742,-2.5742,-2.5742,-2.5742,-2.5742,-2.5742,-2.5742,-2.5742,-2.5742,-2.5742,-2.5742,-2.5742,-3.6358,-3.6358,-3.6358,-3.6358,-3.6358,-3.6358,-3.6358,-3.6358,-3.6358,-3.6358,-3.6358,-3.6358,-3.6358,-3.5378,-3.4726,-3.4713,-3.3709,-3.3081,-3.3081,-3.3081,-3.3081,-3.3081,-3.3081,-3.3081,-3.3081,-3.3081,-3.3081,-3.3081,-3.3081,-3.3081,-3.3081,-3.3081,-3.3081,-3.3081,-3.3081,-3.3081,-3.3081,-3.3081,-3.3081,-3.3081,-3.3081,-3.3081,-3.3081,-3.3081,-3.3081,-3.3081,-3.3081,-3.3081,-3.3081,-3.3081,-3.3081,-3.3081,-3.3081,-3.3081,-3.3081,-3.3081,-3.3081,-3.3081,-3.3081,-3.3081,-3.3081,-3.3081,-3.3081,-3.3081,-3.3081,-3.3081,-3.3081,-3.3081,-3.3081,-3.3081,-3.3081,-3.3081,-3.3081,-3.3081,-3.3081,-3.2698,-3.14,-3.1223,-3.0765,-2.959,-2.8319,-2.7589,-2.7589,-2.6476,-2.5742,-2.5742,-2.5742,-2.5742,-2.5742,-2.5742,-2.5742,-2.5742,-2.5742,-2.5742,-2.5742,-2.5742,-2.5742,-2.5742,-2.5742,-2.5742,-2.5742,-2.5742,-2.5742,-2.5742,-2.5742,-2.5742,-2.5742,-2.5742,-2.5742,-2.5742,-2.5742,-2.5742,-2.5742,-2.5742,-2.5742,-2.5742,-3.6358,-3.6358,-3.6358,-3.6358,-3.6358,-3.6358,-3.6358,-3.6358,-3.6358,-3.6358,-3.6358,-3.6219,-3.583,-3.5152,-3.4562,-3.4173,-3.3483,-3.3081,-3.3081,-3.3081,-3.3081,-3.3081,-3.3081,-3.3081,-3.3081,-3.3081,-3.3081,-3.3081,-3.3081,-3.3081,-3.3081,-3.3081,-3.3081,-3.3081,-3.3081,-3.3081,-3.3081,-3.3081,-3.3081,-3.3081,-3.3081,-3.3081,-3.3081,-3.3081,-3.3081,-3.3081,-3.3081,-3.3081,-3.3081,-3.3081,-3.3081,-3.3081,-3.3081,-3.3081,-3.3081,-3.3081,-3.3081,-3.3081,-3.3081,-3.3081,-3.3081,-3.3081,-3.3081,-3.3081,-3.3081,-3.3081,-3.3081,-3.3081,-3.3081,-3.3081,-3.3081,-3.3081,-3.3081,-3.3081,-3.3081,-3.2982,-3.2612,-3.2513,-3.2052,-3.0765,-2.959,-2.8495,-2.7683,-2.6476,-2.5742,-2.5742,-2.5742,-2.5742,-2.5742,-2.5742,-2.5742,-2.5742,-2.5742,-2.5742,-2.5742,-2.5742,-2.5742,-2.5742,-2.5742,-2.5742,-2.5742,-2.5742,-2.5742,-2.5742,-2.5742,-2.5742,-2.5742,-2.5742,-2.5742,-2.5742,-2.5742,-2.5742,-2.5742,-2.5742,-2.5742,-2.5742,-3.6358,-3.6358,-3.6358,-3.6358,-3.6358,-3.6358,-3.6358,-3.6358,-3.6358,-3.6358,-3.6358,-3.6157,-3.5604,-3.5052,-3.45,-3.3947,-3.3395,-3.3081,-3.3081,-3.3081,-3.3081,-3.3081,-3.3081,-3.3081,-3.3081,-3.3081,-3.3081,-3.3081,-3.3081,-3.3081,-3.3081,-3.3081,-3.3081,-3.3081,-3.3081,-3.3081,-3.3081,-3.3081,-3.3081,-3.3081,-3.3081,-3.3081,-3.3081,-3.3081,-3.3081,-3.3081,-3.3081,-3.3081,-3.3081,-3.3081,-3.3081,-3.3081,-3.3081,-3.3081,-3.3081,-3.3081,-3.3081,-3.3081,-3.3081,-3.3081,-3.3081,-3.3081,-3.3081,-3.3081,-3.3081,-3.3081,-3.3081,-3.3081,-3.3081,-3.3081,-3.3081,-3.3081,-3.3081,-3.3081,-3.3081,-3.3081,-3.3081,-3.3081,-3.2797,-3.2052,-3.0866,-2.9863,-2.9131,-2.7484,-2.6197,-2.5732,-2.5742,-2.5742,-2.5742,-2.5742,-2.5742,-2.5742,-2.5742,-2.5742,-2.5742,-2.5742,-2.5742,-2.5742,-2.5742,-2.5742,-2.5742,-2.5742,-2.5742,-2.5742,-2.5742,-2.5742,-2.5742,-2.5742,-2.5742,-2.5742,-2.5742,-2.5742,-2.5742,-2.5742,-2.5742,-2.5742,-3.6358,-3.6358,-3.6358,-3.6358,-3.6358,-3.6358,-3.6358,-3.6358,-3.6358,-3.6358,-3.632,-3.6081,-3.5529,-3.4977,-3.4424,-3.3872,-3.337,-3.3081,-3.3081,-3.3081,-3.3081,-3.3081,-3.3081,-3.3081,-3.3081,-3.3081,-3.3081,-3.3081,-3.3081,-3.3081,-3.3081,-3.3081,-3.3081,-3.3081,-3.3081,-3.3081,-3.3081,-3.3081,-3.3081,-3.3081,-3.3081,-3.3081,-3.3081,-3.3081,-3.3081,-3.3081,-3.3081,-3.3081,-3.3081,-3.3081,-3.3081,-3.3081,-3.3081,-3.3081,-3.3081,-3.3081,-3.3081,-3.3081,-3.3081,-3.3081,-3.3081,-3.3081,-3.3081,-3.3081,-3.3081,-3.3081,-3.3081,-3.3081,-3.3081,-3.3081,-3.3081,-3.3081,-3.3081,-3.3081,-3.3081,-3.3081,-3.3081,-3.3081,-3.3081,-3.3081,-3.1965,-3.1223,-3.1223,-2.905,-2.7125,-2.5917,-2.5732,-2.5742,-2.5742,-2.5742,-2.5742,-2.5742,-2.5742,-2.5742,-2.5742,-2.5742,-2.5742,-2.5742,-2.5742,-2.5742,-2.5742,-2.5742,-2.5742,-2.5742,-2.5742,-2.5742,-2.5742,-2.5742,-2.5742,-2.5742,-2.5742,-2.5742,-2.5742,-2.5742,-2.5742,-2.5742,-3.6358,-3.6358,-3.6358,-3.6358,-3.6358,-3.6358,-3.6358,-3.6358,-3.6358,-3.6358,-3.5994,-3.5516,-3.4964,-3.4412,-3.3859,-3.3307,-3.3144,-3.3081,-3.3081,-3.3081,-3.3081,-3.3081,-3.3081,-3.3081,-3.3081,-3.3081,-3.3081,-3.3081,-3.3081,-3.3081,-3.3081,-3.3081,-3.3081,-3.3081,-3.3081,-3.3081,-3.3081,-3.3081,-3.3081,-3.3081,-3.3081,-3.3081,-3.3081,-3.3081,-3.3081,-3.3081,-3.3081,-3.3081,-3.3081,-3.3081,-3.3081,-3.3081,-3.3081,-3.3081,-3.3081,-3.3081,-3.3081,-3.3081,-3.3081,-3.3081,-3.3081,-3.3081,-3.3081,-3.3081,-3.3081,-3.3081,-3.3081,-3.3081,-3.3081,-3.3081,-3.3081,-3.3081,-3.3081,-3.3081,-3.3081,-3.3081,-3.3081,-3.3081,-3.3081,-3.3081,-3.1965,-3.1223,-3.1223,-2.905,-2.7494,-2.722,-2.6294,-2.5742,-2.5742,-2.5742,-2.5742,-2.5742,-2.5742,-2.5742,-2.5742,-2.5742,-2.5742,-2.5742,-2.5742,-2.5742,-2.5742,-2.5742,-2.5742,-2.5742,-2.5742,-2.5742,-2.5742,-2.5742,-2.5742,-2.5742,-2.5742,-2.5742,-2.5742,-2.5742,-2.5742,-2.5742,-3.6358,-3.6358,-3.6358,-3.6358,-3.6358,-3.6358,-3.6358,-3.6358,-3.6358,-3.6358,-3.5881,-3.5341,-3.4776,-3.4223,-3.3671,-3.3131,-3.3081,-3.3081,-3.3081,-3.3081,-3.3081,-3.3081,-3.3081,-3.3081,-3.3081,-3.3081,-3.3081,-3.3081,-3.3081,-3.3081,-3.3081,-3.3081,-3.3081,-3.3081,-3.3081,-3.3081,-3.3081,-3.3081,-3.3081,-3.3081,-3.3081,-3.3081,-3.3081,-3.3081,-3.3081,-3.3081,-3.3081,-3.3081,-3.3081,-3.3081,-3.3081,-3.3081,-3.3081,-3.3081,-3.3081,-3.3081,-3.3081,-3.3081,-3.3081,-3.3081,-3.3081,-3.3081,-3.3081,-3.3081,-3.3081,-3.3081,-3.3081,-3.3081,-3.3081,-3.3081,-3.3081,-3.3081,-3.3081,-3.3081,-3.3081,-3.3081,-3.3081,-3.3081,-3.3081,-3.3081,-3.2513,-3.1865,-3.1223,-3.0033,-2.9039,-2.8495,-2.7305,-2.6572,-2.6572,-2.6014,-2.5742,-2.5742,-2.5742,-2.5742,-2.5742,-2.5742,-2.5742,-2.5742,-2.5742,-2.5742,-2.5742,-2.5742,-2.5742,-2.5742,-2.5742,-2.5742,-2.5742,-2.5742,-2.5742,-2.5742,-2.5742,-2.5742,-2.5742,-2.5742,-2.5742,-2.5742,-3.6358,-3.6358,-3.6358,-3.6358,-3.6358,-3.6358,-3.6358,-3.6358,-3.632,-3.6232,-3.5742,-3.519,-3.4638,-3.4085,-3.3571,-3.3119,-3.3081,-3.3081,-3.3081,-3.3081,-3.3081,-3.3081,-3.3081,-3.3081,-3.3081,-3.3081,-3.3081,-3.3081,-3.3081,-3.3081,-3.3081,-3.3081,-3.3081,-3.3081,-3.3081,-3.3081,-3.3081,-3.3081,-3.3081,-3.3081,-3.3081,-3.3081,-3.3081,-3.3081,-3.3081,-3.3081,-3.3081,-3.3081,-3.3081,-3.3081,-3.3081,-3.3081,-3.3081,-3.3081,-3.3081,-3.3081,-3.3081,-3.3081,-3.3081,-3.3081,-3.3081,-3.3081,-3.3081,-3.3081,-3.3081,-3.3081,-3.3081,-3.3081,-3.3081,-3.3081,-3.3081,-3.3081,-3.3081,-3.3081,-3.3081,-3.3081,-3.3081,-3.3081,-3.3081,-3.3081,-3.3081,-3.2698,-3.1589,-3.1311,-3.0765,-2.9761,-2.8588,-2.7955,-2.7955,-2.6754,-2.6014,-2.6014,-2.583,-2.5742,-2.5742,-2.5742,-2.5742,-2.5742,-2.5742,-2.5742,-2.5742,-2.5742,-2.5742,-2.5742,-2.5742,-2.5742,-2.5742,-2.5742,-2.5742,-2.5742,-2.5742,-2.5742,-2.5742,-2.5742,-2.5742,-2.5742,-3.6358,-3.6358,-3.6358,-3.6358,-3.6358,-3.6358,-3.6358,-3.6358,-3.6194,-3.5717,-3.5177,-3.4625,-3.4073,-3.352,-3.3156,-3.3081,-3.3081,-3.3081,-3.3081,-3.3081,-3.3081,-3.3081,-3.3081,-3.3081,-3.3081,-3.3081,-3.3081,-3.3081,-3.3081,-3.3081,-3.3081,-3.3081,-3.3081,-3.3081,-3.3081,-3.3081,-3.3081,-3.3081,-3.3081,-3.3081,-3.3081,-3.3081,-3.3081,-3.3081,-3.3081,-3.3081,-3.3081,-3.3081,-3.3081,-3.3081,-3.3081,-3.3081,-3.3081,-3.3081,-3.3081,-3.3081,-3.3081,-3.3081,-3.3081,-3.3081,-3.3081,-3.3081,-3.3081,-3.3081,-3.3081,-3.3081,-3.3081,-3.3081,-3.3081,-3.3081,-3.3081,-3.3081,-3.3081,-3.3081,-3.3081,-3.3081,-3.3081,-3.3081,-3.3081,-3.3081,-3.3081,-3.3068,-3.2884,-3.1865,-3.1134,-3.0944,-2.9863,-2.9131,-2.9131,-2.8038,-2.7315,-2.7315,-2.6294,-2.5742,-2.5742,-2.5742,-2.5742,-2.5742,-2.5742,-2.5742,-2.5742,-2.5742,-2.5742,-2.5742,-2.5742,-2.5742,-2.5742,-2.5742,-2.5742,-2.5742,-2.5742,-2.5742,-2.5742,-2.5742,-2.5742,-2.5742,-3.6358,-3.6358,-3.6358,-3.6358,-3.6358,-3.6358,-3.6358,-3.6358,-3.6157,-3.5617,-3.5064,-3.4512,-3.396,-3.3407,-3.3081,-3.3081,-3.3081,-3.3081,-3.3081,-3.3081,-3.3081,-3.3081,-3.3081,-3.3081,-3.3081,-3.3081,-3.3081,-3.3081,-3.3081,-3.3081,-3.3081,-3.3081,-3.3081,-3.3081,-3.3081,-3.3081,-3.3081,-3.3081,-3.3081,-3.3081,-3.3081,-3.3081,-3.3081,-3.3081,-3.3081,-3.3081,-3.3081,-3.3081,-3.3081,-3.3081,-3.3081,-3.3081,-3.3081,-3.3081,-3.3081,-3.3081,-3.3081,-3.3081,-3.3081,-3.3081,-3.3081,-3.3081,-3.3081,-3.3081,-3.3081,-3.3081,-3.3081,-3.3081,-3.3081,-3.3081,-3.3081,-3.3081,-3.3081,-3.3081,-3.3081,-3.3081,-3.3081,-3.3081,-3.3081,-3.3081,-3.3081,-3.3081,-3.3081,-3.2612,-3.2239,-3.2239,-3.1134,-3.0406,-3.0406,-2.9223,-2.8588,-2.8588,-2.74,-2.6754,-2.6754,-2.6014,-2.5742,-2.5742,-2.5742,-2.5742,-2.5742,-2.5742,-2.5742,-2.5742,-2.5742,-2.5742,-2.5742,-2.5742,-2.5742,-2.5742,-2.5742,-2.5742,-2.5742,-2.5742,-2.5742,-2.5742]},{"header":{"parameterUnit":"m.s-1","parameterCategory":1,"la1":30.6,"la2":28.766,"lo1":-90.7593,"lo2":-88.6598,"dy":0.0162,"dx":0.0183,"nx":116,"ny":114,"refTime":"2023-08-02T18:00:00:Z","depth":0,"parameterNumber":3,"parameterNumberName":"V-component_of_WINDS"},"data":[0.0,0.0,0.0,0.0,0.0,0.0,0.0,0.0,0.0,0.0,0.0,0.0,0.0,0.0,0.0,0.0,0.0,0.0,0.0,0.0,0.0,0.0,0.0,0.0,0.0,0.0,0.0,0.0,0.0,0.0,0.0,0.0,0.0,0.0,0.0,0.0,0.0,0.0,0.0,0.0,0.0,0.0,0.0,0.0,0.0,0.0,0.0,0.0,0.0,0.0,0.0,0.0,0.0,0.0,0.0,0.0,0.0,0.0,0.0,0.0,0.0,0.0,0.0,0.0,0.0,0.0,0.0,0.0,0.0,0.0,0.0,0.0,0.0,0.0,0.0,0.0,0.0,0.0,0.0,0.0,0.0,0.0,0.0,0.0,0.0,0.0,0.0,0.0,0.0,0.0,0.0,0.0,0.0,0.0,0.0,0.0,0.0,0.0,0.0,0.0,0.0,0.0,0.0,0.0,0.0,0.0,0.0,0.0,0.0,0.0,0.0,0.0,0.0,0.0,0.0,0.0,0.0,0.0,0.0,0.0,0.0,0.0,0.0,0.0,0.0,0.0,0.0,0.0,0.0,0.0,0.0,0.0,0.0,0.0,0.0,0.0,0.0,0.0,0.0,0.0,0.0,0.0,0.0,0.0,0.0,0.0,0.0,0.0,0.0,0.0,0.0,0.0,0.0,0.0,0.0,0.0,0.0,0.0,0.0,0.0,0.0,0.0,0.0,0.0,0.0,0.0,0.0,0.0,0.0,0.0,0.0,0.0,0.0,0.0,0.0,0.0,0.0,0.0,0.0,0.0,0.0,0.0,0.0,0.0,0.0,0.0,0.0,0.0,0.0,0.0,0.0,0.0,0.0,0.0,0.0,0.0,0.0,0.0,0.0,0.0,0.0,0.0,0.0,0.0,0.0,0.0,0.0,0.0,0.0,0.0,0.0,0.0,0.0,0.0,0.0,0.0,0.0,0.0,0.0,0.0,0.0,0.0,0.0,0.0,0.0,0.0,0.0,0.0,0.0,0.0,0.0,0.0,0.0,0.0,0.0,0.0,0.0,0.0,0.0,0.0,0.0,0.0,0.0,0.0,0.0,0.0,0.0,0.0,0.0,0.0,0.0,0.0,0.0,0.0,0.0,0.0,0.0,0.0,0.0,0.0,0.0,0.0,0.0,0.0,0.0,0.0,0.0,0.0,0.0,0.0,0.0,0.0,0.0,0.0,0.0,0.0,0.0,0.0,0.0,0.0,0.0,0.0,0.0,0.0,0.0,0.0,0.0,0.0,0.0,0.0,0.0,0.0,0.0,0.0,0.0,0.0,0.0,0.0,0.0,0.0,0.0,0.0,0.0,0.0,0.0,0.0,0.0,0.0,0.0,0.0,0.0,0.0,0.0,0.0,0.0,0.0,0.0,0.0,0.0,0.0,0.0,0.0,0.0,0.0,0.0,0.0,0.0,0.0,0.0,0.0,0.0,0.0,0.0,0.0,0.0,0.0,0.0,0.0,0.0,0.0,0.0,0.0,0.0,0.0,0.0,0.0,0.0,0.0,0.0,0.0,0.0,0.0,0.0,0.0,0.0,0.0,0.0,0.0,0.0,0.0,0.0,0.0,0.0,0.0,0.0,0.0,0.0,0.0,0.0,0.0,0.0,0.0,0.0,0.0,0.0,0.0,0.0,0.0,0.0,0.0,0.0,0.0,0.0,0.0,0.0,0.0,0.0,0.0,0.0,0.0,0.0,0.0,0.0,0.0,0.0,0.0,0.0,0.0,0.0,0.0,0.0,0.0,0.0,0.0,0.0,0.0,0.0,0.0,0.0,0.0,0.0,0.0,0.0,0.0,0.0,0.0,0.0,0.0,0.0,0.0,0.0,0.0,0.0,0.0,0.0,0.0,0.0,0.0,0.0,0.0,0.0,0.0,0.0,0.0,0.0,0.0,0.0,0.0,0.0,0.0,0.0,0.0,0.0,0.0,0.0,0.0,0.0,0.0,0.0,0.0,0.0,0.0,0.0,0.0,0.0,0.0,0.0,0.0,0.0,0.0,0.0,0.0,0.0,0.0,0.0,0.0,0.0,0.0,0.0,0.0,0.0,0.0,0.0,0.0,0.0,0.0,0.0,0.0,0.0,0.0,0.0,0.0,0.0,0.0,0.0,0.0,0.0,0.0,0.0,0.0,0.0,0.0,0.0,0.0,0.0,0.0,0.0,0.0,0.0,0.0,0.0,0.0,0.0,0.0,0.0,0.0,0.0,0.0,0.0,0.0,0.0,0.0,0.0,0.0,0.0,0.0,0.0,0.0,0.0,0.0,0.0,0.0,0.0,0.0,0.0,0.0,0.0,0.0,0.0,0.0,0.0,0.0,0.0,0.0,0.0,0.0,0.0,0.0,0.0,0.0,0.0,0.0,0.0,0.0,0.0,0.0,0.0,0.0,0.0,0.0,0.0,0.0,0.0,0.0,0.0,0.0,0.0,0.0,0.0,0.0,0.0,0.0,0.0,0.0,0.0,0.0,0.0,0.0,0.0,0.0,0.0,0.0,0.0,0.0,0.0,0.0,0.0,0.0,0.0,0.0,0.0,0.0,0.0,0.0,0.0,0.0,0.0,0.0,0.0,0.0,0.0,0.0,0.0,0.0,0.0,0.0,0.0,0.0,0.0,0.0,0.0,0.0,0.0,0.0,0.0,0.0,0.0,0.0,0.0,0.0,0.0,0.0,0.0,0.0,0.0,0.0,0.0,0.0,0.0,0.0,0.0,0.0,0.0,0.0,0.0,0.0,0.0,0.0,0.0,0.0,0.0,0.0,0.0,0.0,0.0,0.0,0.0,0.0,0.0,0.0,0.0,0.0,0.0,0.0,0.0,0.0,0.0,0.0,0.0,0.0,0.0,0.0,0.0,0.0,0.0,0.0,0.0,0.0,0.0,0.0,0.0,0.0,0.0,0.0,0.0,0.0,0.0,0.0,0.0,0.0,0.0,0.0,0.0,0.0,0.0,0.0,0.0,0.0,0.0,0.0,0.0,0.0,0.0,0.0,0.0,0.0,0.0,0.0,0.0,0.0,0.0,0.0,0.0,0.0,0.0,0.0,0.0,0.0,0.0,0.0,0.0,0.0,0.0,0.0,0.0,0.0,0.0,0.0,0.0,0.0,0.0,0.0,0.0,0.0,0.0,0.0,0.0,0.0,0.0,0.0,0.0,0.0,0.0,0.0,0.0,0.0,0.0,0.0,0.0,0.0,0.0,0.0,0.0,0.0,0.0,0.0,0.0,0.0,0.0,0.0,0.0,0.0,0.0,0.0,0.0,0.0,0.0,0.0,0.0,0.0,0.0,0.0,0.0,0.0,0.0,0.0,0.0,0.0,0.0,0.0,0.0,0.0,0.0,0.0,0.0,0.0,0.0,0.0,0.0,0.0,0.0,0.0,0.0,0.0,0.0,0.0,0.0,0.0,0.0,0.0,0.0,0.0,0.0,0.0,0.0,0.0,0.0,0.0,0.0,0.0,0.0,0.0,0.0,0.0,0.0,0.0,0.0,0.0,0.0,0.0,0.0,0.0,0.0,0.0,0.0,0.0,0.0,0.0,0.0,0.0,0.0,0.0,0.0,0.0,0.0,0.0,0.0,0.0,0.0,0.0,0.0,0.0,0.0,0.0,0.0,0.0,0.0,0.0,0.0,0.0,0.0,0.0,0.0,0.0,0.0,0.0,0.0,0.0,0.0,0.0,0.0,0.0,0.0,0.0,0.0,0.0,0.0,0.0,0.0,0.0,0.0,0.0,0.0,0.0,0.0,0.0,0.0,0.0,0.0,0.0,0.0,0.0,0.0,0.0,0.0,0.0,0.0,0.0,0.0,0.0,0.0,0.0,0.0,0.0,0.0,0.0,0.0,0.0,0.0,0.0,0.0,0.0,0.0,0.0,0.0,0.0,0.0,0.0,0.0,0.0,0.0,0.0,0.0,0.0,0.0,0.0,0.0,0.0,0.0,0.0,0.0,0.0,0.0,0.0,0.0,0.0,0.0,0.0,0.0,0.0,0.0,0.0,0.0,0.0,0.0,0.0,0.0,0.0,0.0,0.0,0.0,0.0,0.0,0.0,0.0,0.0,0.0,0.0,0.0,0.0,0.0,0.0,0.0,0.0,0.0,0.0,0.0,0.0,0.0,0.0,0.0,0.0,0.0,0.0,0.0,0.0,0.0,0.0,0.0,0.0,0.0,0.0,0.0,0.0,0.0,0.0,0.0,0.0,0.0,0.0,0.0,0.0,0.0,0.0,0.0,0.0,0.0,0.0,0.0,0.0,0.0,0.0,0.0,0.0,0.0,0.0,0.0,0.0,0.0,0.0,0.0,0.0,0.0,0.0,0.0,0.0,0.0,0.0,0.0,0.0,0.0,0.0,0.0,0.0,0.0,0.0,0.0,0.0,0.0,0.0,0.0,0.0,0.0,0.0,0.0,0.0,0.0,0.0,0.0,0.0,0.0,0.0,0.0,0.0,0.0,0.0,0.0,0.0,0.0,0.0,0.0,0.0,0.0,0.0,0.0,0.0,0.0,0.0,0.0,0.0,0.0,0.0,0.0,0.0,0.0,0.0,0.0,0.0,0.0,0.0,0.0,0.0,0.0,0.0,0.0,0.0,0.0,0.0,0.0,0.0,0.0,0.0,0.0,0.0,0.0,0.0,0.0,0.0,0.0,0.0,0.0,0.0,0.0,0.0,0.0,0.0,0.0,0.0,0.0,0.0,0.0,0.0,0.0,0.0,0.0,0.0,0.0,0.0,0.0,0.0,0.0,0.0,0.0,0.0,0.0,0.0,0.0,0.0,0.0,0.0,0.0,0.0,0.0,0.0,0.0,0.0,0.0,0.0,0.0,0.0,0.0,0.0,0.0,0.0,0.0,0.0,0.0,0.0,0.0,0.0,0.0,0.0,0.0,0.0,0.0,0.0,0.0,0.0,0.0,0.0,0.0,0.0,0.0,0.0,0.0,0.0,0.0,0.0,0.0,0.0,0.0,0.0,0.0,0.0,0.0,0.0,0.0,0.0,0.0,0.0,0.0,0.0,0.0,0.0,0.0,0.0,0.0,0.0,0.0,0.0,0.0,0.0,0.0,0.0,0.0,0.0,0.0,0.0,0.0,0.0,0.0,0.0,0.0,0.0,0.0,0.0,0.0,0.0,0.0,0.0,0.0,0.0,0.0,0.0,0.0,0.0,0.0,0.0,0.0,0.0,0.0,0.0,0.0,0.0,0.0,0.0,0.0,0.0,0.0,0.0,0.0,0.0,0.0,0.0,0.0,0.0,0.0,0.0,0.0,0.0,0.0,0.0,0.0,0.0,0.0,0.0,0.0,0.0,0.0,0.0,0.0,0.0,0.0,0.0,0.0,0.0,0.0,0.0,0.0,0.0,0.0,0.0,0.0,0.0,0.0,0.0,0.0,0.0,0.0,0.0,0.0,0.0,0.0,0.0,0.0,0.0,0.0,0.0,0.0,0.0,0.0,0.0,0.0,0.0,0.0,0.0,0.0,0.0,0.0,0.0,0.0,0.0,0.0,0.0,0.0,0.0,0.0,0.0,0.0,0.0,0.0,0.0,0.0,0.0,0.0,0.0,0.0,0.0,0.0,0.0,0.0,0.0,0.0,0.0,0.0,0.0,0.0,0.0,0.0,0.0,0.0,0.0,0.0,0.0,0.0,0.0,0.0,0.0,0.0,0.0,0.0,0.0,0.0,0.0,0.0,0.0,0.0,0.0,0.0,0.0,0.0,0.0,0.0,0.0,0.0,0.0,0.0,0.0,0.0,0.0,0.0,0.0,0.0,0.0,0.0,0.0,0.0,0.0,0.0,0.0,0.0,0.0,0.0,0.0,0.0,0.0,0.0,0.0,0.0,0.0,0.0,0.0,0.0,0.0,0.0,0.0,0.0,0.0,0.0,0.0,0.0,0.0,0.0,0.0,0.0,0.0,0.0,0.0,0.0,0.0,0.0,0.0,0.0,0.0,0.0,0.0,0.0,0.0,0.0,0.0,0.0,0.0,0.0,0.0,0.0,0.0,0.0,0.0,0.0,0.0,0.0,0.0,0.0,0.0,0.0,0.0,0.0,0.0,0.0,0.0,-3.9131,-3.8893,0.0,0.0,0.0,0.0,0.0,0.0,0.0,0.0,0.0,0.0,0.0,0.0,0.0,0.0,0.0,0.0,0.0,0.0,0.0,0.0,0.0,0.0,0.0,0.0,0.0,0.0,0.0,0.0,0.0,0.0,0.0,0.0,0.0,0.0,0.0,0.0,0.0,0.0,0.0,0.0,0.0,0.0,0.0,0.0,0.0,0.0,0.0,0.0,0.0,0.0,0.0,0.0,0.0,0.0,0.0,0.0,0.0,0.0,0.0,0.0,0.0,0.0,0.0,0.0,0.0,0.0,0.0,0.0,0.0,0.0,0.0,0.0,0.0,0.0,0.0,0.0,0.0,0.0,0.0,0.0,0.0,0.0,0.0,0.0,0.0,0.0,0.0,0.0,0.0,0.0,0.0,0.0,0.0,0.0,0.0,0.0,0.0,0.0,0.0,0.0,0.0,0.0,0.0,0.0,0.0,0.0,0.0,0.0,0.0,0.0,0.0,0.0,0.0,0.0,-4.0162,-4.0181,0.0,0.0,0.0,0.0,0.0,0.0,0.0,0.0,0.0,0.0,0.0,0.0,0.0,0.0,0.0,0.0,0.0,0.0,0.0,0.0,0.0,0.0,0.0,0.0,0.0,0.0,0.0,0.0,0.0,0.0,0.0,0.0,0.0,0.0,0.0,0.0,0.0,0.0,0.0,0.0,0.0,0.0,0.0,0.0,0.0,0.0,0.0,0.0,0.0,0.0,0.0,0.0,0.0,0.0,0.0,0.0,0.0,0.0,0.0,0.0,0.0,0.0,0.0,0.0,0.0,0.0,0.0,0.0,0.0,0.0,0.0,0.0,0.0,0.0,0.0,0.0,0.0,0.0,0.0,0.0,0.0,0.0,0.0,0.0,0.0,0.0,0.0,0.0,0.0,0.0,0.0,0.0,0.0,0.0,0.0,0.0,0.0,0.0,0.0,0.0,0.0,0.0,0.0,0.0,0.0,0.0,0.0,0.0,-4.0754,-4.0392,-3.9762,-3.9762,-3.9704,-3.9627,-4.0354,-4.06,-4.0423,-3.9807,0.0,0.0,0.0,0.0,0.0,0.0,0.0,0.0,0.0,0.0,0.0,0.0,0.0,0.0,0.0,0.0,0.0,0.0,0.0,0.0,0.0,0.0,0.0,0.0,0.0,0.0,0.0,0.0,0.0,0.0,0.0,0.0,0.0,0.0,0.0,0.0,0.0,0.0,0.0,0.0,0.0,0.0,0.0,0.0,0.0,0.0,0.0,0.0,0.0,0.0,0.0,0.0,0.0,0.0,0.0,0.0,0.0,0.0,0.0,0.0,0.0,0.0,0.0,0.0,0.0,0.0,0.0,0.0,0.0,0.0,0.0,0.0,0.0,0.0,0.0,0.0,0.0,0.0,0.0,0.0,0.0,0.0,0.0,0.0,0.0,0.0,-3.4084,-3.4085,0.0,0.0,0.0,0.0,0.0,0.0,0.0,0.0,0.0,0.0,0.0,0.0,0.0,-3.9773,-4.0448,-3.9875,-3.9957,-4.0716,-4.06,-4.0469,-4.0373,-4.0373,-4.0373,-4.0354,-4.0469,0.0,-3.9569,-3.9398,0.0,0.0,0.0,0.0,0.0,0.0,0.0,0.0,0.0,0.0,0.0,0.0,0.0,0.0,0.0,0.0,0.0,0.0,0.0,0.0,0.0,0.0,0.0,0.0,0.0,0.0,0.0,0.0,0.0,0.0,0.0,0.0,0.0,0.0,0.0,0.0,0.0,0.0,0.0,0.0,0.0,0.0,0.0,0.0,0.0,0.0,0.0,0.0,0.0,0.0,0.0,0.0,0.0,0.0,0.0,0.0,0.0,0.0,0.0,0.0,0.0,0.0,0.0,0.0,0.0,0.0,0.0,0.0,0.0,0.0,0.0,0.0,0.0,0.0,0.0,0.0,0.0,0.0,0.0,0.0,0.0,0.0,0.0,0.0,0.0,-3.4506,-3.5427,-3.5921,-3.5505,-3.5425,0.0,0.0,0.0,0.0,0.0,0.0,0.0,0.0,0.0,-3.9978,-3.9678,-3.9858,-4.062,-4.0719,-4.0934,-4.1316,-4.1758,-4.195,-4.195,-4.195,-4.195,-4.195,-4.195,-4.1777,-4.1415,-4.0473,-3.9962,-3.9707,0.0,0.0,0.0,0.0,-3.9103,-3.929,0.0,0.0,0.0,0.0,0.0,0.0,0.0,0.0,0.0,0.0,0.0,0.0,0.0,0.0,0.0,0.0,0.0,0.0,0.0,0.0,0.0,0.0,0.0,0.0,0.0,0.0,0.0,0.0,0.0,0.0,0.0,0.0,0.0,0.0,0.0,0.0,0.0,0.0,0.0,0.0,0.0,0.0,0.0,0.0,0.0,0.0,0.0,0.0,0.0,0.0,0.0,0.0,0.0,0.0,0.0,0.0,0.0,0.0,0.0,0.0,0.0,0.0,0.0,0.0,0.0,0.0,0.0,0.0,0.0,0.0,0.0,0.0,0.0,0.0,0.0,0.0,0.0,-3.6188,-3.7095,-3.7742,-3.6853,-3.6626,0.0,0.0,0.0,0.0,0.0,0.0,-3.9529,-3.9141,-3.925,-3.9992,-4.0242,-4.0608,-4.1162,-4.1816,-4.2143,-4.2143,-4.2797,-4.3201,-4.3412,-4.3412,-4.3528,-4.3739,-4.3739,-4.3874,-4.3932,-4.2088,-4.155,-4.1816,-4.1258,-4.0927,-4.0754,-4.0966,-4.1069,-4.1209,0.0,0.0,0.0,0.0,0.0,0.0,0.0,0.0,0.0,0.0,0.0,0.0,0.0,0.0,0.0,0.0,0.0,0.0,0.0,0.0,0.0,0.0,0.0,0.0,0.0,0.0,0.0,0.0,0.0,0.0,0.0,0.0,0.0,0.0,0.0,0.0,0.0,0.0,0.0,0.0,0.0,0.0,0.0,0.0,0.0,0.0,0.0,0.0,0.0,0.0,0.0,0.0,0.0,0.0,0.0,0.0,0.0,0.0,0.0,0.0,0.0,0.0,0.0,0.0,0.0,0.0,0.0,0.0,0.0,0.0,0.0,0.0,0.0,0.0,0.0,0.0,0.0,0.0,0.0,-3.946,-4.0096,0.0,0.0,0.0,0.0,-3.842,-3.8366,-3.8666,-3.9373,-4.015,-4.0918,-4.1662,-4.2489,-4.2931,-4.297,-4.3008,-4.3028,-4.3047,-4.3085,-4.3508,-4.4239,-4.4239,-4.4682,-4.547,-4.547,-4.5932,-4.6509,-4.4008,-4.2527,-4.1797,-4.1758,-4.1239,-4.0604,-4.145,-4.1758,-4.1989,0.0,0.0,0.0,0.0,0.0,0.0,0.0,0.0,0.0,0.0,0.0,0.0,0.0,0.0,0.0,0.0,0.0,0.0,0.0,0.0,0.0,0.0,0.0,0.0,0.0,0.0,0.0,0.0,0.0,0.0,0.0,0.0,0.0,0.0,0.0,0.0,0.0,0.0,0.0,0.0,0.0,0.0,0.0,0.0,0.0,0.0,0.0,0.0,0.0,0.0,0.0,0.0,0.0,0.0,0.0,0.0,0.0,0.0,0.0,0.0,0.0,0.0,0.0,0.0,0.0,0.0,0.0,0.0,0.0,0.0,0.0,0.0,0.0,0.0,0.0,0.0,0.0,0.0,0.0,-4.0364,-4.0084,0.0,-3.9623,-3.9513,-3.9334,-3.9035,-3.9977,-4.0684,-4.0934,-4.1761,-4.2357,-4.2624,-4.3431,-4.3874,-4.3874,-4.4989,-4.5547,-4.5547,-4.6067,-4.6471,-4.6759,-4.6759,-4.6913,-4.7201,-4.7201,-4.7394,-4.7605,-4.6701,-4.6124,-4.5855,-4.5855,-4.5663,-4.5432,-4.574,-4.5855,-4.5951,0.0,0.0,0.0,0.0,0.0,0.0,0.0,0.0,0.0,0.0,0.0,0.0,0.0,0.0,0.0,0.0,0.0,0.0,0.0,0.0,0.0,0.0,0.0,0.0,0.0,0.0,0.0,0.0,0.0,0.0,0.0,0.0,0.0,0.0,0.0,0.0,0.0,0.0,0.0,0.0,0.0,0.0,-3.97,0.0,0.0,0.0,0.0,0.0,0.0,0.0,0.0,0.0,0.0,0.0,0.0,0.0,0.0,0.0,0.0,0.0,0.0,0.0,0.0,0.0,0.0,0.0,0.0,0.0,0.0,0.0,0.0,0.0,0.0,0.0,0.0,0.0,0.0,0.0,-4.08,-4.08,-4.0231,-3.987,-3.9965,-4.0127,-4.0223,-4.0223,-4.1473,-4.2354,-4.2624,-4.347,-4.4085,-4.4374,-4.5163,-4.5586,-4.5586,-4.674,-4.7451,-4.7759,-4.8279,-4.8836,-4.9394,-4.9394,-4.9548,-4.9817,-4.9817,-4.9817,-4.9817,-4.9817,-4.9817,-4.9721,-4.8548,-4.8105,-4.8105,-4.8105,-4.8105,-4.8105,0.0,0.0,0.0,0.0,0.0,0.0,0.0,0.0,0.0,0.0,0.0,0.0,0.0,0.0,0.0,0.0,0.0,0.0,0.0,0.0,0.0,0.0,0.0,0.0,0.0,0.0,0.0,0.0,0.0,0.0,0.0,0.0,0.0,0.0,0.0,0.0,0.0,0.0,0.0,0.0,0.0,0.0,-4.045,0.0,0.0,0.0,0.0,0.0,0.0,0.0,0.0,0.0,0.0,0.0,0.0,0.0,0.0,0.0,0.0,0.0,0.0,0.0,0.0,0.0,0.0,0.0,0.0,0.0,0.0,0.0,0.0,0.0,0.0,0.0,0.0,0.0,-4.074,-4.0784,-4.0793,-4.0793,-4.0754,-4.0735,-4.0735,-4.1412,-4.1854,-4.1893,-4.2701,-4.3528,-4.4335,-4.5201,-4.6067,-4.6913,-4.7759,-4.8182,-4.8182,-4.824,-4.8682,-4.951,-4.951,-5.0375,-5.1952,-5.1952,-5.2414,-5.3203,-5.3203,-5.3203,-5.3203,-5.3203,-5.3203,-5.2876,-4.9548,-4.8259,-4.8259,-4.8259,-4.8259,-4.8259,0.0,0.0,0.0,0.0,0.0,0.0,0.0,0.0,0.0,0.0,0.0,0.0,0.0,0.0,0.0,0.0,0.0,0.0,0.0,0.0,0.0,0.0,0.0,0.0,0.0,0.0,0.0,0.0,0.0,0.0,0.0,0.0,0.0,0.0,0.0,0.0,0.0,0.0,0.0,0.0,0.0,0.0,-3.9623,0.0,0.0,0.0,0.0,0.0,0.0,0.0,0.0,0.0,0.0,0.0,0.0,0.0,0.0,0.0,0.0,0.0,0.0,0.0,0.0,0.0,0.0,0.0,0.0,0.0,0.0,0.0,0.0,0.0,0.0,0.0,0.0,-3.9687,-3.9708,-4.0294,-4.0696,-4.06,-4.1123,-4.1508,-4.1508,-4.2258,-4.2989,-4.3566,-4.4412,-4.5278,-4.6144,-4.6971,-4.7528,-4.7759,-4.9202,-4.999,-4.999,-5.1183,-5.1914,-5.2164,-5.2164,-5.2395,-5.2837,-5.2837,-5.2972,-5.3203,-5.3203,-5.3203,-5.3203,-5.3203,-5.3203,-5.3106,-5.2164,-5.1798,-5.1798,-5.1798,-5.1798,-5.1798,0.0,0.0,0.0,0.0,0.0,0.0,0.0,0.0,0.0,0.0,0.0,0.0,0.0,0.0,0.0,0.0,0.0,0.0,0.0,0.0,0.0,0.0,0.0,0.0,0.0,0.0,0.0,0.0,0.0,0.0,0.0,0.0,0.0,0.0,0.0,0.0,0.0,0.0,0.0,0.0,0.0,0.0,-3.9796,-3.9796,-3.9277,-3.8661,-3.9488,-3.9354,-3.8873,-3.9719,0.0,0.0,0.0,0.0,0.0,0.0,0.0,0.0,0.0,0.0,0.0,0.0,0.0,0.0,0.0,0.0,0.0,0.0,0.0,0.0,0.0,0.0,0.0,0.0,-3.9585,-4.0354,-4.0354,-4.0816,-4.1123,-4.1046,-4.1816,-4.2489,-4.2816,-4.3643,-4.4489,-4.5336,-4.6163,-4.7028,-4.7894,-4.874,-4.9336,-4.9683,-5.1029,-5.1741,-5.1741,-5.2702,-5.3376,-5.3741,-5.3741,-5.3914,-5.4241,-5.4241,-5.4241,-5.4241,-5.4241,-5.4241,-5.4241,-5.4241,-5.4241,-5.4184,0.0,0.0,0.0,0.0,-5.3203,-5.3203,0.0,0.0,0.0,0.0,0.0,0.0,0.0,0.0,0.0,0.0,0.0,0.0,0.0,0.0,0.0,0.0,0.0,0.0,0.0,0.0,0.0,0.0,0.0,0.0,0.0,0.0,0.0,0.0,0.0,0.0,0.0,0.0,0.0,0.0,0.0,0.0,0.0,0.0,0.0,0.0,0.0,0.0,-4.0489,-4.0489,-4.0046,-3.9527,-4.0239,-3.9527,-3.8392,-3.9161,0.0,0.0,0.0,0.0,0.0,0.0,0.0,0.0,0.0,0.0,0.0,0.0,0.0,0.0,0.0,0.0,0.0,0.0,0.0,0.0,0.0,0.0,0.0,0.0,-4.0777,-4.1835,-4.1931,-4.2124,-4.2162,-4.197,-4.2797,-4.3662,-4.4374,-4.5316,-4.624,-4.7124,-4.7932,-4.8779,-4.9644,0.0,0.0,0.0,0.0,-5.3356,-5.3356,-5.3433,-5.3876,-5.4645,-5.4645,-5.5011,-5.5703,-5.5703,-5.5703,-5.5703,-5.5703,-5.5703,-5.5703,-5.5703,-5.5703,-5.5549,-5.4068,-5.3491,-5.3491,-5.3491,-5.3491,-5.3491,0.0,0.0,0.0,0.0,0.0,0.0,0.0,0.0,0.0,0.0,0.0,0.0,0.0,0.0,0.0,0.0,0.0,0.0,0.0,0.0,0.0,0.0,0.0,0.0,0.0,0.0,0.0,0.0,0.0,0.0,0.0,0.0,0.0,0.0,0.0,0.0,0.0,0.0,0.0,0.0,0.0,0.0,-4.0489,-4.0489,-4.0392,-4.0277,-4.0431,-4.0277,-4.0027,-4.02,-4.0258,-4.0258,-4.0258,0.0,0.0,0.0,0.0,0.0,0.0,0.0,0.0,0.0,0.0,0.0,0.0,0.0,0.0,0.0,0.0,0.0,0.0,0.0,0.0,-4.0284,-4.1204,-4.2047,-4.2758,-4.4008,-4.4355,-4.3008,-4.4182,-4.5182,-4.5316,-4.6721,-4.799,-4.8856,-4.9702,-5.0548,-5.1375,-5.2241,-5.2799,-5.2953,-5.3799,-5.4241,-5.4241,-5.4895,-5.5299,-5.5472,-5.5472,0.0,-5.5703,-5.5703,-5.5703,-5.5703,-5.5703,-5.5703,-5.5703,-5.5703,-5.5703,-5.5665,-5.5338,-5.5222,-5.5222,-5.5222,-5.5222,-5.5222,0.0,0.0,0.0,0.0,0.0,0.0,0.0,0.0,0.0,0.0,0.0,0.0,0.0,0.0,0.0,0.0,0.0,0.0,0.0,0.0,0.0,0.0,0.0,0.0,0.0,0.0,0.0,0.0,0.0,0.0,0.0,0.0,0.0,0.0,0.0,0.0,0.0,0.0,0.0,0.0,0.0,0.0,-4.0063,-4.025,-4.0372,-4.0489,-4.0489,-4.0489,-4.0489,-4.0489,-4.0489,-4.0489,-4.0489,-4.0219,-3.9642,0.0,0.0,0.0,0.0,0.0,0.0,0.0,0.0,0.0,0.0,0.0,0.0,0.0,0.0,-3.8257,0.0,0.0,-4.0335,-4.1684,-4.2549,-4.3355,-4.422,-4.5451,-4.5778,-4.4489,-4.5836,-4.7009,-4.7451,-4.8644,-4.974,-5.0587,-5.1452,-5.2125,-5.2529,-5.3376,-5.3857,-5.3857,-5.4664,-5.5107,-5.5107,-5.5491,-5.5703,-5.5703,-5.5703,-5.5703,-5.5703,-5.5703,-5.5703,-5.5703,-5.5703,-5.5703,-5.5703,-5.5703,-5.5703,-5.5703,-5.5703,-5.5703,-5.5703,-5.5703,-5.5703,-5.5703,0.0,0.0,0.0,0.0,0.0,0.0,0.0,0.0,0.0,0.0,0.0,0.0,0.0,0.0,0.0,0.0,0.0,0.0,0.0,0.0,0.0,0.0,0.0,0.0,0.0,0.0,0.0,0.0,0.0,0.0,0.0,0.0,0.0,0.0,0.0,0.0,0.0,0.0,0.0,0.0,0.0,0.0,-3.9622,-3.9901,-4.0195,-4.0441,-4.0473,-4.0489,-4.0489,-4.0489,-4.0489,-4.0489,-4.0489,-4.0489,-4.0162,-3.8488,-3.8507,0.0,0.0,0.0,0.0,0.0,0.0,0.0,0.0,0.0,-3.7507,-3.8527,-3.8738,-3.92,-4.0719,-4.1008,-4.1508,-4.3085,-4.4008,-4.4855,-4.572,-4.674,-4.7124,-4.6413,-4.7528,-4.8682,-4.9567,-5.0433,-5.126,-5.2106,-5.2972,-5.3453,-5.3453,-5.426,-5.4722,-5.4722,-5.5357,-5.5703,-5.5703,-5.5703,-5.5703,-5.5703,-5.5703,-5.5703,-5.5703,-5.5703,-5.5703,-5.5703,-5.5703,-5.5703,-5.5703,-5.5703,-5.5703,-5.5703,-5.5703,-5.5703,-5.5703,-5.5703,-5.5703,-5.5703,0.0,0.0,0.0,0.0,0.0,0.0,0.0,0.0,0.0,0.0,0.0,0.0,0.0,0.0,0.0,0.0,0.0,0.0,0.0,0.0,0.0,0.0,0.0,0.0,0.0,0.0,0.0,0.0,0.0,0.0,0.0,0.0,0.0,0.0,0.0,0.0,0.0,0.0,0.0,0.0,0.0,0.0,-3.9599,-3.9645,-3.9861,-4.0177,-4.0406,-4.0489,-4.0489,-4.0489,-4.0489,-4.0489,-4.0489,-4.0489,-4.0162,-3.8488,0.0,-3.7757,-3.5988,-3.6161,-3.7007,-3.77,-3.7853,-3.8238,0.0,0.0,-3.945,-4.1046,-4.1373,-4.1681,-4.2624,-4.2816,-4.3104,-4.4028,-4.4893,-4.5759,-4.6624,-4.8125,-4.9086,-4.899,-4.9144,-4.9606,-5.0471,-5.1298,-5.2125,-5.2991,-5.3857,-5.4357,-5.4357,-5.5126,-5.5568,-5.5568,-5.5645,-5.5703,-5.5703,-5.5703,-5.5703,-5.5703,-5.5703,-5.5703,-5.5703,-5.5703,-5.5703,-5.5703,-5.5703,-5.5703,-5.5703,-5.5703,-5.5703,-5.5703,-5.5703,-5.5703,-5.5703,-5.5703,-5.5703,-5.5703,0.0,0.0,0.0,0.0,0.0,0.0,0.0,0.0,0.0,0.0,0.0,0.0,0.0,0.0,0.0,0.0,0.0,0.0,0.0,0.0,0.0,0.0,0.0,0.0,0.0,0.0,0.0,0.0,0.0,0.0,0.0,0.0,0.0,0.0,0.0,0.0,0.0,0.0,0.0,0.0,0.0,0.0,-3.9314,-3.9529,-3.9494,-3.9376,-3.9679,-3.9796,0.0,0.0,-3.9796,-3.9796,-3.9796,-3.9796,-3.945,-3.7757,-3.7603,0.0,-3.7757,-3.7584,-3.768,-3.8546,-3.8757,-3.8931,-3.9642,-3.9892,-4.0335,-4.1546,-4.22,-4.2816,-4.3643,-4.3797,-4.4239,0.0,-4.6124,-4.6817,-4.8163,-4.8952,-4.976,-5.0741,-5.0856,-5.101,-5.1356,-5.2626,-5.3568,-5.3933,-5.4722,-5.5203,-5.5203,-5.5511,-5.5703,-5.5703,-5.5703,-5.5703,-5.5703,-5.5703,-5.5703,-5.5703,-5.5703,-5.5703,-5.5703,-5.5703,-5.5972,-5.6453,-5.6453,-5.6742,-5.7203,-5.7203,-5.7203,-5.7203,-5.7203,-5.7203,-5.7088,-5.6069,-5.5703,-5.5703,0.0,0.0,0.0,0.0,0.0,0.0,0.0,0.0,0.0,0.0,0.0,0.0,0.0,0.0,0.0,0.0,0.0,0.0,0.0,0.0,0.0,0.0,0.0,0.0,0.0,0.0,0.0,0.0,0.0,0.0,0.0,0.0,0.0,0.0,0.0,0.0,0.0,0.0,0.0,0.0,0.0,0.0,-3.9088,-3.912,-3.895,-3.8727,-3.9059,-3.9026,0.0,0.0,-3.8834,-3.885,-3.8916,-3.8931,-3.8642,-3.7142,-3.6988,-3.7507,-3.8354,-3.8296,-3.82,-3.9084,-3.9642,-3.9988,-3.9988,-4.0623,-4.145,-4.2316,-4.2989,-4.3682,-4.4509,-4.4855,-4.5432,-4.6701,-4.7298,-4.8009,-4.9221,-4.9798,-5.0548,-5.176,-5.2318,-5.2626,-5.2626,-5.376,-5.4587,-5.4799,-5.5376,-5.5703,-5.5703,-5.5703,-5.5703,-5.5703,-5.5703,-5.5703,-5.5703,-5.5703,-5.5703,-5.5703,-5.5703,-5.5818,-5.6069,-5.6299,-5.6761,-5.7357,-5.7357,-5.7723,-5.83,-5.83,-5.83,-5.83,-5.83,-5.83,-5.8146,-5.6876,-5.6415,-5.6415,0.0,0.0,0.0,0.0,0.0,0.0,0.0,0.0,0.0,0.0,0.0,0.0,0.0,0.0,0.0,0.0,0.0,0.0,0.0,0.0,0.0,0.0,0.0,0.0,0.0,0.0,0.0,0.0,0.0,0.0,0.0,0.0,0.0,0.0,0.0,0.0,0.0,0.0,0.0,0.0,0.0,0.0,-3.9005,-3.8249,-3.8158,-3.8458,-3.8785,0.0,0.0,0.0,-3.7639,-3.7693,-3.7947,-3.8046,0.0,-3.6969,-3.618,-3.5757,-3.6565,-3.7373,-3.82,-3.9084,-4.0527,-4.172,-4.172,-4.2393,-4.3258,-4.4066,-4.4239,-4.4528,-4.5393,-4.6259,-4.6836,-4.6894,-4.8259,-4.9336,-4.9394,-5.0798,-5.1856,-5.1895,-5.3395,-5.4414,0.0,-5.4472,-5.4818,-5.5588,-5.5684,-5.5703,-5.5703,-5.5703,-5.5703,-5.5703,-5.5703,-5.5703,-5.5703,-5.5703,-5.5703,-5.5703,-5.5703,-5.6126,-5.6973,-5.7838,-5.8242,-5.8261,-5.8261,-5.828,-5.83,-5.83,-5.83,-5.83,-5.83,-5.83,-5.83,-5.8242,-5.8223,-5.8223,0.0,0.0,0.0,0.0,0.0,0.0,0.0,0.0,0.0,0.0,0.0,0.0,0.0,0.0,0.0,0.0,0.0,0.0,0.0,0.0,0.0,0.0,0.0,0.0,0.0,0.0,0.0,0.0,0.0,0.0,0.0,0.0,0.0,0.0,0.0,0.0,0.0,0.0,0.0,0.0,0.0,0.0,-3.9061,-3.8782,-3.8227,-3.7524,0.0,0.0,0.0,0.0,0.0,0.0,-3.6578,0.0,-3.6744,-3.608,-3.6103,-3.6488,-3.7334,-3.82,-3.92,-4.0604,-4.1393,-4.195,-4.2527,-4.3297,-4.397,-4.4239,-4.4759,-4.524,-4.5547,-4.6317,-4.7067,-4.7605,-4.8644,-4.9606,-5.0183,-5.1221,-5.2125,-5.2702,-5.3799,0.0,0.0,0.0,0.0,-5.5684,-5.5703,-5.5703,-5.5703,-5.5703,-5.5703,-5.5703,-5.5703,-5.5703,-5.5703,-5.5703,-5.5992,-5.6569,-5.7146,-5.7588,-5.7877,-5.8165,-5.8588,-5.9108,-5.9108,-5.9415,-5.9954,-5.9954,-5.9954,-5.9954,-5.9954,-5.9954,-5.9954,-5.9954,-5.9954,-5.98,0.0,0.0,0.0,0.0,0.0,0.0,0.0,0.0,0.0,0.0,0.0,0.0,0.0,0.0,0.0,0.0,0.0,0.0,0.0,0.0,0.0,0.0,0.0,0.0,0.0,0.0,0.0,0.0,0.0,0.0,0.0,0.0,0.0,0.0,0.0,0.0,0.0,0.0,0.0,0.0,0.0,0.0,-3.8442,-3.7849,-3.7091,0.0,0.0,0.0,0.0,0.0,0.0,0.0,0.0,-3.5666,-3.588,-3.5931,-3.6295,-3.6969,-3.8142,-3.9084,-4.0065,-4.145,-4.2258,-4.2835,-4.3393,-4.4162,-4.4759,-4.4759,-4.5201,-4.5586,-4.5586,-4.6547,-4.7413,-4.7625,-4.8644,-4.9606,-5.0164,-5.1202,-5.2222,-5.3106,-5.4222,-5.5126,0.0,0.0,0.0,-5.5703,-5.5703,-5.5703,-5.5703,-5.5703,-5.5703,-5.5703,-5.5703,-5.5703,-5.5703,-5.5703,-5.6126,-5.6992,-5.8165,-5.8723,-5.8742,-5.905,-5.9473,-5.9954,-5.9954,-6.0281,-6.08,-6.08,-6.08,-6.08,-6.08,-6.08,-6.08,-6.08,-6.08,-6.0646,0.0,0.0,0.0,0.0,0.0,0.0,0.0,0.0,0.0,0.0,0.0,0.0,0.0,0.0,0.0,0.0,0.0,0.0,0.0,0.0,0.0,0.0,0.0,0.0,0.0,0.0,0.0,0.0,0.0,0.0,0.0,0.0,0.0,0.0,0.0,0.0,0.0,0.0,0.0,0.0,0.0,0.0,-3.7239,-3.5679,0.0,0.0,0.0,0.0,0.0,0.0,0.0,0.0,-3.4727,-3.5021,-3.5441,-3.6469,-3.6796,-3.7199,-3.8892,-3.995,-4.0777,-4.17,-4.3124,-4.4316,-4.4355,-4.5009,-4.5586,-4.5528,-4.5528,-4.5509,0.0,0.0,-4.7798,-4.7028,-4.8336,-4.9471,-4.9471,-5.0914,-5.2279,0.0,0.0,0.0,0.0,0.0,0.0,-5.5703,0.0,-5.5703,-5.5703,-5.5703,-5.5703,-5.5703,-5.5703,-5.5703,-5.5703,-5.578,-5.6261,-5.7146,-5.8781,-5.9569,-5.9588,-6.0416,-6.08,-6.08,-6.08,-6.08,-6.08,-6.08,-6.08,-6.08,-6.08,-6.08,-6.08,-6.08,-6.08,-6.08,0.0,0.0,0.0,0.0,0.0,0.0,0.0,0.0,0.0,0.0,0.0,0.0,0.0,0.0,0.0,0.0,0.0,0.0,0.0,0.0,0.0,0.0,0.0,0.0,0.0,0.0,0.0,0.0,0.0,0.0,0.0,0.0,0.0,0.0,0.0,0.0,0.0,0.0,0.0,0.0,0.0,0.0,-3.656,0.0,0.0,0.0,0.0,0.0,0.0,0.0,0.0,0.0,-3.6559,-3.6917,-3.7063,-3.7525,-3.8123,-3.8854,-3.9912,-4.0816,-4.1816,-4.3297,-4.397,-4.447,-4.5124,-4.5432,-4.5413,-4.4759,-4.4624,-4.4451,0.0,0.0,0.0,-4.6932,-4.8856,0.0,-5.0356,-5.1818,0.0,-5.3164,0.0,-5.5703,-5.5703,-5.5703,0.0,0.0,-5.5703,-5.5703,-5.5703,-5.5703,-5.5703,-5.5703,-5.5703,-5.5703,-5.5703,-5.6992,-5.805,-5.8877,-5.9954,-6.0473,-6.0473,-6.0704,-6.08,-6.08,-6.08,-6.08,-6.08,-6.08,-6.08,-6.08,-6.08,-6.08,-6.08,-6.08,-6.08,-6.08,0.0,0.0,0.0,0.0,0.0,0.0,0.0,0.0,0.0,0.0,0.0,0.0,0.0,0.0,0.0,0.0,0.0,0.0,0.0,0.0,0.0,0.0,0.0,0.0,0.0,0.0,0.0,0.0,0.0,0.0,0.0,0.0,0.0,0.0,0.0,0.0,0.0,0.0,0.0,0.0,0.0,0.0,0.0,0.0,0.0,0.0,0.0,0.0,0.0,0.0,0.0,-3.6589,-3.7375,-3.76,-3.7731,-3.8385,0.0,-3.9546,-4.0739,-4.172,-4.2681,-4.397,-4.4586,-4.4893,-4.5009,-4.5028,-4.4778,-4.3951,-4.3778,-4.3643,-4.3181,-4.4874,0.0,0.0,0.0,0.0,-5.0067,-5.126,-5.2375,0.0,-5.4376,0.0,-5.5665,-5.5703,-5.5703,0.0,-5.5703,-5.5703,-5.5703,-5.5703,-5.5703,-5.5703,-5.5703,-5.5876,-5.6261,-5.7627,-5.8704,-5.9511,-6.0377,-6.08,-6.08,-6.08,-6.08,-6.08,-6.08,-6.08,-6.08,-6.08,-6.08,-6.08,-6.08,-6.08,-6.08,-6.08,-6.08,-6.08,0.0,0.0,0.0,0.0,0.0,0.0,0.0,0.0,0.0,0.0,0.0,0.0,0.0,0.0,0.0,0.0,0.0,0.0,0.0,0.0,0.0,0.0,0.0,0.0,0.0,0.0,0.0,0.0,0.0,0.0,0.0,0.0,0.0,0.0,0.0,0.0,0.0,0.0,0.0,0.0,0.0,0.0,0.0,0.0,0.0,0.0,0.0,0.0,0.0,0.0,-3.7585,-3.7545,-3.7888,-3.798,-3.8167,-3.9173,-3.945,-3.9796,-4.1373,-4.245,-4.3297,-4.4105,-4.4951,-4.5355,-4.4489,-4.4297,-4.4047,-4.3124,-4.2931,-4.2893,-4.2777,-4.4124,-4.5297,-4.5413,0.0,-4.8394,-4.9279,-5.024,-5.1433,-5.301,-5.3972,-5.4818,-5.5607,-5.5703,-5.5703,-5.5703,-5.5703,-5.5703,-5.5703,-5.5703,-5.5703,-5.5703,-5.5703,-5.6165,-5.7146,-5.7915,-5.8761,-5.9685,-6.0435,-6.08,-6.08,-6.08,-6.08,-6.08,-6.08,-6.08,-6.08,-6.08,-6.08,-6.08,-6.08,-6.08,-6.08,-6.08,-6.08,-6.08,0.0,0.0,0.0,0.0,0.0,0.0,0.0,0.0,0.0,0.0,-2.3681,-2.3767,0.0,0.0,0.0,0.0,0.0,0.0,0.0,0.0,0.0,0.0,0.0,0.0,0.0,0.0,0.0,0.0,0.0,0.0,0.0,0.0,0.0,0.0,0.0,0.0,0.0,0.0,0.0,0.0,0.0,0.0,0.0,0.0,0.0,0.0,0.0,0.0,0.0,0.0,-3.8389,-3.9048,-3.9769,-3.9999,-4.0034,-4.0239,-4.0277,-4.0508,-4.1527,-4.245,-4.3297,-4.4105,-4.4951,-4.5355,-4.4489,-4.4297,0.0,0.0,-4.2027,-4.1816,-4.1085,-4.2374,-4.3739,-4.4412,-4.6547,-4.8394,-4.9279,-5.0721,-5.2068,0.0,-5.3972,-5.4818,-5.5607,-5.5703,0.0,0.0,-5.5703,-5.5703,-5.5703,-5.5703,-5.5703,-5.5703,-5.5703,-5.6453,-5.8069,-5.8223,-5.9069,-6.0569,-6.0723,-6.08,-6.08,-6.08,-6.08,-6.08,-6.08,-6.08,-6.08,-6.08,-6.08,-6.08,-6.08,-6.08,-6.08,-6.08,-6.08,-6.08,0.0,0.0,0.0,0.0,0.0,0.0,0.0,0.0,-2.3595,-2.3595,-2.3595,-2.3595,-2.3595,-2.3837,0.0,0.0,0.0,0.0,0.0,0.0,0.0,0.0,0.0,0.0,0.0,0.0,-2.6691,-2.6691,0.0,0.0,0.0,0.0,0.0,0.0,0.0,0.0,0.0,0.0,0.0,0.0,0.0,0.0,0.0,0.0,0.0,0.0,0.0,0.0,0.0,0.0,-3.82,-3.9431,-4.0239,-4.0489,-4.0489,-4.0489,-4.0489,-4.0681,-4.1566,-4.2104,-4.2739,-4.3989,-4.4605,-4.4701,-4.3874,0.0,0.0,0.0,-4.1123,-4.0989,-4.0566,-4.1546,0.0,-4.3547,-4.5817,-4.7778,-4.8606,-5.0202,-5.176,-5.3049,-5.3568,-5.4318,-5.5568,-5.5703,-5.5703,-5.5703,-5.5703,-5.5703,-5.5703,-5.5703,-5.5703,-5.5703,-5.5703,-5.653,-5.828,-5.83,-5.9146,-6.08,-6.08,-6.08,-6.08,-6.08,-6.08,-6.08,-6.08,-6.08,-6.08,-6.08,-6.08,-6.08,-6.08,-6.08,-6.08,-6.08,-6.08,-6.08,0.0,0.0,0.0,0.0,0.0,0.0,0.0,-2.3595,-2.3595,-2.3595,-2.3595,-2.3595,-2.3595,-2.3991,-2.4074,0.0,0.0,0.0,0.0,0.0,0.0,0.0,0.0,0.0,0.0,0.0,0.0,-2.6691,-2.6691,0.0,0.0,0.0,0.0,0.0,-2.87,0.0,0.0,0.0,0.0,0.0,0.0,0.0,0.0,0.0,0.0,0.0,0.0,0.0,0.0,0.0,-3.7603,-3.8892,-3.97,-4.0085,-4.0239,-4.0239,-4.0239,-4.0431,-4.1296,-4.1662,-4.2162,-4.3662,-4.4162,-4.4085,-4.3278,-4.3104,0.0,-4.0854,-4.0489,-4.0489,-4.0489,-4.1066,-4.1816,0.0,-4.4797,-4.6701,-4.7702,-4.9336,-5.1029,0.0,-5.3087,0.0,-5.5299,-5.5588,0.0,-5.5703,-5.5703,-5.5703,-5.5703,-5.5703,-5.5703,-5.5703,-5.5703,-5.653,-5.828,-5.83,-5.9146,-6.08,-6.08,-6.08,-6.08,-6.08,-6.08,-6.08,-6.08,-6.08,-6.08,-6.08,-6.08,-6.08,-6.08,-6.08,-6.08,-6.08,-6.08,-6.08,0.0,0.0,0.0,0.0,0.0,0.0,0.0,-2.3595,-2.3595,-2.3595,-2.3595,-2.3595,-2.3595,-2.3638,-2.3638,0.0,0.0,0.0,0.0,0.0,0.0,0.0,0.0,0.0,0.0,0.0,0.0,-2.6691,-2.6691,0.0,0.0,0.0,0.0,0.0,0.0,-2.8658,-2.8994,0.0,0.0,0.0,0.0,0.0,0.0,0.0,0.0,0.0,0.0,0.0,0.0,0.0,0.0,-3.7084,-3.7969,-3.8777,-3.9411,-3.9411,0.0,0.0,-4.0392,-4.12,-4.2027,-4.297,-4.3758,-4.4085,-4.3278,0.0,-4.2604,-4.0854,-4.0489,-4.0489,-4.0489,-4.0566,-4.0893,0.0,0.0,-4.5124,-4.6778,-4.8452,-5.0144,-5.1818,0.0,0.0,-5.4511,-5.5261,-5.5703,-5.5703,-5.5703,-5.5703,-5.5703,-5.5703,-5.5703,-5.5703,-5.5703,-5.653,-5.828,-5.83,-5.9146,-6.08,-6.08,-6.08,-6.08,-6.08,-6.08,-6.08,-6.08,-6.08,-6.08,-6.08,-6.08,-6.08,-6.08,-6.08,-6.08,-6.08,-6.08,-6.08,0.0,0.0,0.0,0.0,0.0,0.0,-2.3595,-2.3595,-2.3595,-2.3595,-2.3595,-2.3595,-2.3595,-2.3595,-2.3595,0.0,0.0,0.0,0.0,0.0,0.0,0.0,0.0,0.0,0.0,0.0,-2.6691,-2.6691,-2.6691,0.0,0.0,0.0,0.0,0.0,0.0,-2.8839,-2.8994,0.0,0.0,0.0,0.0,0.0,0.0,0.0,0.0,0.0,0.0,0.0,0.0,0.0,0.0,0.0,-3.6546,-3.7065,0.0,0.0,-3.9296,-3.9469,-4.0277,-4.0739,-4.1354,-4.2758,-4.2951,-4.2854,-4.3047,0.0,-4.197,-4.0739,-4.0489,-4.0489,-4.0489,-4.0489,-4.0604,0.0,0.0,0.0,-4.524,-4.7682,-4.9837,-5.1048,-5.2375,0.0,0.0,0.0,-5.5703,-5.5703,-5.5703,-5.5703,-5.5703,-5.5703,-5.5703,-5.5703,-5.5703,-5.628,-5.7511,-5.805,-5.8877,-6.0012,-6.055,-6.08,-6.08,-6.08,-6.08,-6.08,-6.08,-6.08,-6.08,-6.08,-6.08,-6.08,-6.08,-6.08,-6.08,-6.08,-6.08,-6.08,0.0,0.0,0.0,0.0,0.0,-2.3377,-2.3551,-2.3595,-2.3595,-2.3595,-2.3595,-2.3595,-2.3595,-2.3595,-2.3595,-2.3595,0.0,0.0,0.0,0.0,0.0,0.0,0.0,0.0,0.0,0.0,-2.6873,-2.6873,-2.7004,-2.7348,0.0,0.0,-2.8334,-2.8839,0.0,0.0,0.0,0.0,0.0,0.0,0.0,0.0,0.0,0.0,0.0,0.0,0.0,0.0,0.0,0.0,0.0,0.0,0.0,0.0,0.0,0.0,-3.87,-3.9104,-3.9912,-4.0315,-4.0854,-4.2335,-4.2258,-4.197,0.0,0.0,-4.1546,-4.0681,-4.0489,-4.0489,-4.0489,-4.0489,-4.0489,0.0,0.0,-4.3739,-4.422,-4.6605,-4.8682,0.0,0.0,-5.2799,0.0,-5.4934,-5.5703,-5.5703,-5.5703,-5.5703,-5.5703,-5.5703,-5.5703,-5.5703,-5.5703,-5.6107,-5.6973,-5.7857,-5.8704,-5.9511,-6.0377,-6.08,-6.08,-6.08,-6.08,-6.08,-6.08,-6.08,-6.08,-6.08,-6.08,-6.08,-6.08,-6.08,-6.08,-6.08,-6.08,-6.08,0.0,0.0,0.0,0.0,0.0,0.0,0.0,-2.3595,-2.3595,-2.3595,-2.3595,-2.3595,-2.3595,-2.3595,-2.3595,-2.3595,0.0,0.0,0.0,0.0,0.0,0.0,0.0,0.0,0.0,0.0,-2.7286,-2.7286,-2.7678,-2.7897,-2.7897,-2.8237,-2.8394,-2.842,0.0,0.0,0.0,0.0,0.0,0.0,0.0,0.0,0.0,0.0,0.0,0.0,0.0,0.0,0.0,0.0,0.0,0.0,0.0,0.0,0.0,0.0,-3.7334,-3.82,-3.9084,-3.9892,-4.07,-4.1585,-4.1816,-4.1797,0.0,0.0,-4.1546,-4.0681,-4.0489,-4.0489,-4.0489,-4.0489,-4.0489,-4.0489,0.0,0.0,-4.4066,-4.5066,-4.6259,0.0,0.0,-5.1029,-5.1856,-5.4222,-5.5703,-5.5703,-5.5703,0.0,-5.5703,-5.5703,-5.5703,-5.5703,-5.5703,-5.6107,-5.6973,-5.7857,-5.8704,-5.9511,-6.0377,-6.08,-6.08,-6.08,-6.08,-6.08,-6.08,-6.08,0.0,-6.08,-6.08,-6.08,-6.08,-6.08,-6.08,-6.08,-6.08,-6.08,0.0,0.0,0.0,0.0,0.0,0.0,0.0,-2.3595,-2.3595,-2.3595,-2.3595,-2.3595,-2.3595,-2.3595,-2.3595,-2.3595,0.0,0.0,0.0,0.0,0.0,0.0,0.0,0.0,0.0,0.0,-2.7439,-2.7707,-2.784,-2.8037,-2.8219,-2.8368,-2.854,-2.8815,-2.8952,-2.9089,0.0,0.0,0.0,0.0,0.0,0.0,0.0,0.0,0.0,0.0,0.0,0.0,0.0,0.0,0.0,0.0,0.0,0.0,0.0,0.0,0.0,0.0,-3.8161,-3.8604,-3.8988,-3.9873,-3.9642,-3.9508,-4.0642,0.0,-4.0162,-4.0431,-4.0489,-4.0489,-4.0489,-4.0489,-4.0489,-4.0489,-4.1239,0.0,0.0,0.0,0.0,-4.7971,-5.0644,-5.2953,0.0,0.0,-5.5703,-5.5703,-5.5703,-5.5703,-5.5703,-5.5703,-5.5703,-5.5703,-5.5703,-5.5818,-5.6107,-5.6973,-5.753,-5.78,-5.9223,-5.9915,-5.9935,-6.0531,-6.08,-6.08,-6.08,-6.08,-6.08,-6.08,-6.08,-6.08,-6.08,-6.08,-6.08,-6.08,-6.08,-6.08,0.0,0.0,0.0,0.0,0.0,0.0,0.0,-2.3445,-2.3595,-2.3595,-2.3595,-2.3595,-2.3595,-2.3794,-2.3906,-2.3906,0.0,0.0,0.0,0.0,0.0,0.0,0.0,0.0,0.0,-2.7439,-2.7707,-2.8075,-2.8255,-2.8412,-2.8633,-2.8633,-2.8749,-2.8994,-2.8994,-2.9156,0.0,0.0,0.0,0.0,0.0,0.0,-3.3449,0.0,0.0,0.0,0.0,0.0,0.0,0.0,0.0,0.0,0.0,0.0,0.0,0.0,-3.5892,0.0,0.0,-3.7757,-3.8123,-3.8661,-3.8642,0.0,0.0,0.0,0.0,-4.0392,-4.0489,-4.0489,-4.0489,-4.0489,-4.0489,-4.0489,-4.095,0.0,0.0,0.0,0.0,-4.8836,0.0,0.0,0.0,-5.5511,-5.5703,-5.5703,-5.5703,-5.5703,-5.5703,-5.5703,-5.5703,-5.5703,-5.5703,-5.5703,-5.5703,-5.6549,-5.6992,-5.7011,-5.8396,-5.9204,-5.9511,-6.0069,-6.0492,-6.08,-6.08,-6.08,0.0,-6.08,-6.08,-6.08,-6.08,-6.08,-6.08,-6.08,-6.08,-6.08,0.0,0.0,0.0,0.0,0.0,0.0,0.0,0.0,-2.3595,-2.3595,-2.3595,-2.3595,-2.3638,-2.4116,-2.443,-2.4471,0.0,0.0,0.0,0.0,0.0,0.0,0.0,0.0,0.0,-2.7736,-2.8102,-2.8446,-2.8815,-2.8994,-2.8994,-2.8994,-2.8994,-2.8994,-2.8994,-2.9156,-2.9454,-2.9921,-3.0718,-3.1718,-3.1833,-3.2814,0.0,0.0,0.0,0.0,0.0,0.0,0.0,0.0,0.0,0.0,0.0,0.0,0.0,0.0,0.0,0.0,0.0,-3.7219,-3.7815,-3.7815,-3.8469,0.0,0.0,0.0,0.0,0.0,0.0,-4.0489,-4.0489,-4.0489,-4.0489,-4.0489,-4.0546,0.0,0.0,-4.4509,0.0,0.0,-5.151,0.0,-5.4337,-5.5222,-5.5703,-5.5703,-5.5703,-5.5703,-5.5703,-5.5703,-5.5703,-5.5703,-5.5703,-5.5703,-5.5703,-5.6492,-5.6896,-5.6915,-5.778,-5.8607,-5.9319,-5.9396,-5.9858,-6.0627,-6.0685,-6.0704,-6.0704,-6.0762,-6.08,-6.08,-6.08,-6.08,-6.08,-6.08,-6.08,-6.08,0.0,0.0,0.0,0.0,0.0,0.0,0.0,0.0,0.0,0.0,-2.3595,-2.3767,-2.4158,-2.4307,-2.4592,0.0,0.0,0.0,0.0,0.0,0.0,0.0,0.0,0.0,0.0,-2.8219,-2.8464,-2.8863,-2.8952,-2.8994,-2.8994,-2.8994,-2.8994,-2.8994,-2.8994,-2.9228,-2.9717,-3.0835,-3.1469,-3.1814,-3.3103,-3.3853,0.0,0.0,0.0,0.0,-3.5493,-3.5545,0.0,0.0,0.0,0.0,0.0,0.0,0.0,0.0,-3.5603,-3.5641,-3.5815,0.0,-3.6103,-3.6103,-3.6699,-3.7488,0.0,0.0,0.0,0.0,0.0,0.0,0.0,0.0,0.0,-4.0489,0.0,-4.2143,-4.4047,0.0,0.0,-5.1356,-5.2375,-5.3318,-5.4395,-5.5222,-5.5703,-5.5703,-5.5703,-5.5703,-5.5703,-5.5703,-5.5703,-5.5703,-5.5703,-5.5703,-5.5703,-5.5895,-5.6011,-5.6011,-5.6876,-5.7396,-5.7607,-5.828,-5.8684,-5.8915,-5.9531,-5.9819,-5.9858,-6.0531,-6.08,-6.08,-6.08,-6.08,-6.08,-6.08,-6.08,-6.08,0.0,0.0,0.0,0.0,0.0,0.0,0.0,0.0,0.0,0.0,0.0,0.0,0.0,0.0,0.0,0.0,0.0,0.0,0.0,0.0,0.0,0.0,0.0,0.0,-2.8376,-2.8394,-2.8608,-2.8994,-2.8994,-2.8994,-2.8994,-2.8994,-2.8994,-2.9017,-2.9228,-2.9739,-3.0503,-3.1333,-3.2141,-3.2929,-3.3833,0.0,0.0,0.0,0.0,0.0,-3.5493,-3.5545,0.0,-3.5526,-3.5622,-3.5718,0.0,0.0,0.0,0.0,-3.5648,-3.5626,-3.5566,-3.5545,-3.5493,-3.5493,-3.6411,-3.743,0.0,0.0,0.0,0.0,0.0,0.0,0.0,0.0,0.0,0.0,-4.1873,0.0,0.0,0.0,-4.9567,-5.1664,-5.2318,-5.326,0.0,-5.5434,-5.5703,-5.5703,-5.5703,-5.5703,-5.5703,-5.5703,-5.5703,-5.5703,-5.5703,-5.5703,-5.5703,-5.5703,-5.5703,-5.5703,-5.6184,-5.6607,-5.7011,-5.7492,-5.7915,-5.8319,-5.8761,-5.8954,-5.8992,-5.9454,-5.9877,-6.0204,-6.0204,-6.0454,-6.08,-6.08,-6.08,-6.08,0.0,0.0,0.0,0.0,0.0,0.0,0.0,0.0,0.0,0.0,0.0,0.0,0.0,0.0,0.0,0.0,0.0,0.0,0.0,0.0,0.0,0.0,0.0,-2.7747,-2.8471,-2.8471,-2.8658,-2.8994,-2.8994,-2.8994,-2.8994,-2.9044,-2.9089,-2.9138,-2.9701,-3.0449,-3.1325,-3.1853,-3.2891,-3.4199,-3.4334,0.0,0.0,0.0,0.0,0.0,0.0,0.0,0.0,-3.5545,-3.5699,-3.5886,-3.5746,0.0,0.0,0.0,0.0,0.0,-3.5547,-3.5699,-3.5853,-3.5738,-3.6873,-3.8046,-3.818,0.0,0.0,0.0,0.0,0.0,0.0,-4.1181,0.0,0.0,0.0,0.0,-4.7028,-4.799,-4.9336,-5.1645,-5.2029,0.0,-5.528,-5.5626,-5.5703,-5.5703,-5.5703,-5.5703,-5.5703,-5.5703,-5.5703,-5.5703,-5.5703,-5.5703,-5.5703,-5.5703,-5.5703,-5.5703,-5.5703,-5.6088,-5.6799,-5.6799,-5.7203,-5.7915,-5.805,0.0,-5.8107,-5.8261,-5.8704,-5.9319,-5.9319,-5.9762,-6.0435,-6.055,-6.0589,-6.0608,0.0,0.0,0.0,0.0,0.0,0.0,0.0,0.0,0.0,0.0,0.0,0.0,0.0,0.0,0.0,0.0,0.0,0.0,0.0,0.0,0.0,0.0,-2.7811,-2.8147,-2.8905,-2.8905,-2.8929,-2.8994,-2.8994,-2.8994,-2.9017,-2.9225,-2.9415,-2.9644,-3.062,-3.1161,-3.1401,-3.3094,-3.3949,-3.4257,-3.5007,0.0,0.0,0.0,0.0,0.0,0.0,0.0,0.0,-3.5622,-3.5738,-3.5868,-3.5736,0.0,0.0,0.0,0.0,0.0,-3.5617,-3.6584,-3.7469,-3.6843,-3.7348,-3.82,-3.9003,0.0,0.0,0.0,0.0,0.0,0.0,-4.1104,-4.0893,0.0,0.0,-4.624,0.0,0.0,-5.0702,-5.1779,0.0,-5.3433,-5.4568,-5.5299,-5.5703,-5.5703,-5.5703,-5.5703,-5.5703,-5.5703,-5.5703,-5.5703,-5.5703,-5.5703,-5.5703,-5.5703,-5.5703,-5.5703,-5.5703,-5.5761,-5.5895,-5.5895,-5.5972,-5.6145,0.0,-5.7203,-5.7261,-5.7992,-5.8377,-5.8492,-5.8492,-5.8569,-5.8781,-5.9454,-5.9704,-5.9819,0.0,0.0,0.0,0.0,0.0,0.0,0.0,0.0,0.0,0.0,0.0,0.0,0.0,0.0,0.0,0.0,0.0,0.0,0.0,0.0,0.0,-2.7869,-2.7897,-2.8246,-2.8994,-2.8994,-2.8994,-2.8994,-2.9156,-2.9222,-2.9225,-2.9455,-2.9923,-3.0579,-3.1089,-3.1881,-3.2938,-3.3826,-3.4468,-3.4949,0.0,0.0,0.0,0.0,0.0,0.0,0.0,0.0,0.0,0.0,-3.5755,-3.5937,-3.5844,0.0,0.0,0.0,0.0,0.0,-3.5622,-3.6483,-3.7541,-3.8108,-3.9165,-4.0162,-4.0585,0.0,0.0,0.0,0.0,0.0,0.0,0.0,-4.2624,-4.4836,0.0,-4.7028,-4.9106,-4.9336,-4.9933,0.0,0.0,-5.3203,-5.4972,-5.5472,-5.5703,-5.5703,-5.5703,-5.5703,-5.5703,-5.5703,-5.5703,-5.5703,-5.5703,-5.5703,-5.5703,-5.5703,-5.5703,-5.5703,-5.5703,-5.5703,-5.5703,-5.5703,-5.5703,-5.5722,0.0,-5.6299,-5.6319,-5.6722,-5.7165,-5.7588,-5.7588,-5.7896,-5.8338,-5.8723,-5.8858,-5.8973,0.0,0.0,0.0,0.0,0.0,0.0,0.0,0.0,0.0,0.0,0.0,0.0,0.0,0.0,0.0,0.0,0.0,0.0,0.0,0.0,-2.7192,-2.7964,-2.8037,-2.8334,-2.8994,-2.8994,-2.8994,-2.8994,-2.9267,-2.9454,-2.9551,-2.9921,-3.0557,-3.1403,-3.1785,-3.2809,-3.4199,-3.441,-3.4891,-3.5493,0.0,0.0,0.0,0.0,0.0,0.0,0.0,0.0,0.0,0.0,0.0,0.0,0.0,0.0,0.0,-3.5875,-3.58,-3.5781,-3.5888,-3.6708,-3.7891,-3.9341,-4.0485,-4.1377,-4.1989,-4.247,0.0,0.0,0.0,0.0,0.0,-4.2797,0.0,-4.7336,-4.7471,-4.7778,-4.9471,-4.9125,-4.9586,-5.1933,-5.2202,-5.3126,-5.5472,-5.5703,-5.5703,-5.5703,-5.5703,-5.5703,-5.5703,-5.5703,-5.5703,-5.5703,-5.5703,-5.5703,-5.5703,-5.5703,-5.5703,-5.5703,-5.5703,-5.5703,-5.5703,-5.5703,-5.5703,-5.5703,-5.5703,-5.5703,-5.5703,-5.5703,-5.6088,-5.6684,-5.6684,-5.7223,-5.7992,-5.7992,-5.8127,-5.8396,0.0,0.0,0.0,0.0,0.0,0.0,0.0,0.0,0.0,0.0,0.0,0.0,0.0,0.0,0.0,0.0,0.0,0.0,0.0,0.0,-2.7572,-2.8324,-2.835,-2.8565,-2.8994,-2.8994,-2.8994,-2.8994,-2.9267,-2.9589,-2.9954,-3.0803,-3.136,-3.1731,-3.3301,-3.4083,-3.4237,-3.5064,-3.5449,-3.5493,-3.5493,0.0,0.0,0.0,0.0,0.0,0.0,0.0,0.0,0.0,0.0,0.0,0.0,0.0,-3.5955,-3.5763,-3.5798,-3.601,-3.664,-3.8078,-3.9605,-4.0419,-4.0095,0.0,-4.2549,-4.2453,0.0,-4.2854,0.0,0.0,0.0,-4.3662,-4.4816,-4.6682,-4.7567,-4.8625,-5.0356,0.0,-5.1164,-5.2895,-5.3106,-5.3799,-5.553,-5.5703,-5.5703,-5.5703,-5.5703,-5.5703,-5.5703,-5.5703,-5.5703,-5.5703,-5.5703,-5.5703,-5.5703,-5.5703,-5.5703,-5.5703,-5.5703,-5.5703,-5.5703,-5.5703,-5.5703,-5.5703,-5.5703,-5.5703,-5.5703,-5.5703,-5.5742,-5.578,-5.578,-5.6319,-5.7088,-5.7088,-5.7607,-5.8319,0.0,0.0,0.0,0.0,0.0,0.0,0.0,0.0,0.0,0.0,0.0,0.0,0.0,0.0,0.0,0.0,0.0,0.0,0.0,0.0,-2.7908,-2.8394,-2.8394,-2.859,-2.8994,-2.8994,-2.8994,-2.8994,-2.9395,-3.0345,-3.1801,-3.1629,-3.2442,-3.4083,-3.416,-3.4507,-3.5026,-3.5372,-3.5493,-3.5493,-3.5493,-3.5493,0.0,0.0,0.0,0.0,0.0,0.0,0.0,0.0,-3.5778,0.0,0.0,0.0,-3.5976,-3.5867,-3.6245,-3.6753,-3.691,-3.8627,-4.0391,-4.0538,-4.0795,0.0,0.0,-4.3605,-4.3316,-4.3143,-4.3508,0.0,0.0,0.0,-4.6874,-4.7548,-4.8817,-4.9952,-5.0606,-5.0702,-5.1318,-5.301,-5.3203,-5.3857,-5.553,-5.5703,-5.5703,-5.5703,-5.5703,-5.5703,-5.5703,-5.5703,-5.5703,-5.5703,-5.5703,-5.5703,-5.5703,-5.5703,-5.5703,-5.5703,-5.5703,-5.5703,-5.5703,-5.5703,-5.5703,-5.5703,-5.5703,-5.5703,-5.5703,-5.5703,-5.5703,-5.5703,-5.5703,-5.5895,-5.6184,-5.6184,-5.6395,-5.6761,0.0,0.0,0.0,0.0,0.0,0.0,0.0,0.0,0.0,0.0,0.0,0.0,0.0,0.0,0.0,0.0,0.0,0.0,-2.7631,-2.789,-2.821,-2.8565,-2.859,-2.8725,-2.8994,-2.8994,-2.8994,-2.8994,-3.0,-3.1393,-3.3149,-3.3237,-3.4083,-3.5488,-3.5141,-3.5315,-3.5872,-3.5622,-3.5493,-3.5493,-3.5493,-3.5493,0.0,0.0,0.0,0.0,0.0,0.0,0.0,0.0,0.0,0.0,0.0,0.0,0.0,0.0,0.0,0.0,-3.8098,-3.9464,-4.0889,0.0,0.0,0.0,-4.3951,-4.4105,-4.3912,-4.3893,-4.4335,-4.4778,-4.5066,0.0,0.0,0.0,-4.974,-5.0702,-5.0702,-5.0604,-5.1022,-5.2442,-5.2845,-5.3574,-5.4975,-5.5487,-5.5703,-5.5703,-5.5703,-5.5703,-5.5703,-5.5703,-5.5703,-5.5703,-5.5703,-5.5703,-5.5703,-5.5703,-5.5703,-5.5703,-5.5703,-5.5703,-5.5703,-5.5703,-5.5703,-5.5703,-5.5703,-5.5703,-5.5703,-5.5703,-5.5703,-5.5703,-5.5703,-5.5703,-5.5703,-5.5703,-5.5703,-5.578,0.0,0.0,0.0,0.0,0.0,0.0,0.0,0.0,0.0,0.0,0.0,0.0,0.0,0.0,0.0,0.0,0.0,0.0,-2.8394,-2.8394,-2.8565,-2.8994,-2.8994,-2.8994,-2.8994,-2.9035,-2.9035,-2.9035,-3.1183,-3.2728,-3.376,-3.5772,-3.6276,-3.5565,-3.6353,-3.6699,-3.6642,-3.5853,-3.5493,-3.5493,-3.5493,-3.5493,-3.5493,0.0,0.0,0.0,0.0,0.0,0.0,0.0,0.0,0.0,0.0,0.0,0.0,0.0,-3.7663,-3.8755,-4.0342,-4.0793,0.0,0.0,0.0,0.0,-4.3951,-4.3682,-4.3585,-4.5259,-4.5586,-4.5874,-4.674,-4.7567,0.0,-4.926,-5.0125,-5.0683,-5.0683,-5.0336,-5.0397,-5.1198,-5.2062,-5.294,-5.3817,-5.499,-5.5684,-5.5684,-5.5684,-5.5703,-5.5703,-5.5703,-5.5703,-5.5703,-5.5703,-5.5703,-5.5703,-5.5703,-5.5684,-5.5684,-5.5684,-5.5703,-5.5703,-5.5703,-5.5703,-5.5703,-5.5703,-5.5703,-5.5703,-5.5703,-5.5703,-5.5703,-5.5703,-5.5703,-5.5703,-5.5703,-5.5703,-5.5703,0.0,0.0,0.0,0.0,0.0,0.0,0.0,0.0,0.0,0.0,0.0,0.0,0.0,0.0,0.0,0.0,0.0,0.0,-2.835,-2.8394,-2.8565,-2.8994,-2.8994,-2.8994,-2.8994,-3.0357,-3.1113,-3.1259,-3.2651,-3.4181,-3.581,-3.583,-3.6045,-3.6353,-3.6603,-3.6392,-3.5853,-3.5603,-3.5493,-3.5493,-3.5493,-3.5493,-3.5493,0.0,0.0,0.0,0.0,0.0,0.0,0.0,0.0,0.0,0.0,0.0,0.0,-3.6762,-3.7623,-3.8551,-3.9533,0.0,0.0,-4.2258,0.0,0.0,0.0,-4.4124,0.0,0.0,-4.5586,-4.5874,-4.674,-4.8067,0.0,-4.8974,-4.9717,-5.0183,-4.9898,-4.9746,-4.9995,-5.0856,-5.1689,-5.2608,-5.3791,-5.4485,-5.4979,-5.5256,-5.5007,-5.4867,-5.4867,-5.4867,-5.4867,-5.4867,-5.4867,-5.4867,-5.4867,-5.4867,-5.5007,-5.5282,-5.5282,-5.5423,-5.5703,-5.5703,-5.5703,-5.5703,-5.5703,-5.5703,-5.5703,-5.5703,-5.5703,-5.5703,-5.5703,-5.5703,-5.5703,-5.5703,-5.5703,-5.5703,0.0,0.0,0.0,0.0,0.0,0.0,0.0,0.0,0.0,0.0,0.0,0.0,0.0,0.0,0.0,0.0,0.0,0.0,0.0,0.0,-2.8749,-2.8994,-2.8994,-2.9361,-3.0146,-3.267,-3.3957,-3.3881,-3.4516,-3.5586,-3.7006,-3.7002,-3.6911,-3.6719,-3.7065,-3.6757,-3.5968,-3.5641,-3.5493,-3.5493,-3.5493,-3.5493,-3.5493,0.0,0.0,0.0,0.0,0.0,0.0,0.0,0.0,0.0,0.0,0.0,0.0,-3.7599,-3.8569,-3.9565,-4.102,0.0,0.0,-4.3278,-4.3816,-4.4393,-4.4739,0.0,0.0,0.0,-4.6374,-4.6799,-4.7509,-4.8774,0.0,-4.9144,-4.953,-4.9773,-4.9532,-4.9356,-4.9452,-4.999,-5.0779,-5.1701,-5.2805,-5.3546,-5.425,-5.4829,-5.4659,-5.4503,-5.4503,-5.4503,-5.4503,-5.4503,-5.4503,-5.4503,-5.4503,-5.4659,-5.4867,-5.5088,-5.5262,-5.5399,-5.5466,-5.564,-5.5703,-5.5703,-5.5703,-5.5703,-5.5703,-5.5703,-5.5703,-5.5703,-5.5703,-5.5703,-5.5703,-5.5703,-5.5703,-5.5703,0.0,0.0,0.0,0.0,0.0,0.0,0.0,0.0,0.0,0.0,0.0,0.0,0.0,0.0,0.0,0.0,0.0,0.0,0.0,0.0,-2.8952,-2.8994,-2.9122,-3.0212,-3.2294,-3.5518,-3.6994,-3.6625,-3.6566,-3.6835,-3.7449,-3.855,-3.818,-3.6642,-3.7507,-3.7411,-3.6546,-3.5815,-3.5493,-3.5493,-3.5493,-3.5493,-3.5493,-3.5493,0.0,0.0,0.0,0.0,0.0,0.0,0.0,0.0,0.0,0.0,0.0,-3.8926,-4.0008,-4.1207,-4.359,0.0,0.0,0.0,-4.4951,0.0,-4.5472,-4.5683,-4.5932,-4.674,0.0,-4.8258,-4.8705,-4.9496,-4.9924,-4.9504,-4.9445,-4.9416,-4.9386,-4.9094,-4.8847,-4.8847,-4.9607,-5.0461,-5.1223,-5.2386,-5.3427,-5.425,-5.435,-5.4373,-5.4373,-5.4373,-5.4373,-5.4373,-5.4373,-5.4373,-5.4373,-5.4731,-5.4952,-5.5007,-5.5356,-5.5356,-5.5061,-5.5446,-5.564,-5.564,-5.5684,-5.5703,-5.5703,-5.5703,-5.5703,-5.5703,-5.5703,-5.5703,-5.5703,-5.5703,-5.5703,-5.5703,0.0,0.0,0.0,0.0,0.0,0.0,0.0,0.0,0.0,0.0,0.0,0.0,0.0,0.0,0.0,0.0,0.0,0.0,0.0,0.0,-2.8658,-2.8994,-3.021,-3.241,-3.5584,-3.6682,-3.7562,-3.8289,-3.7868,-3.739,-3.6876,-3.7132,-3.6719,-3.5795,-3.6622,-3.6526,-3.5757,-3.557,-3.5493,-3.5493,-3.5493,-3.5493,-3.5493,-3.5493,-3.5493,0.0,0.0,0.0,0.0,0.0,0.0,0.0,0.0,-3.7132,-3.7968,-3.9084,-3.9935,-4.0816,0.0,-4.3201,0.0,0.0,-4.4951,-4.5455,-4.6027,-4.6397,-4.6682,-4.6855,-4.7564,-4.8301,-4.8729,-4.9257,-4.9504,-4.9075,-4.9011,-4.893,-4.8604,-4.8477,-4.8421,-4.8421,-4.9139,-4.9862,-5.0405,-5.1566,-5.2455,-5.297,-5.331,-5.3462,-5.3462,-5.3462,-5.3462,-5.3462,-5.3462,-5.3462,-5.3462,-5.3563,-5.3777,-5.4065,-5.4168,-5.4369,-5.464,-5.5034,-5.5212,-5.5256,-5.5577,-5.5703,-5.5703,-5.5703,-5.5703,-5.5703,-5.5703,-5.5703,-5.5703,-5.5703,-5.5703,-5.5703,0.0,0.0,0.0,0.0,0.0,0.0,0.0,0.0,0.0,0.0,0.0,0.0,0.0,0.0,0.0,0.0,0.0,0.0,0.0,0.0,0.0,-3.0118,-3.2449,-3.4674,-3.6665,-3.737,-3.7881,-3.8175,-3.7651,-3.7161,-3.6699,-3.6699,-3.6276,-3.5545,-3.6353,-3.6257,-3.5493,-3.5493,-3.5493,-3.5493,-3.5493,-3.5493,-3.5493,-3.5493,-3.5493,-3.5493,-3.5493,0.0,0.0,0.0,0.0,0.0,0.0,0.0,-3.8796,-3.9665,-4.02,-4.0873,0.0,0.0,0.0,0.0,0.0,-4.5533,-4.6167,-4.6483,-4.6814,-4.7419,-4.8041,-4.8564,-4.8796,-4.9055,-4.9075,-4.8692,-4.8586,-4.855,-4.8344,-4.8306,-4.8306,-4.8306,-4.8673,-4.9193,-4.9843,-5.0503,-5.1253,-5.2229,-5.2508,-5.2803,-5.3188,-5.3206,-5.3206,-5.3206,-5.3206,-5.3206,-5.3206,-5.3381,-5.3604,-5.3814,-5.4013,-5.4153,-5.4187,-5.4591,-5.479,-5.4819,-5.5034,-5.5134,-5.5134,-5.5134,-5.5237,-5.5423,-5.5423,-5.5512,-5.5703,-5.5703,-5.5703,-5.5703,0.0,0.0,0.0,0.0,0.0,0.0,0.0,0.0,0.0,0.0,0.0,0.0,0.0,0.0,0.0,0.0,0.0,0.0,0.0,0.0,0.0,-3.2173,-3.4853,-3.6574,-3.7087,-3.7911,-3.8048,-3.7508,-3.6961,-3.6642,-3.6488,-3.6488,-3.6142,-3.5532,-3.6199,-3.6122,-3.5493,-3.5493,-3.5493,-3.5493,-3.5493,-3.5493,-3.5526,-3.5661,-3.5718,-3.5738,-3.5892,-3.6372,-3.693,-3.693,0.0,0.0,0.0,0.0,-3.9642,-4.0296,-4.0604,-4.1181,0.0,0.0,0.0,0.0,0.0,0.0,-4.6149,-4.6525,-4.6993,-4.8014,-4.8475,-4.8758,-4.8898,-4.8829,-4.8692,-4.8364,-4.8306,-4.8306,-4.8306,-4.8306,-4.8306,-4.8306,-4.8306,-4.8581,-4.9297,-4.9499,-5.0141,-5.1481,-5.1701,-5.2142,-5.2968,-5.3004,-5.3078,-5.3206,-5.3206,-5.3206,-5.3206,-5.3545,-5.3683,-5.3683,-5.4102,-5.4067,-5.372,-5.4102,-5.4307,-5.4387,-5.4452,-5.4503,-5.4503,-5.4503,-5.472,-5.5007,-5.5007,-5.5186,-5.5489,-5.5489,-5.5489,-5.5489,0.0,0.0,0.0,0.0,0.0,0.0,0.0,0.0,0.0,0.0,0.0,0.0,0.0,0.0,0.0,0.0,0.0,0.0,-3.0913,0.0,0.0,-3.5569,-3.6064,-3.7091,-3.8745,-3.845,-3.8048,-3.7508,-3.6961,-3.6353,-3.5661,-3.5661,-3.5603,-3.5493,-3.5622,-3.5603,-3.5493,-3.5493,-3.5493,-3.5493,-3.5493,-3.5493,-3.5584,-3.6276,-3.6546,-3.6642,-3.7411,-3.7738,-3.7834,-3.7834,-3.8411,0.0,0.0,0.0,-4.0354,-4.0469,-4.1027,-4.17,0.0,0.0,0.0,0.0,0.0,-4.5827,0.0,0.0,-4.8002,0.0,-4.8311,-4.8475,-4.8844,-4.864,-4.8364,-4.8306,-4.8306,-4.8306,-4.8306,-4.8306,-4.8306,-4.8306,-4.8306,-4.8361,-4.8471,-4.915,-4.9664,-4.9884,-5.0563,-5.1316,-5.2105,-5.216,-5.2472,-5.3188,-5.3206,-5.3206,-5.3206,-5.323,-5.3272,-5.3272,-5.3336,-5.3336,-5.3254,-5.3336,-5.3545,-5.3924,-5.4322,-5.4503,-5.4503,-5.4503,-5.4535,-5.4597,-5.4597,-5.4609,-5.464,-5.464,-5.464,-5.464,0.0,0.0,0.0,0.0,0.0,0.0,0.0,0.0,0.0,0.0,0.0,0.0,0.0,0.0,0.0,-2.8816,-2.971,-3.1035,-3.2632,-3.4284,-3.5532,-3.6266,-3.7322,-3.8044,-3.842,-3.8049,-3.7528,-3.6841,-3.6289,-3.5853,-3.5493,-3.5493,-3.5493,-3.5493,-3.5493,-3.5493,-3.5493,-3.5493,-3.5493,-3.5532,-3.5988,-3.6469,-3.6949,-3.7296,-3.7738,-3.8142,-3.8046,-3.8315,-3.8719,-3.8719,-3.9277,-3.9969,-3.9969,0.0,0.0,0.0,-4.0758,-4.1226,-4.199,0.0,0.0,0.0,0.0,-4.5615,-4.627,0.0,-4.7726,-4.8198,-4.8306,-4.8364,-4.855,-4.8421,-4.8306,-4.8306,-4.8306,-4.8306,-4.8306,-4.8306,-4.8306,-4.8306,-4.8306,-4.8306,-4.8306,-4.8655,-4.9058,-4.9536,-4.9921,-5.0472,-5.1279,-5.1756,-5.216,-5.2527,-5.2968,-5.3206,-5.3206,-5.3206,-5.3206,-5.3206,-5.3206,-5.3206,-5.3206,-5.3206,-5.3295,-5.3484,-5.3682,-5.3758,-5.3758,-5.3758,-5.3906,-5.4118,-5.4118,-5.442,-5.4838,-5.4838,-5.4979,-5.5186,0.0,0.0,0.0,0.0,0.0,0.0,0.0,0.0,0.0,0.0,0.0,0.0,0.0,0.0,0.0,0.0,-3.0705,-3.2247,-3.4302,-3.5991,-3.6948,-3.6998,-3.8349,-3.8805,-3.8153,-3.7713,-3.7126,-3.6413,-3.5806,-3.5493,-3.5493,-3.5493,-3.5493,-3.5493,-3.5493,-3.5493,-3.5493,-3.5493,-3.5622,-3.5892,-3.6699,-3.7546,-3.8373,-3.8796,-3.9323,-3.9736,-3.9185,-3.9342,-3.9794,-3.9646,-3.9988,-4.0489,-4.0489,-4.0489,0.0,0.0,0.0,-4.0765,0.0,0.0,0.0,0.0,0.0,-4.5574,0.0,0.0,-4.759,0.0,-4.8306,-4.8306,-4.8306,-4.8306,-4.8306,-4.8306,-4.8306,-4.8306,-4.8306,-4.8306,-4.8306,-4.8306,-4.8306,-4.8306,-4.8306,-4.8306,-4.8563,-4.9205,-4.926,-4.9627,-5.0453,-5.1059,-5.1463,-5.1683,-5.2491,-5.2913,-5.2913,-5.3115,-5.3206,-5.3206,-5.3206,-5.3206,-5.3206,-5.3206,-5.3206,-5.3206,-5.3206,-5.3206,-5.3206,-5.3206,-5.34,-5.3663,-5.3663,-5.4048,-5.4621,-5.4621,-5.48,-5.5069,0.0,0.0,0.0,0.0,0.0,0.0,0.0,0.0,0.0,0.0,0.0,0.0,-3.0406,-3.0204,-3.0461,-3.1201,-3.1347,-3.2761,-3.5954,-3.7679,-3.8704,-3.8941,-3.9061,0.0,-3.8746,-3.7928,-3.7233,-3.6685,-3.5897,-3.5493,-3.5493,-3.5493,-3.5493,-3.5493,-3.5493,-3.5493,-3.5493,-3.5493,-3.5949,-3.6719,-3.7584,-3.845,-3.9411,-4.1008,-4.1433,-4.1226,-4.1502,-4.1433,-4.1131,-4.0617,-4.0469,-4.0489,-4.0489,-4.0489,-4.0489,0.0,0.0,0.0,0.0,0.0,0.0,0.0,0.0,0.0,0.0,0.0,-4.8251,-4.8306,-4.8306,-4.8306,-4.8306,-4.8306,-4.8306,-4.8306,-4.8306,-4.8306,-4.8306,-4.8306,-4.8306,-4.8306,-4.8306,-4.8306,-4.8306,-4.8306,-4.8324,-4.8361,-4.8379,-4.8746,-4.9609,-4.9682,-5.0068,-5.0839,-5.1628,-5.205,-5.205,-5.2821,-5.3206,-5.3206,-5.3206,-5.3206,-5.3206,-5.3206,-5.3206,-5.3206,-5.3206,-5.3206,-5.3206,-5.3206,-5.3206,-5.3248,-5.3248,-5.3272,-5.3314,-5.3314,-5.3295,-5.3336,0.0,0.0,0.0,0.0,0.0,0.0,0.0,0.0,0.0,0.0,0.0,0.0,0.0,-3.0508,-3.1091,-3.1366,-3.333,-3.5477,-3.7698,-3.8377,-3.8511,-3.8098,-3.8394,-3.8056,-3.6952,-3.6969,-3.6631,-3.593,-3.5641,-3.5493,-3.5493,-3.5493,-3.5493,-3.5493,-3.5493,-3.5493,-3.5532,-3.6065,-3.6449,-3.6858,-3.8582,-3.9919,-4.0954,-4.1338,-4.222,-4.3061,-4.1915,-4.155,-4.1566,-4.1149,-4.078,-4.0489,-4.0489,-4.0489,-4.0489,-4.0489,-4.0489,-4.0598,0.0,0.0,0.0,-4.2902,-4.4494,-4.5975,-4.6269,-4.7352,-4.8306,-4.8306,-4.8306,-4.8306,-4.8306,-4.8306,-4.8306,-4.8306,-4.8306,-4.8306,-4.8306,-4.8306,-4.8306,-4.8306,-4.8306,-4.8306,-4.8306,-4.8306,-4.8306,-4.8306,-4.8306,-4.8434,-4.8746,-4.9297,-4.9719,-5.0013,-5.0802,-5.1224,-5.1224,-5.2032,-5.2435,-5.2435,-5.2968,-5.3206,-5.3206,-5.3206,-5.3206,-5.3206,-5.3206,-5.3206,-5.3206,-5.3206,-5.3206,-5.3206,-5.3206,-5.3359,-5.3604,-5.3604,-5.3777,-5.405,0.0,0.0,0.0,0.0,0.0,0.0,0.0,0.0,0.0,0.0,0.0,0.0,0.0,0.0,-3.243,-3.2999,-3.5275,-3.7147,-3.823,-3.8046,-3.7702,-3.7257,-3.758,-3.7231,-3.6062,-3.6126,-3.5955,-3.5493,-3.5218,-3.5218,-3.5493,-3.5493,-3.5493,-3.5512,-3.5795,-3.5911,-3.5949,-3.6469,-3.7046,-3.7728,-3.9661,-4.0978,-4.1822,-4.2049,-4.2794,-4.3521,-4.2181,-4.178,-4.1839,-4.1597,-4.13,-4.0978,-4.082,-4.0586,-4.0372,-4.0372,-4.0285,-4.0291,-4.0688,0.0,0.0,0.0,0.0,-4.5645,-4.6177,-4.7131,-4.7976,-4.8251,-4.8306,-4.8306,-4.8306,-4.8306,-4.8306,-4.8306,-4.8306,-4.8306,-4.8306,-4.8306,-4.8306,-4.8306,-4.8306,-4.8306,-4.8306,-4.8306,-4.8306,-4.8306,-4.8306,-4.8306,-4.8306,-4.8838,-4.9297,-4.9572,-5.0105,-5.0527,-5.0802,-5.1334,-5.1591,-5.161,-5.2417,-5.2803,-5.2821,-5.3096,-5.3206,-5.3206,-5.3206,-5.3206,-5.3206,-5.3206,-5.3206,-5.3206,-5.3206,-5.3359,-5.3604,-5.3604,-5.3814,-5.405,0.0,0.0,0.0,0.0,0.0,0.0,0.0,0.0,0.0,-3.0283,0.0,0.0,0.0,0.0,0.0,-3.6193,-3.7037,-3.7477,-3.7489,-3.6725,-3.6399,-3.6658,-3.6665,-3.6539,-3.625,-3.5505,-3.5223,0.0,0.0,0.0,0.0,-3.5493,-3.5493,-3.5512,-3.6339,-3.6704,-3.6724,-3.6762,-3.7757,-3.9415,-4.0788,-4.1514,-4.1959,-4.327,-4.3262,-4.2578,-4.2519,-4.2284,-4.2021,-4.2015,-4.1977,-4.1844,-4.1407,-4.071,-4.0081,-4.0081,-3.984,-3.9769,0.0,0.0,0.0,0.0,0.0,0.0,-4.6691,0.0,-4.7333,-4.8104,-4.8288,-4.8306,-4.8306,-4.8306,-4.8306,-4.8306,-4.8306,-4.8306,-4.8306,-4.8306,-4.8306,-4.8306,-4.8306,-4.8306,-4.8306,-4.8306,-4.8306,-4.8306,-4.8306,-4.8306,-4.8306,-4.8306,-4.8691,-4.9517,-4.9536,-4.9921,-5.0729,-5.0747,-5.0765,-5.0765,-5.1573,-5.1958,-5.1977,-5.2784,-5.3151,-5.317,-5.317,-5.3188,-5.3206,-5.3206,-5.3206,-5.3206,-5.3206,-5.3206,-5.3206,-5.3206,-5.3206,-5.3206,0.0,0.0,0.0,0.0,0.0,0.0,0.0,0.0,0.0,0.0,0.0,0.0,-3.27,-3.4457,-3.6028,-3.7074,-3.7349,-3.7239,-3.667,-3.6413,-3.6066,-3.5487,-3.5695,-3.5619,-3.5134,-3.5113,-3.5223,0.0,0.0,0.0,0.0,0.0,0.0,-3.5245,-3.605,-3.6719,-3.7328,-3.8216,-3.8854,-3.9458,-4.1138,-4.2009,-4.2353,-4.2869,-4.3457,-4.3907,-4.3021,-4.2438,-4.2134,-4.2464,-4.1552,-4.0241,-4.0106,-3.9902,-3.9754,-3.9754,-3.9668,-3.9722,-4.0293,0.0,0.0,0.0,0.0,0.0,-4.5278,0.0,-4.7186,-4.7407,-4.7902,-4.8306,-4.8306,-4.8306,-4.8306,-4.8306,-4.8306,-4.8306,-4.8306,-4.8306,-4.8306,-4.8306,-4.8306,-4.8306,-4.8306,-4.8306,-4.8306,0.0,-4.8306,-4.8306,-4.8306,-4.8306,-4.8416,-4.8655,-4.8655,-4.8765,-4.9003,-4.9609,-4.9921,-4.9921,-5.0747,-5.1132,-5.1132,-5.1371,-5.1775,-5.2325,-5.2325,-5.2656,-5.3206,-5.3206,-5.3206,-5.3206,-5.3206,-5.3206,-5.3206,-5.3206,-5.3206,-5.3206,0.0,0.0,0.0,0.0,0.0,0.0,0.0,0.0,0.0,0.0,0.0,0.0,-3.5405,-3.6307,-3.6982,-3.7441,-3.6853,-3.6266,-3.5789,-3.544,-3.5037,-3.4523,-3.4674,-3.4692,-3.4486,-3.4334,-3.4529,0.0,0.0,0.0,0.0,0.0,0.0,0.0,-3.6673,-3.7471,-3.8099,-3.9032,-3.9524,-3.9787,-4.1363,-4.2006,-4.2058,-4.2604,-4.31,-4.3446,-4.2967,-4.2613,-4.2454,-4.2934,-4.1901,-4.0434,-4.0434,-3.9946,-3.9389,-3.9389,-3.9551,-3.9852,-4.0481,-4.1255,-4.2026,-4.2647,0.0,0.0,-4.5057,-4.5938,-4.6801,0.0,-4.7976,-4.8306,-4.8306,-4.8306,-4.8306,-4.8306,-4.8306,-4.8306,-4.8306,-4.8306,-4.8306,-4.8306,-4.8306,-4.8306,-4.8306,-4.8306,-4.8306,-4.8306,-4.8306,-4.8306,-4.8306,-4.8306,-4.8306,-4.8306,-4.8306,-4.8306,-4.8306,-4.8802,-4.9058,-4.9058,-4.9866,-5.027,-5.0306,-5.0655,-5.1059,-5.1499,-5.1499,-5.1958,-5.2711,-5.2711,-5.2913,-5.3206,-5.3206,-5.3206,-5.3206,-5.3206,-5.3206,-5.3206,0.0,0.0,0.0,0.0,0.0,0.0,0.0,0.0,0.0,0.0,-3.5485,-3.711,-3.8542,-3.7973,-3.7441,-3.7349,-3.5917,-3.4954,-3.4862,-3.4211,-3.3807,-3.3807,-3.3807,-3.3928,-3.42,-3.3506,-3.3642,0.0,0.0,0.0,0.0,0.0,0.0,0.0,0.0,0.0,-3.8745,-3.9309,-3.9788,-4.0228,-4.1378,-4.1633,-4.1437,-4.2371,-4.2501,-4.2243,-4.2712,-4.2816,-4.2792,-4.3229,-4.2719,-4.1917,-4.1731,-4.0709,-3.9547,-3.9379,-3.9716,-4.0322,-4.1038,-4.1772,-4.2488,-4.3296,-4.3497,0.0,-4.5314,-4.57,-4.6177,0.0,-4.7976,-4.8031,-4.8031,-4.8031,-4.8031,-4.8031,-4.8122,-4.8214,-4.8306,-4.8306,-4.8306,-4.8306,-4.8306,-4.8306,-4.8306,-4.8306,-4.8306,-4.8306,-4.8306,-4.8306,-4.8306,-4.8306,-4.8306,-4.8306,-4.8306,-4.8306,-4.8306,-4.8306,-4.8306,-4.8324,-4.9022,-4.9389,-4.9462,-5.0196,-5.0582,-5.0674,-5.0674,-5.1114,-5.1867,-5.1867,-5.2399,-5.3206,-5.3206,-5.3206,-5.3206,-5.3206,-5.3206,-5.3206,-2.8636,0.0,0.0,0.0,0.0,0.0,0.0,0.0,0.0,-3.4893,-3.6955,-3.8358,-3.867,-3.7973,-3.7221,-3.6578,-3.5605,-3.4715,-3.4082,-3.3899,-3.3807,-3.3807,-3.3807,-3.3928,-3.42,-3.4051,-3.4207,0.0,0.0,0.0,0.0,0.0,0.0,0.0,0.0,0.0,-3.8116,-3.8894,-3.9605,-4.0293,-4.0531,-4.0998,-4.1604,-4.2174,-4.2728,-4.3217,-4.3354,-4.2971,-4.2404,-4.2503,-4.3254,-4.3858,-4.2584,-4.2382,-4.24,-4.1112,-4.125,-4.1864,-4.2029,-4.2176,-4.2488,-4.3296,-4.3497,0.0,-4.3883,-4.447,-4.5021,0.0,-4.592,-4.6379,-4.6379,-4.6379,-4.6379,-4.6379,-4.6911,-4.7572,-4.8214,-4.8306,-4.8306,-4.8306,-4.8306,-4.8306,-4.8306,-4.8306,-4.8306,-4.8306,-4.8306,-4.8306,-4.8306,-4.8306,-4.8306,-4.8306,-4.8306,-4.8306,-4.8306,-4.8306,-4.8306,-4.8306,-4.8471,-4.8545,-4.8563,-4.8728,-4.9169,-4.9811,-4.9811,-5.0288,-5.1041,-5.1041,-5.1903,-5.3206,-5.3206,-5.3206,-5.3206,-5.3206,-5.3206,-5.3206,-2.7841,0.0,0.0,0.0,0.0,0.0,0.0,0.0,-3.4129,-3.6404,-3.789,-3.856,-3.8138,-3.7367,-3.656,-3.5734,-3.489,-3.4229,-3.3825,-3.3807,-3.3807,-3.3807,-3.3807,-3.385,-3.4012,-3.44,-3.4698,0.0,0.0,0.0,0.0,0.0,0.0,0.0,0.0,0.0,-3.9082,-3.898,-3.9212,-3.9788,-4.0598,-4.1454,-4.2251,-4.2728,-4.3149,-4.3534,-4.3956,-4.4103,-4.4103,-4.4103,-4.4103,-4.403,-4.3626,-4.3222,-4.2745,-4.1937,-4.2268,-4.28,-4.2415,-4.2598,-4.3002,-4.3387,-4.3497,0.0,0.0,-4.4415,-4.4819,-4.5223,-4.5626,-4.5902,-4.5902,-4.5902,-4.5902,-4.5902,-4.6581,-4.7113,-4.7113,-4.7792,-4.8306,-4.8306,-4.8306,-4.8306,-4.8306,-4.8306,-4.8306,-4.8306,-4.8306,-4.8306,-4.8306,-4.8306,-4.8306,-4.8306,-4.8306,-4.8306,-4.8306,-4.8306,-4.8306,-4.8306,-4.8306,-4.8306,-4.8306,-4.8306,-4.8545,-4.8948,-4.8948,-4.9426,-5.0196,-5.0196,-5.0912,-5.205,-5.2435,-5.2858,-5.3206,-5.3206,-5.3206,-5.3206,-2.7672,-2.8552,0.0,0.0,0.0,0.0,0.0,0.0,-3.5384,-3.7488,-3.8216,-3.8259,-3.752,-3.6705,-3.5957,-3.5235,-3.4433,-3.4035,-3.4137,-3.4137,-3.4238,-3.4504,-3.4357,-3.4357,-3.4504,-3.5,-3.5247,0.0,0.0,0.0,0.0,0.0,0.0,0.0,0.0,0.0,-3.9964,-3.9215,-3.9146,-3.9602,-4.0977,-4.1895,-4.252,-4.3082,-4.3461,-4.3828,-4.4635,-4.5461,-4.6104,-4.5957,-4.5131,-4.425,-4.4599,-4.403,-4.313,-4.2671,-4.3204,-4.3736,-4.2782,-4.3002,-4.3497,-4.3497,-4.3497,-4.3663,0.0,0.0,0.0,-4.5296,-4.5443,-4.5443,-4.5443,-4.5443,0.0,-4.5039,0.0,0.0,0.0,-4.6728,0.0,-4.7847,-4.8122,-4.8251,-4.8086,-4.8086,-4.8141,-4.8306,-4.8159,-4.8141,-4.8306,-4.8306,-4.8306,-4.8306,-4.8306,-4.8306,-4.8306,-4.8306,-4.8306,-4.8306,-4.8306,-4.8306,-4.8306,-4.8306,-4.8306,-4.8306,-4.8306,-4.8691,-4.9334,-4.9334,-4.9829,-5.0655,-5.1628,-5.2399,-5.3004,-5.3151,-5.3206,-5.3206,-3.07,-3.0818,-3.0937,0.0,0.0,0.0,0.0,0.0,-3.6411,-3.7193,-3.7685,-3.7807,-3.729,-3.6469,-3.5918,-3.5812,-3.5049,-3.4811,-3.5277,-3.5309,-3.5841,-3.7037,-3.6395,-3.634,-3.7055,-3.6468,-3.6156,0.0,0.0,0.0,0.0,0.0,0.0,0.0,-3.9473,-3.9436,-3.8915,-3.9528,-4.0189,-4.0901,-4.1084,-4.1213,-4.1397,-4.2121,-4.3332,-4.4672,-4.548,-4.6287,-4.6874,-4.614,-4.625,-4.6471,-4.5131,-4.5571,-4.614,-4.3993,-4.4433,-4.5296,-4.3773,-4.3424,-4.3497,-4.3497,-4.3497,-4.3516,-4.3608,0.0,-4.3644,-4.3736,0.0,-4.3754,-4.3754,0.0,0.0,-4.1882,-4.3534,-4.4452,-4.2928,-4.4709,-4.6177,-4.6177,-4.7425,-4.8031,-4.7333,-4.726,-4.7535,-4.8251,-4.7645,-4.7572,-4.8269,-4.8306,-4.8306,-4.8306,-4.8306,-4.8306,-4.8306,-4.8306,-4.8306,-4.8306,-4.8306,-4.8306,-4.8306,-4.8306,-4.8306,-4.8306,-4.8306,-4.8361,-4.8453,-4.8453,-4.8948,-4.9866,-5.1408,-5.205,-5.2215,-5.2949,-5.3206,-5.3206,-3.1529,-3.1884,-3.2476,0.0,0.0,0.0,0.0,0.0,-3.6249,-3.5842,-3.6399,-3.6809,-3.6863,-3.6594,-3.647,-3.6511,-3.6487,-3.6414,-3.6152,-3.6134,-3.6327,-3.6798,-3.6468,-3.645,-3.6798,-3.6927,-3.6982,0.0,-3.7459,0.0,0.0,0.0,0.0,0.0,-3.9753,-3.9974,-4.012,-4.0451,-4.0799,-4.1148,-4.1625,-4.2084,-4.258,-4.3387,-4.4709,-4.6159,-4.6489,-4.7113,-4.7755,-4.7407,-4.6911,-4.6452,-4.6709,-4.6305,-4.5608,-4.5039,-4.5039,-4.4947,-4.3809,-4.3828,-4.4085,-4.3608,-4.3846,-4.4066,-4.3608,-4.3497,-4.3497,-4.3497,0.0,0.0,0.0,0.0,0.0,0.0,-4.3736,-4.4305,-4.3149,0.0,-4.5902,-4.5902,-4.6507,0.0,-4.7113,-4.7535,-4.7957,-4.8269,-4.7994,-4.7957,-4.8288,-4.8306,-4.8306,-4.8306,-4.8306,-4.8306,-4.8306,-4.8306,-4.8306,-4.8306,-4.8306,-4.8306,-4.8306,-4.8306,-4.8306,-4.8306,-4.8306,-4.8306,-4.8306,-4.8306,-4.8526,-4.8948,-5.0141,-5.0875,-5.1389,-5.2215,-5.2509,-5.2564,-3.2831,-3.3271,-3.4015,-3.4015,0.0,0.0,0.0,-3.5574,-3.5456,-3.4521,-3.5234,-3.5947,-3.6288,-3.6628,-3.6923,-3.7202,-3.7598,-3.762,-3.7164,-3.7095,-3.718,-3.7475,-3.7125,-3.7088,-3.7369,-3.7674,-3.7826,0.0,0.0,0.0,0.0,0.0,0.0,0.0,0.0,-4.0212,-4.0799,-4.102,-4.1251,-4.1588,-4.2328,-4.33,-4.4327,-4.5059,-4.6103,-4.7177,-4.7177,-4.7445,-4.7761,-4.7525,-4.6785,-4.6136,-4.7085,-4.6469,-4.5443,-4.5792,-4.5645,-4.5149,-4.4103,-4.4268,-4.4525,-4.3699,-4.3938,-4.4213,-4.3626,-4.3497,-4.3497,-4.3497,-4.3497,0.0,0.0,0.0,-4.3351,-4.291,0.0,-4.4011,-4.2983,-4.4232,-4.5241,-4.5241,-4.5443,-4.5883,0.0,-4.7315,-4.7737,-4.7957,-4.7976,-4.8086,-4.8306,-4.8306,-4.8306,-4.8306,-4.8306,-4.8306,-4.8306,-4.8306,-4.8306,-4.8306,-4.8306,-4.8306,-4.8306,-4.8306,-4.8306,-4.8306,-4.8306,-4.8306,-4.8306,-4.8306,-4.8306,-4.8361,-4.8985,-4.9591,-5.0251,-5.1279,-5.1811,-5.2068,-3.5504,-3.552,-3.5554,-3.5554,-3.5588,0.0,0.0,-3.438,-3.4059,-3.3532,-3.4541,-3.5387,-3.562,-3.6339,-3.7102,-3.7818,-3.7868,-3.8082,-3.8503,-3.8357,-3.8903,-4.0412,-3.9295,-3.9071,-4.004,-3.913,-3.867,-3.867,0.0,0.0,0.0,0.0,0.0,0.0,-3.9551,-3.99,-3.9992,-4.0781,-4.1666,-4.2621,-4.3213,-4.4527,-4.6205,-4.6813,-4.7189,-4.7391,-4.7391,-4.6981,-4.6354,-4.5545,-4.5686,-4.605,-4.5328,-4.5979,-4.6893,-4.6122,-4.6434,-4.6691,-4.5094,-4.469,-4.4525,-4.3699,-4.3516,-4.3516,-4.3497,-4.3497,-4.3497,-4.3497,-4.3497,-4.3497,-4.3497,-4.3497,-4.2983,-4.1442,-4.2506,0.0,0.0,-4.2561,-4.3571,-4.3571,-4.4268,-4.5057,-4.5865,-4.5957,-4.6305,-4.7095,-4.715,-4.7498,-4.8269,-4.8306,-4.8306,-4.8306,-4.8306,-4.8306,-4.8306,-4.8306,-4.8306,-4.8306,-4.8306,-4.8306,-4.8306,-4.8306,-4.8306,-4.8306,-4.8306,-4.8306,-4.8306,-4.8306,-4.8306,-4.8306,-4.8343,-4.8361,-4.8581,-5.0233,-5.1334,-5.1995,-3.4252,-3.415,-3.4455,-3.5453,-3.5199,-3.4455,-3.322,-3.3794,-3.4267,-3.3917,-3.4822,-3.6027,-3.7374,-3.7841,-3.8391,-3.9274,-3.9665,-3.9738,-3.934,-3.9259,-3.9423,-3.9799,-3.893,-3.8726,-3.9374,-3.859,-3.8332,-3.8707,0.0,0.0,0.0,0.0,0.0,0.0,0.0,-3.9977,-4.02,-4.1524,-4.2627,-4.3559,-4.4765,-4.5389,-4.5739,-4.6873,-4.7065,-4.6756,-4.6756,-4.6571,-4.633,-4.6065,-4.578,-4.5588,-4.5837,-4.5525,-4.5101,-4.5376,-4.5226,-4.4939,-4.4384,-4.4635,-4.4809,-4.3932,-4.41,-4.4324,-4.3648,-4.3497,-4.3497,-4.3497,-4.3497,-4.3497,-4.3497,-4.3497,-4.3314,-4.2782,-4.313,-4.3296,0.0,-4.3149,-4.3497,-4.3497,-4.4213,-4.4819,-4.5094,-4.6085,-4.6819,-4.7095,-4.7609,-4.8012,-4.8306,-4.8306,-4.8306,-4.8306,-4.8306,-4.8306,-4.8306,-4.8306,-4.8306,-4.8306,-4.8306,-4.8306,-4.8306,-4.8306,-4.8306,-4.8306,-4.8306,-4.8306,-4.8306,-4.8306,-4.8306,-4.8306,-4.8306,-4.8306,-4.8453,-4.9572,-5.0178,-5.0545,-3.3541,-3.3406,-3.3711,-3.4658,-3.4421,-3.3778,-3.2831,-3.3711,-3.4449,-3.4271,-3.53,-3.6605,-3.8117,-3.8585,-3.9162,-4.0019,-4.0417,-4.0418,-3.989,-3.9767,-3.969,-3.966,-3.903,-3.8872,-3.9221,-3.8618,-3.8361,-3.857,-3.8463,-3.8433,0.0,0.0,0.0,0.0,0.0,-4.0049,-4.0462,-4.1962,-4.3171,-4.4155,-4.5436,-4.5705,-4.5457,-4.6394,-4.6318,-4.5725,-4.6007,-4.5915,-4.5783,-4.5783,-4.5533,-4.5396,-4.5905,-4.5522,-4.494,-4.5464,-4.5269,-4.4781,-4.4498,-4.4827,-4.4989,-4.4096,-4.4252,-4.4456,-4.376,-4.3597,-4.3597,-4.3597,-4.3558,-4.3539,-4.3685,-4.3579,-4.3536,-4.3579,-4.3558,-4.3497,0.0,-4.3497,-4.3497,-4.3497,-4.3956,-4.4397,-4.4672,-4.5645,-4.6489,-4.7076,-4.759,-4.8012,-4.8288,-4.8306,-4.8306,-4.8306,-4.8306,-4.8306,-4.8306,-4.8306,-4.8306,-4.8306,-4.8306,-4.8306,-4.8306,-4.8306,-4.8306,-4.8306,-4.8306,-4.8306,-4.8306,-4.8306,-4.8306,-4.8306,-4.8306,-4.8306,-4.8379,-4.893,-4.9315,-4.9811,-3.3558,-3.3406,-3.3406,-3.3406,-3.344,-3.3457,-3.3457,-3.4083,-3.4573,-3.4658,-3.596,-3.7178,-3.7939,-3.8633,-3.9326,-4.002,-4.007,-4.007,-4.007,-3.9877,-3.9838,-4.0087,-3.9651,-3.9466,-3.9686,-3.9203,-3.8741,-3.832,-3.8008,0.0,0.0,0.0,0.0,0.0,-3.9272,0.0,-4.0683,-4.2034,-4.3244,-4.4371,-4.5165,-4.5442,-4.5407,-4.5442,-4.4975,-4.4454,-4.5183,-4.5089,-4.4587,-4.4587,-4.4998,-4.5459,-4.5459,-4.5865,-4.6336,-4.6336,-4.6336,-4.6111,-4.537,-4.5176,-4.4982,-4.4223,-4.4029,-4.397,-4.3822,-4.3822,-4.3822,-4.3822,-4.365,-4.3633,-4.3908,-4.3722,-4.3578,-4.3764,-4.3615,-4.3497,-4.3497,-4.3497,-4.3497,-4.3497,-4.3534,-4.3828,-4.458,-4.4727,-4.5406,-4.6948,-4.7095,-4.7462,-4.8269,-4.8269,-4.8269,-4.8306,-4.8306,-4.8306,-4.8306,-4.8306,-4.8306,-4.8306,-4.8306,-4.8306,-4.8306,-4.8306,-4.8306,-4.8306,-4.8306,-4.8306,-4.8306,-4.8306,-4.8306,-4.8306,-4.8306,-4.8267,-4.8267,-4.8306,-4.8838,-4.9793,-3.366,-3.3406,-3.3406,-3.3406,-3.3846,-3.4218,-3.4218,-3.4844,-3.574,-3.6891,-3.7838,-3.8717,-3.9445,-3.9681,-3.9868,-4.0054,-4.007,-4.007,-4.007,-4.0034,-4.005,-4.0121,-3.945,-3.9272,-3.9703,-3.8502,-3.8006,-3.832,-3.7676,0.0,-3.736,0.0,0.0,0.0,0.0,-3.9487,-4.0868,-4.1771,-4.3057,-4.4596,-4.5251,-4.487,-4.3997,-4.4593,-4.432,-4.3759,-4.4541,-4.472,-4.4587,-4.4587,-4.472,-4.4814,-4.4814,-4.4961,-4.5035,-4.5035,-4.5035,-4.5001,-4.4812,-4.4744,-4.4662,-4.4314,-4.4222,-4.416,-4.4005,-4.3961,-4.3961,-4.3961,-4.3932,-4.3864,-4.3829,-4.3772,-4.3683,-4.3579,-4.3538,-4.3497,-4.3497,-4.3497,-4.3497,-4.3497,-4.403,-4.425,-4.3846,-4.4892,-4.5755,-4.6177,-4.6764,-4.7462,-4.8269,-4.7737,-4.77,-4.8288,-4.8306,-4.8306,-4.8306,-4.8306,-4.8306,-4.8306,-4.8306,-4.8306,-4.8306,-4.8306,-4.8306,-4.8306,-4.8306,-4.8306,-4.8306,-4.8306,-4.8306,-4.8306,-4.8306,-4.8035,-4.7674,-4.8114,-4.882,-4.9572,-3.3643,-3.3931,-3.4269,-3.3947,-3.5047,-3.5757,-3.5081,-3.5639,-3.6552,-3.7753,-3.8531,-3.9157,-3.9546,-3.9884,-4.007,-4.007,-4.007,-4.007,-4.007,-4.007,-4.007,-4.007,-3.9681,-3.9576,-3.9864,-3.8974,-3.833,-3.8105,-3.7598,0.0,-3.7334,0.0,0.0,0.0,0.0,-3.9783,-4.0617,-4.2055,-4.3199,-4.4152,-4.4807,-4.4633,0.0,-4.4418,-4.4316,-4.3978,-4.4418,-4.4587,-4.4587,-4.4587,-4.4587,-4.4587,-4.4587,-4.4587,-4.4587,-4.4587,-4.4587,-4.4587,-4.4587,-4.4587,-4.458,-4.4485,-4.4418,-4.4354,-4.416,-4.413,-4.413,-4.4113,-4.4067,-4.4019,-4.4144,-4.395,-4.3713,-4.3538,-4.3497,-4.3497,-4.3497,-4.3497,-4.3497,-4.3497,-4.3901,-4.3993,-4.3534,-4.4947,-4.5902,-4.5902,-4.6324,-4.6783,0.0,-4.7168,-4.7333,-4.7774,-4.8122,-4.8306,-4.8306,-4.8306,-4.8306,-4.8306,-4.8306,-4.8306,-4.8306,-4.8306,-4.8306,-4.8306,-4.8306,-4.8172,-4.7897,-4.7897,-4.7738,-4.7452,-4.7452,-4.7263,-4.6999,-4.7324,-4.7928,-4.8666,-3.3684,-3.4661,-3.5419,-3.4895,-3.6325,-3.7205,-3.6076,-3.6574,-3.7347,-3.8091,-3.8751,-3.914,-3.914,-3.9698,-4.007,-4.007,-4.007,-4.0121,-4.0223,-4.0223,-4.0273,-4.0358,-4.0375,-4.0375,-4.0375,-4.0052,-3.9316,-3.8193,-3.7854,0.0,0.0,0.0,0.0,0.0,0.0,0.0,0.0,-4.254,-4.347,-4.3639,-4.4316,-4.4587,-4.4587,-4.4587,-4.4587,-4.4587,-4.4587,-4.4587,-4.4587,-4.4587,-4.4587,-4.4587,-4.4587,-4.4587,-4.4587,-4.4587,-4.4587,-4.4587,-4.4587,-4.4587,-4.4587,-4.4587,-4.4587,-4.455,-4.4389,-4.4337,-4.4354,-4.432,-4.4216,-4.4178,-4.4494,-4.4173,-4.374,-4.3488,-4.3577,-4.3686,-4.3596,-4.3632,-4.3631,-4.3432,-4.3559,0.0,-4.3428,-4.482,-4.5736,-4.5736,-4.5736,-4.5828,0.0,0.0,-4.7058,-4.726,-4.7957,-4.8306,-4.8306,-4.8306,-4.8267,-4.8172,-4.8267,-4.821,-4.8056,-4.8132,-4.8114,-4.8075,-4.8075,-4.7738,-4.7299,-4.7299,-4.691,-4.6383,-4.6336,-4.6288,-4.6288,-4.6288,-4.6664,-4.7345,-3.4409,-3.5066,-3.5791,-3.6291,-3.6167,-3.6323,-3.7248,-3.812,-3.887,-3.9597,-3.9817,-3.9884,-3.9884,-4.0003,-4.007,-4.007,-4.007,-4.0341,-4.0967,-4.1018,-4.1271,-4.188,-4.1897,-4.1897,-4.1897,-4.1273,-4.0527,-3.9698,-3.9052,0.0,0.0,0.0,0.0,0.0,0.0,0.0,-4.1965,-4.2997,-4.3792,-4.4384,-4.4519,-4.4587,-4.4587,-4.4587,-4.4587,-4.4587,-4.4587,-4.4587,-4.4587,-4.4587,-4.4587,-4.4587,-4.4587,-4.4587,-4.4587,-4.4587,-4.4587,-4.4587,-4.4587,-4.4587,-4.4587,-4.4587,-4.4587,-4.4592,-4.455,-4.4517,-4.4533,-4.4572,-4.4507,-4.4448,-4.4371,-4.413,-4.374,-4.3131,-4.3994,-4.4548,-4.3967,-4.4384,-4.4313,-4.3161,-4.4012,-4.4237,-4.2953,-4.4108,-4.4911,-4.4911,-4.4911,-4.5498,0.0,0.0,-4.6728,0.0,-4.8233,-4.8306,0.0,0.0,-4.8035,-4.7572,-4.8075,-4.7738,-4.6756,-4.7281,-4.7237,-4.6756,-4.6756,-4.6664,-4.6571,-4.6571,-4.6524,-4.6336,-4.5865,-4.5648,-4.5648,-4.5648,-4.5732,-4.595,-3.5134,-3.5396,-3.5727,-3.612,-3.6192,-3.6453,-3.7151,-3.8172,-3.8788,-3.8377,-3.8977,-3.9489,-3.9489,-4.0523,-4.1221,-4.1221,-4.1221,-4.1373,-4.1745,-4.1762,-4.1931,-4.2269,-4.2286,-4.2286,-4.2286,-4.1948,-4.1204,-4.007,-3.9732,-3.9191,0.0,0.0,0.0,0.0,0.0,-4.073,0.0,0.0,-4.3639,-4.4012,-4.4418,-4.4587,-4.4587,-4.4587,-4.4587,-4.4587,-4.4587,-4.4587,-4.4587,-4.4587,-4.4587,-4.4587,-4.4587,-4.4587,-4.4587,-4.4587,-4.4587,-4.4587,-4.4587,-4.4587,-4.4587,-4.4587,-4.4587,-4.4587,-4.4587,-4.4587,-4.4587,-4.4587,-4.4587,-4.4538,-4.4354,-4.3892,-4.3547,-4.3464,-4.3703,-4.3914,-4.4014,-4.4289,-4.4235,-4.3536,-4.3746,-4.3614,-4.2882,-4.3037,-4.3609,-4.4636,-4.4709,-4.5223,-4.6416,0.0,-4.6304,0.0,0.0,0.0,-4.7324,0.0,-4.7512,-4.6892,-4.7176,-4.6981,-4.643,-4.671,-4.671,-4.6383,-4.6383,-4.624,-4.5915,-4.5597,-4.5459,-4.5459,-4.5142,-4.5052,-4.5052,-4.5052,-4.5232,-4.5597,-3.5355,-3.5617,-3.5935,-3.6063,-3.6565,-3.7001,-3.7102,-3.7891,-3.8144,-3.7243,-3.8246,-3.9093,-3.9093,-4.0685,-4.1749,-4.1749,-4.1749,-4.1925,-4.2274,-4.229,-4.2429,-4.276,-4.2777,-4.2777,-4.2777,-4.2777,-4.2134,-4.0781,-4.0646,-4.0121,0.0,0.0,0.0,0.0,0.0,0.0,0.0,0.0,-4.3521,-4.3724,-4.4333,-4.4587,-4.4587,-4.4587,-4.4587,-4.4587,-4.4587,-4.4587,-4.4587,-4.4587,-4.4587,-4.4587,-4.4587,-4.4587,-4.4587,-4.4587,-4.4587,-4.4587,-4.4587,-4.4587,-4.4587,-4.4587,-4.4587,-4.4587,-4.4587,-4.4587,-4.4587,-4.4587,-4.4587,-4.45,-4.4147,-4.3786,-4.3575,-4.3838,-4.3623,-4.3627,-4.4073,-4.4255,-4.4232,-4.3933,-4.3447,-4.3163,-4.2986,-4.2555,-4.2965,-4.4669,-4.4508,-4.4727,-4.5692,0.0,0.0,0.0,0.0,-4.7409,-4.643,0.0,-4.6864,-4.6192,-4.6336,-4.6288,-4.6014,-4.6143,-4.6143,-4.6014,-4.6014,-4.5732,-4.5267,-4.4814,-4.4587,-4.4587,-4.4587,-4.4587,-4.4587,-4.4587,-4.4906,-4.5372,-3.4577,-3.5577,-3.6672,-3.7367,-3.7477,-3.7669,-3.8304,-3.7933,-3.78,-3.8527,-3.9278,-3.971,-3.971,-3.9882,-4.0023,-4.0023,-4.0023,-4.0658,-4.2113,-4.222,-4.2841,-4.4333,-4.4367,-4.4367,-4.4367,-4.4367,-4.3944,-4.3098,-4.2422,-4.1356,0.0,0.0,0.0,0.0,0.0,0.0,0.0,-4.3369,-4.3826,-4.4468,-4.4553,-4.4587,-4.4587,-4.4587,-4.4587,-4.4587,-4.4587,-4.4587,-4.4587,-4.4587,-4.4587,-4.4587,-4.4587,-4.4587,-4.4587,-4.4587,-4.4587,-4.4587,-4.4587,-4.4587,-4.4587,-4.4587,-4.4587,-4.4587,-4.4587,-4.4587,-4.4587,-4.4587,-4.4587,-4.4389,-4.361,-4.4037,-4.4241,-4.3566,-4.4492,-4.5062,-4.4593,-4.5008,-4.4889,-4.3639,-4.3872,-4.39,-4.3256,-4.3541,-4.4173,-4.507,-4.3872,-4.3713,-4.5204,0.0,0.0,-4.6336,-4.6536,-4.6524,-4.6383,-4.6478,-4.6192,-4.5597,-4.6143,-4.5833,-4.4759,-4.532,-4.5284,-4.4776,-4.4776,-4.472,-4.4665,-4.4626,-4.4587,-4.4587,-4.4587,-4.4587,-4.4587,-4.4587,-4.4626,-4.4665,-3.6239,-3.6379,-3.6736,-3.741,-3.7216,-3.7107,-3.7758,-3.794,-3.8159,-3.8514,-3.9225,-3.9705,-3.9705,-4.0595,-4.1103,-4.1103,-4.1103,-4.1606,-4.2785,-4.2861,-4.3129,-4.3798,-4.3814,-4.3814,-4.3814,-4.3814,-4.3448,-4.2699,-4.2879,-4.2189,-4.0629,0.0,0.0,0.0,0.0,-4.2861,-4.3453,-4.3927,-4.4299,-4.4587,-4.4587,-4.4587,-4.4587,-4.4587,-4.4587,-4.4587,-4.4587,-4.4587,-4.4587,-4.4587,-4.4587,-4.4587,-4.4587,-4.4587,-4.4587,-4.4587,-4.4587,-4.4587,-4.4587,-4.4587,-4.4587,-4.4587,-4.4587,-4.4587,-4.4587,-4.4587,-4.4587,-4.4587,-4.4587,-4.4485,-4.4181,-4.3995,-4.3927,-4.4079,-4.4164,-4.4323,-4.4558,-4.4814,-4.4732,-4.4202,-4.3892,-4.3644,-4.3337,-4.3117,-4.3286,-4.4044,-4.3745,-4.4279,-4.5835,0.0,0.0,-4.5848,0.0,-4.6046,-4.532,-4.5681,-4.5545,-4.4944,-4.5178,-4.5089,-4.4626,-4.4852,-4.4814,-4.4587,-4.4587,-4.4587,-4.4587,-4.4587,-4.4587,-4.4587,-4.4587,-4.4587,-4.4587,-4.4587,-4.4587,-4.4587,-3.7404,-3.721,-3.718,-3.7629,-3.7509,-3.7494,-3.7928,-3.8392,-3.8691,-3.8691,-3.9206,-3.9588,-3.9588,-4.0598,-4.1229,-4.1229,-4.1229,-4.1625,-4.2458,-4.252,-4.2645,-4.2909,-4.2909,-4.2909,-4.2909,-4.2909,-4.2664,-4.2141,-4.2477,-4.1997,-4.0678,0.0,0.0,0.0,-4.2449,-4.2798,-4.3032,-4.3564,-4.3873,-4.3873,-4.3873,-4.3873,-4.3873,-4.3873,-4.3873,-4.3873,-4.4138,-4.4196,-4.4253,-4.4514,-4.4587,-4.4587,-4.4587,-4.4587,-4.4587,-4.4587,-4.4587,-4.4587,-4.4587,-4.4587,-4.4587,-4.4587,-4.4587,-4.4587,-4.4587,-4.4587,-4.4587,-4.4587,-4.4587,-4.4587,-4.4587,-4.413,-4.3944,-4.4485,-4.4113,-4.3944,-4.4502,-4.4587,-4.4485,-4.4265,-4.3944,-4.3673,-4.3436,-4.3149,-4.3183,-4.3724,-4.4009,-4.468,-4.5813,0.0,0.0,0.0,0.0,0.0,-4.4626,-4.5052,-4.5052,-4.4587,-4.4587,-4.4587,-4.4587,-4.4587,-4.4587,-4.4587,-4.4587,-4.4587,-4.4587,-4.4587,-4.4587,-4.4587,-4.4587,-4.4587,-4.4587,-4.4587,-4.4587,-4.4587,-3.7404,-3.7928,-3.8362,-3.8377,-3.8931,-3.9394,-3.9394,-3.9394,-3.9409,-3.9409,-3.9409,-3.9409,-3.9409,-3.9409,-3.9424,-3.9424,-3.9424,-3.9793,-4.069,-4.0758,-4.1147,-4.1997,-4.1997,-4.1997,-4.1997,-4.1997,-4.1997,-4.1981,-4.1309,-4.0543,-3.9779,0.0,-3.9476,-4.0911,-4.0911,-4.1341,-4.2045,-4.2062,-4.2062,-4.2062,-4.2062,-4.2062,-4.2062,-4.2062,-4.2062,-4.2125,-4.2986,-4.3306,-4.3426,-4.4327,-4.4587,-4.4587,-4.4587,-4.4587,-4.4587,-4.4587,-4.4587,-4.4587,-4.4587,-4.4587,-4.4587,-4.4587,-4.4587,-4.4587,-4.4587,-4.4587,-4.4587,-4.4587,-4.4587,-4.4587,-4.4587,-4.457,-4.457,-4.4587,-4.457,-4.457,-4.4587,-4.4587,-4.4299,-4.3521,-4.4096,-4.4265,-4.3504,-4.4096,-4.4553,-4.4553,-4.4609,-4.4609,-4.4626,0.0,0.0,-4.4626,-4.4626,0.0,-4.4587,-4.4626,-4.4626,-4.4587,-4.4587,-4.4587,-4.4587,-4.4587,-4.4587,-4.4587,-4.4587,-4.4587,-4.4587,-4.4587,-4.4587,-4.4587,-4.4587,-4.4587,-4.4587,-4.4587,-4.4587,-4.4587,-3.8781,-3.8945,-3.9095,-3.9095,-3.9275,-3.9424,-3.9424,-3.9424,-3.9424,-3.9424,-3.9424,-3.9424,-3.9424,-3.9424,-3.9424,-3.9424,-3.9424,-3.9809,-4.0622,-4.069,-4.0811,-4.108,-4.108,-4.108,-4.108,-4.108,-4.108,-4.108,-4.1452,0.0,0.0,-4.1039,-4.1166,-4.1677,-4.1677,-4.1789,-4.1997,-4.1997,-4.1997,-4.1997,-4.1997,-4.1997,-4.1997,-4.1997,-4.1997,-4.2062,-4.2316,-4.2785,-4.3366,-4.3621,-4.4138,-4.4587,-4.4587,-4.4587,-4.4587,-4.4587,-4.4587,-4.4587,-4.4587,-4.4587,-4.4587,-4.4587,-4.4587,-4.4587,-4.4587,-4.4587,-4.4587,-4.4587,-4.4587,-4.4587,-4.4587,-4.4587,-4.4587,-4.4587,-4.4587,-4.4587,-4.4587,-4.4587,-4.4485,-4.4231,-4.4418,-4.4485,-4.4231,-4.4434,-4.4587,-4.4587,-4.4587,-4.4587,0.0,0.0,0.0,0.0,-4.4587,0.0,-4.4587,-4.4587,-4.4587,-4.4587,-4.4587,-4.4587,-4.4587,-4.4587,-4.4587,-4.4587,-4.4587,-4.4587,-4.4587,-4.4587,-4.4587,-4.4587,-4.4587,-4.4587,-4.4587,-4.4587,-4.4587,-4.4587,-3.9424,-3.9424,-3.9424,-3.9424,-3.9424,-3.9424,-3.9424,-3.9424,-3.9424,-3.9424,-3.9424,-3.9424,-3.9424,-3.9424,-3.9424,-3.9424,-3.9424,-3.961,-4.0185,-4.0239,-4.0239,-4.0239,-4.0239,-4.0239,-4.0239,-4.0239,0.0,-4.0239,-4.0774,-4.1028,-4.1028,-4.1028,-4.1028,-4.1028,-4.1028,-4.1028,-4.1028,-4.1028,-4.1028,-4.1028,-4.1028,-4.1028,-4.1028,-4.1028,-4.1028,-4.1095,-4.1412,-4.1869,-4.2379,-4.2707,-4.3169,-4.3663,-4.4006,-4.4121,-4.4196,-4.4514,-4.4587,-4.4587,-4.4587,-4.4587,-4.4587,-4.4587,-4.4587,-4.4587,-4.4587,-4.4587,-4.4587,-4.4587,-4.4587,-4.4587,-4.4587,-4.4587,-4.4587,-4.4587,-4.4587,-4.4587,-4.4587,-4.4587,-4.4468,-4.4181,-4.4401,-4.4468,-4.4181,-4.4401,-4.4587,-4.4587,-4.4587,0.0,0.0,0.0,-4.4587,-4.4587,-4.4587,-4.4587,-4.4587,-4.4587,-4.4587,-4.4587,-4.4587,-4.4587,-4.4587,-4.4587,-4.4587,-4.4587,-4.4587,-4.4587,-4.4587,-4.4587,-4.4587,-4.4587,-4.4587,-4.4587,-4.4587,-4.4587,-4.4587,-4.4587,-3.9559,-3.9559,-3.9559,-3.9559,-3.9559,-3.9559,-3.9559,-3.9559,-3.9559,-3.9559,-3.9559,-3.9544,-3.9484,-3.9484,-3.9469,-3.9424,-3.9424,-3.9424,-3.9424,-3.9424,-3.9424,-3.9424,-3.9424,-3.9424,-3.9424,-3.9424,-3.9424,-3.9424,-3.9424,-3.9424,-3.9424,-3.9424,-3.9424,-3.9424,-3.9424,-3.9424,-3.9424,-3.9424,-3.9424,-3.9424,-3.9424,-3.9424,-3.9424,-3.9424,-3.9424,-3.9481,-4.0309,-4.0622,-4.0811,-4.1674,-4.1933,-4.2125,-4.297,-4.3229,-4.3366,-4.4327,-4.4587,-4.4587,-4.4587,-4.457,-4.4514,-4.457,-4.4587,-4.4587,-4.4587,-4.4587,-4.4587,-4.4587,-4.4587,-4.4587,-4.4587,-4.4587,-4.4587,-4.4587,-4.4587,-4.4587,-4.4587,-4.4587,-4.4316,-4.3589,-4.413,-4.4299,-4.3572,-4.4147,-4.4587,-4.4587,-4.4587,0.0,0.0,0.0,-4.4587,-4.4587,-4.4587,-4.4587,-4.4587,-4.4587,-4.4587,-4.4587,-4.4587,-4.4587,-4.4587,-4.4587,-4.4587,-4.4587,-4.4587,-4.4587,-4.4587,-4.4587,-4.4587,-4.4587,-4.4587,-4.4587,-4.4587,-4.4587,-4.4587,-4.4587,-4.092,-4.092,-4.092,-4.092,-4.092,-4.092,-4.092,-4.092,-4.092,-4.092,-4.092,-4.0726,-4.0232,-4.0172,-3.9963,-3.9469,-3.9424,-3.9424,-3.9424,-3.9424,-3.9424,-3.9424,-3.9424,-3.9424,-3.9424,-3.9424,-3.9424,-3.9424,-3.9424,-3.9424,-3.9424,-3.9424,-3.9424,-3.9424,-3.9424,-3.9424,-3.9424,-3.9424,-3.9424,-3.9424,-3.9424,-3.9424,-3.9424,-3.9424,-3.9424,-3.9424,-3.961,-4.0115,-4.0758,-4.0946,-4.1478,-4.2062,-4.2252,-4.2316,-4.2583,-4.4121,-4.4587,-4.4587,-4.4587,-4.4121,-4.3756,-4.444,-4.4587,-4.4587,-4.4587,-4.4587,-4.4587,-4.4587,-4.4587,-4.4587,-4.4587,-4.4587,-4.4587,-4.4587,-4.4587,-4.4587,-4.4587,-4.4587,-4.4502,-4.4333,-4.4468,-4.4502,-4.4316,-4.4468,-4.4587,-4.4587,-4.4587,-4.4587,-4.4587,-4.4587,-4.4587,-4.4587,-4.4587,-4.4587,-4.4587,-4.4587,-4.4587,-4.4587,-4.4587,-4.4587,-4.4587,-4.4587,-4.4587,-4.4587,-4.4587,-4.4587,-4.4587,-4.4587,-4.4587,-4.4587,-4.4587,-4.4587,-4.4587,-4.4587,-4.4587,-4.4587,-4.1384,-4.1384,-4.1384,-4.1384,-4.1384,-4.1384,-4.1384,-4.1384,-4.1384,-4.1384,-4.1384,-4.113,-4.0472,-4.0397,-4.0127,-3.9484,-3.9424,-3.9424,-3.9424,-3.9424,-3.9424,-3.9424,-3.9424,-3.9424,-3.9424,-3.9424,-3.9424,-3.9424,-3.9424,-3.9424,-3.9424,-3.9424,-3.9424,-3.9424,-3.9424,-3.9424,-3.9424,-3.9424,-3.9424,-3.9424,-3.9424,-3.9424,-3.9424,-3.9424,-3.9424,-3.9424,-3.9424,-3.9666,-4.0115,-4.0115,-4.0447,-4.0894,-4.128,-4.1412,-4.1658,-4.3031,-4.341,-4.341,-4.341,-4.3092,-4.2847,-4.329,-4.341,-4.341,-4.341,-4.3739,-4.4006,-4.4006,-4.4327,-4.4587,-4.4587,-4.4587,-4.4587,-4.4587,-4.4282,-4.4181,-4.4536,-4.4265,-4.4181,-4.4536,-4.4587,-4.4587,-4.4587,-4.4587,-4.4587,-4.4587,-4.4587,0.0,-4.4587,-4.4587,-4.4587,-4.4587,-4.4587,-4.4587,-4.4587,-4.4587,-4.4587,-4.4587,-4.4587,-4.4587,-4.4587,-4.4587,-4.4587,-4.4587,-4.4587,-4.4587,-4.4587,-4.4587,-4.4587,-4.4587,-4.4587,-4.4587,-4.4587,-4.4587,-4.4587,-4.4587,-4.1683,-4.1683,-4.1683,-4.1683,-4.1683,-4.1683,-4.1683,-4.1683,-4.1683,-4.1683,-4.1683,-4.1429,-4.0771,-4.0606,-4.0277,-3.9634,-3.9484,-3.9424,-3.9424,-3.9424,-3.9424,-3.9424,-3.9424,-3.9424,-3.9424,-3.9424,-3.9424,-3.9424,-3.9424,-3.9424,-3.9424,-3.9424,-3.9424,-3.9424,-3.9424,-3.9424,-3.9424,-3.9424,-3.9424,-3.9424,-3.9424,-3.9424,-3.9424,-3.9424,-3.9424,-3.9424,-3.9424,-3.9424,-3.9424,-3.9424,-3.9424,-3.9553,-4.0239,-4.05,-4.0622,-4.1412,-4.1609,-4.1674,-4.1933,-4.1997,-4.1997,-4.1869,-4.1933,-4.1997,-4.1997,-4.2583,-4.3108,-4.3108,-4.3814,-4.4384,-4.4384,-4.4514,-4.4536,-4.4418,-4.3944,-4.3792,-4.4333,-4.3944,-4.3842,-4.4502,-4.4587,-4.4587,-4.4587,-4.4587,-4.4587,-4.4587,-4.4587,-4.4587,-4.4587,-4.4587,-4.4587,-4.4587,-4.4587,-4.4587,-4.4587,-4.4587,-4.4587,-4.4587,-4.4587,-4.4587,-4.4587,-4.4587,-4.4587,-4.4587,-4.4587,-4.4587,-4.4587,-4.4587,-4.4587,-4.4587,-4.4587,-4.4587,-4.4587,-4.4587,-4.4587,-4.4587,-4.303,-4.303,-4.303,-4.303,-4.303,-4.303,-4.303,-4.303,-4.303,-4.303,-4.303,-4.2776,-4.2132,-4.1564,-4.0965,-4.0307,-3.9738,-3.9424,-3.9424,-3.9424,-3.9424,-3.9424,-3.9424,-3.9424,-3.9424,-3.9424,-3.9424,-3.9424,-3.9424,-3.9424,-3.9424,-3.9424,-3.9424,-3.9424,-3.9424,-3.9424,-3.9424,-3.9424,-3.9424,-3.9424,-3.9424,-3.9424,-3.9424,-3.9424,-3.9424,-3.9424,-3.9424,-3.9424,-3.9424,-3.9424,-3.9424,-3.9409,-3.9538,-3.961,-3.961,-3.9737,-3.9809,-4.013,-4.1609,-4.1997,-4.1788,-4.108,-4.1478,-4.1997,-4.1997,-4.2125,-4.2189,-4.2189,-4.2909,-4.3502,-4.3502,-4.4121,-4.4367,-4.3707,-4.4045,-4.4215,-4.3673,0.0,-4.4451,-4.457,-4.4587,-4.4587,-4.4587,-4.4587,-4.4587,-4.4587,-4.4587,-4.4587,-4.4587,-4.4587,-4.4587,-4.4587,-4.4587,-4.4587,-4.4587,-4.4587,-4.4587,-4.4587,-4.4587,-4.4587,-4.4587,-4.4587,-4.4587,-4.4587,-4.4587,-4.4587,-4.4587,-4.4587,-4.4587,-4.4587,-4.4587,-4.4587,-4.4587,-4.4587,-4.4587,-4.4587,-4.3329,-4.3329,-4.3329,-4.3329,-4.3329,-4.3329,-4.3329,-4.3329,-4.3329,-4.3329,-4.3329,-4.309,-4.2432,-4.1773,-4.1115,-4.0457,-3.9798,-3.9424,-3.9424,-3.9424,-3.9424,-3.9424,-3.9424,-3.9424,-3.9424,-3.9424,-3.9424,-3.9424,-3.9424,-3.9424,-3.9424,-3.9424,-3.9424,-3.9424,-3.9424,-3.9424,-3.9424,-3.9424,-3.9424,-3.9424,-3.9424,-3.9424,-3.9424,-3.9424,-3.9424,-3.9424,-3.9424,-3.9424,-3.9424,-3.9424,-3.9424,-3.9424,-3.9424,-3.9424,-3.9424,-3.9424,-3.9424,-3.9553,-4.0378,-4.0585,-4.0516,-4.0115,-4.0309,-4.0585,-4.0585,-4.0961,-4.128,-4.128,-4.1997,-4.2583,-4.2583,-4.329,-4.3756,-4.3406,-4.3681,-4.3978,-4.4045,-4.3995,-4.4113,-4.4536,-4.4587,-4.4587,-4.4587,-4.4587,-4.4587,-4.4587,-4.4587,-4.4587,-4.4587,-4.4587,-4.4587,-4.4587,-4.4587,-4.4587,-4.4587,-4.4587,-4.4587,-4.4587,-4.4587,-4.4587,-4.4587,-4.4587,-4.4587,-4.4587,-4.4587,-4.4587,-4.4587,-4.4587,-4.4587,-4.4587,-4.4587,-4.4587,-4.4587,-4.4587,-4.4587,-4.4587,-4.3329,-4.3329,-4.3329,-4.3329,-4.3329,-4.3329,-4.3329,-4.3329,-4.3329,-4.3329,-4.3329,-4.3135,-4.2641,-4.1863,-4.1175,-4.0666,-3.9888,-3.9424,-3.9424,-3.9424,-3.9424,-3.9424,-3.9424,-3.9424,-3.9424,-3.9424,-3.9424,-3.9424,-3.9424,-3.9424,-3.9424,-3.9424,-3.9424,-3.9424,-3.9424,-3.9424,-3.9424,-3.9424,-3.9424,-3.9424,-3.9424,-3.9424,-3.9424,-3.9424,-3.9424,-3.9424,-3.9424,-3.9424,-3.9424,-3.9424,-3.9424,-3.9424,-3.9424,-3.9424,-3.9424,-3.9424,-3.9424,-3.9424,-3.9424,-3.9424,-3.9424,-3.9424,-3.9424,-3.9424,-3.9424,-3.992,-4.0363,-4.0363,-4.108,-4.1674,-4.1674,-4.2395,-4.2921,-4.2757,0.0,-4.3327,-4.3933,-4.3648,-4.367,-4.4502,-4.4587,-4.4587,-4.4587,-4.4587,-4.4587,-4.4587,-4.4587,-4.4587,-4.4587,-4.4587,-4.4587,-4.4587,-4.4587,-4.4587,-4.4587,-4.4587,-4.4587,-4.4587,-4.4587,-4.4587,-4.4587,-4.4587,-4.4587,-4.4587,-4.4587,-4.4587,-4.4587,-4.4587,-4.4587,-4.4587,-4.4587,-4.4587,-4.4587,-4.4587,-4.4587,-4.4587,-4.3329,-4.3329,-4.3329,-4.3329,-4.3329,-4.3329,-4.3329,-4.3329,-4.3329,-4.3329,-4.3329,-4.3314,-4.3269,-4.2147,-4.1354,-4.1309,-4.0157,-3.9424,-3.9424,-3.9424,-3.9424,-3.9424,-3.9424,-3.9424,-3.9424,-3.9424,-3.9424,-3.9424,-3.9424,-3.9424,-3.9424,-3.9424,-3.9424,-3.9424,-3.9424,-3.9424,-3.9424,-3.9424,-3.9424,-3.9424,-3.9424,-3.9424,-3.9424,-3.9424,-3.9424,-3.9424,-3.9424,-3.9424,-3.9424,-3.9424,-3.9424,-3.9424,-3.9424,-3.9424,-3.9424,-3.9424,-3.9424,-3.9424,-3.9424,-3.9424,-3.9424,-3.9424,-3.9424,-3.9424,-3.9424,-3.9409,-3.9481,-3.9481,-4.0185,-4.0826,-4.0826,-4.1543,-4.1853,-4.1212,0.0,0.0,-4.2367,-4.2888,-4.363,-4.4514,-4.4587,-4.4587,-4.4587,-4.4587,-4.4587,-4.4587,-4.4587,-4.4587,-4.4587,-4.4587,-4.4587,-4.4587,-4.4587,-4.4587,-4.4587,-4.4587,-4.4587,-4.4587,-4.4587,-4.4587,-4.4587,-4.4587,-4.4587,-4.4587,-4.4587,-4.4587,-4.4587,-4.4587,-4.4587,-4.4587,-4.4587,-4.4587,-4.4587,-4.4587,-4.4587,-4.4587,-4.3329,-4.3329,-4.3329,-4.3329,-4.3329,-4.3329,-4.3329,-4.3329,-4.3329,-4.3329,-4.3329,-4.3329,-4.3329,-4.2162,-4.1384,-4.1384,-4.0172,-3.9424,-3.9424,-3.9424,-3.9424,-3.9424,-3.9424,-3.9424,-3.9424,-3.9424,-3.9424,-3.9424,-3.9424,-3.9424,-3.9424,-3.9424,-3.9424,-3.9424,-3.9424,-3.9424,-3.9424,-3.9424,-3.9424,-3.9424,-3.9424,-3.9424,-3.9424,-3.9424,-3.9424,-3.9424,-3.9424,-3.9424,-3.9424,-3.9424,-3.9424,-3.9424,-3.9424,-3.9424,-3.9424,-3.9424,-3.9424,-3.9424,-3.9424,-3.9424,-3.9424,-3.9424,-3.9424,-3.9424,-3.9424,-3.9424,-3.9424,-3.9424,-3.9666,-3.9864,-3.9864,-4.0638,-4.1135,-4.0802,0.0,-4.2029,-4.2086,-4.2342,-4.2847,-4.368,-4.3814,-4.4006,-4.457,-4.4587,-4.4587,-4.4587,-4.4587,-4.4587,-4.4587,-4.4587,-4.4587,-4.4587,-4.4587,-4.4587,-4.4587,-4.4587,-4.4587,-4.4587,-4.4587,-4.4587,-4.4587,-4.4587,-4.4587,-4.4587,-4.4587,-4.4587,-4.4587,-4.4587,-4.4587,-4.4587,-4.4587,-4.4587,-4.4587,-4.4587,-4.4587,-4.4587,-4.3329,-4.3329,-4.3329,-4.3329,-4.3329,-4.3329,-4.3329,-4.3329,-4.3329,-4.3329,-4.3329,-4.3329,-4.3329,-4.2162,-4.1384,-4.1384,-4.0172,-3.9424,-3.9424,-3.9424,-3.9424,-3.9424,-3.9424,-3.9424,-3.9424,-3.9424,-3.9424,-3.9424,-3.9424,-3.9424,-3.9424,-3.9424,-3.9424,-3.9424,-3.9424,-3.9424,-3.9424,-3.9424,-3.9424,-3.9424,-3.9424,-3.9424,-3.9424,-3.9424,-3.9424,-3.9424,-3.9424,-3.9424,-3.9424,-3.9424,-3.9424,-3.9424,-3.9424,-3.9424,-3.9424,-3.9424,-3.9424,-3.9424,-3.9424,-3.9424,-3.9424,-3.9424,-3.9424,-3.9424,-3.9424,-3.9424,-3.9424,-3.9424,-3.9424,-3.9424,-3.9424,-3.9864,-4.0309,-4.0309,-4.0758,-4.128,-4.1543,-4.1609,-4.1933,-4.2785,-4.3108,-4.3562,-4.4121,-4.444,-4.4587,-4.4587,-4.4587,-4.4587,-4.4587,-4.4587,-4.4587,-4.4587,-4.4587,-4.4587,-4.4587,-4.4587,-4.4587,-4.4587,-4.4587,-4.4587,-4.4587,-4.4587,-4.4587,-4.4587,-4.4587,-4.4587,-4.4587,-4.4587,-4.4587,-4.4587,-4.4587,-4.4587,-4.4587,-4.4587,-4.4587,-4.4587,-4.3329,-4.3329,-4.3329,-4.3329,-4.3329,-4.3329,-4.3329,-4.3329,-4.3329,-4.3329,-4.3329,-4.3329,-4.3329,-4.2162,-4.1384,-4.1369,-4.0172,-3.9424,-3.9424,-3.9424,-3.9424,-3.9424,-3.9424,-3.9424,-3.9424,-3.9424,-3.9424,-3.9424,-3.9424,-3.9424,-3.9424,-3.9424,-3.9424,-3.9424,-3.9424,-3.9424,-3.9424,-3.9424,-3.9424,-3.9424,-3.9424,-3.9424,-3.9424,-3.9424,-3.9424,-3.9424,-3.9424,-3.9424,-3.9424,-3.9424,-3.9424,-3.9424,-3.9424,-3.9424,-3.9424,-3.9424,-3.9424,-3.9424,-3.9424,-3.9424,-3.9424,-3.9424,-3.9424,-3.9424,-3.9424,-3.9424,-3.9424,-3.9424,-3.9424,-3.9424,-3.9424,-3.9424,-3.9424,-3.9424,-3.9424,-3.9666,-4.0554,-4.069,-4.1013,-4.1869,-4.2785,-4.3306,-4.3306,-4.4064,-4.4587,-4.4587,-4.4587,-4.4587,-4.4587,-4.4587,-4.4587,-4.4587,-4.4587,-4.4587,-4.4587,-4.4587,-4.4587,-4.4587,-4.4587,-4.4587,-4.4587,-4.4587,-4.4587,-4.4587,-4.4587,-4.4587,-4.4587,-4.4587,-4.4587,-4.4587,-4.4587,-4.4587,-4.4587,-4.4587,-4.4587,-4.4587,-4.3329,-4.3329,-4.3329,-4.3329,-4.3329,-4.3329,-4.3329,-4.3329,-4.3329,-4.3329,-4.3329,-4.3165,-4.2701,-4.1893,-4.119,-4.0726,-3.9903,-3.9424,-3.9424,-3.9424,-3.9424,-3.9424,-3.9424,-3.9424,-3.9424,-3.9424,-3.9424,-3.9424,-3.9424,-3.9424,-3.9424,-3.9424,-3.9424,-3.9424,-3.9424,-3.9424,-3.9424,-3.9424,-3.9424,-3.9424,-3.9424,-3.9424,-3.9424,-3.9424,-3.9424,-3.9424,-3.9424,-3.9424,-3.9424,-3.9424,-3.9424,-3.9424,-3.9424,-3.9424,-3.9424,-3.9424,-3.9424,-3.9424,-3.9424,-3.9424,-3.9424,-3.9424,-3.9424,-3.9424,-3.9424,-3.9424,-3.9424,-3.9424,-3.9424,-3.9424,-3.9424,-3.9424,-3.9424,-3.9424,-3.9424,-3.9481,-3.9737,-3.9793,-4.0115,-4.1013,-4.1869,-4.2645,-4.3246,-4.4064,-4.4587,-4.4587,-4.4587,-4.4587,-4.4587,-4.4587,-4.4587,-4.4587,-4.4587,-4.4587,-4.4587,-4.4587,-4.4587,-4.4587,-4.4587,-4.4587,-4.4587,-4.4587,-4.4587,-4.4587,-4.4587,-4.4587,-4.4587,-4.4587,-4.4587,-4.4587,-4.4587,-4.4587,-4.4587,-4.4587,-4.4587,-4.4587,-4.3329,-4.3329,-4.3329,-4.3329,-4.3329,-4.3329,-4.3329,-4.3329,-4.3329,-4.3329,-4.3329,-4.309,-4.2432,-4.1773,-4.1115,-4.0457,-3.9798,-3.9424,-3.9424,-3.9424,-3.9424,-3.9424,-3.9424,-3.9424,-3.9424,-3.9424,-3.9424,-3.9424,-3.9424,-3.9424,-3.9424,-3.9424,-3.9424,-3.9424,-3.9424,-3.9424,-3.9424,-3.9424,-3.9424,-3.9424,-3.9424,-3.9424,-3.9424,-3.9424,-3.9424,-3.9424,-3.9424,-3.9424,-3.9424,-3.9424,-3.9424,-3.9424,-3.9424,-3.9424,-3.9424,-3.9424,-3.9424,-3.9424,-3.9424,-3.9424,-3.9424,-3.9424,-3.9424,-3.9424,-3.9424,-3.9424,-3.9424,-3.9424,-3.9424,-3.9424,-3.9424,-3.9424,-3.9424,-3.9424,-3.9424,-3.9424,-3.9424,-3.9424,-3.961,-4.0115,-4.0961,-4.1674,-4.2189,-4.335,-4.4253,-4.457,-4.4587,-4.4587,-4.4587,-4.4587,-4.4587,-4.4587,-4.4587,-4.4587,-4.4587,-4.4587,-4.4587,-4.4587,-4.4587,-4.4587,-4.4587,-4.4587,-4.4587,-4.4587,-4.4587,-4.4587,-4.4587,-4.4587,-4.4587,-4.4587,-4.4587,-4.4587,-4.4587,-4.4587,-4.4587,-4.4587,-4.3329,-4.3329,-4.3329,-4.3329,-4.3329,-4.3329,-4.3329,-4.3329,-4.3329,-4.3329,-4.3284,-4.3,-4.2342,-4.1683,-4.1025,-4.0367,-3.9768,-3.9424,-3.9424,-3.9424,-3.9424,-3.9424,-3.9424,-3.9424,-3.9424,-3.9424,-3.9424,-3.9424,-3.9424,-3.9424,-3.9424,-3.9424,-3.9424,-3.9424,-3.9424,-3.9424,-3.9424,-3.9424,-3.9424,-3.9424,-3.9424,-3.9424,-3.9424,-3.9424,-3.9424,-3.9424,-3.9424,-3.9424,-3.9424,-3.9424,-3.9424,-3.9424,-3.9424,-3.9424,-3.9424,-3.9424,-3.9424,-3.9424,-3.9424,-3.9424,-3.9424,-3.9424,-3.9424,-3.9424,-3.9424,-3.9424,-3.9424,-3.9424,-3.9424,-3.9424,-3.9424,-3.9424,-3.9424,-3.9424,-3.9424,-3.9424,-3.9424,-3.9424,-3.9424,-3.9424,-4.0185,-4.069,-4.069,-4.2269,-4.3621,-4.444,-4.457,-4.4587,-4.4587,-4.4587,-4.4587,-4.4587,-4.4587,-4.4587,-4.4587,-4.4587,-4.4587,-4.4587,-4.4587,-4.4587,-4.4587,-4.4587,-4.4587,-4.4587,-4.4587,-4.4587,-4.4587,-4.4587,-4.4587,-4.4587,-4.4587,-4.4587,-4.4587,-4.4587,-4.4587,-4.4587,-4.3329,-4.3329,-4.3329,-4.3329,-4.3329,-4.3329,-4.3329,-4.3329,-4.3329,-4.3329,-4.2895,-4.2327,-4.1669,-4.101,-4.0352,-3.9694,-3.9499,-3.9424,-3.9424,-3.9424,-3.9424,-3.9424,-3.9424,-3.9424,-3.9424,-3.9424,-3.9424,-3.9424,-3.9424,-3.9424,-3.9424,-3.9424,-3.9424,-3.9424,-3.9424,-3.9424,-3.9424,-3.9424,-3.9424,-3.9424,-3.9424,-3.9424,-3.9424,-3.9424,-3.9424,-3.9424,-3.9424,-3.9424,-3.9424,-3.9424,-3.9424,-3.9424,-3.9424,-3.9424,-3.9424,-3.9424,-3.9424,-3.9424,-3.9424,-3.9424,-3.9424,-3.9424,-3.9424,-3.9424,-3.9424,-3.9424,-3.9424,-3.9424,-3.9424,-3.9424,-3.9424,-3.9424,-3.9424,-3.9424,-3.9424,-3.9424,-3.9424,-3.9424,-3.9424,-3.9424,-4.0185,-4.069,-4.069,-4.2269,-4.3366,-4.3562,-4.4196,-4.4587,-4.4587,-4.4587,-4.4587,-4.4587,-4.4587,-4.4587,-4.4587,-4.4587,-4.4587,-4.4587,-4.4587,-4.4587,-4.4587,-4.4587,-4.4587,-4.4587,-4.4587,-4.4587,-4.4587,-4.4587,-4.4587,-4.4587,-4.4587,-4.4587,-4.4587,-4.4587,-4.4587,-4.4587,-4.3329,-4.3329,-4.3329,-4.3329,-4.3329,-4.3329,-4.3329,-4.3329,-4.3329,-4.3329,-4.2761,-4.2117,-4.1444,-4.0786,-4.0127,-3.9484,-3.9424,-3.9424,-3.9424,-3.9424,-3.9424,-3.9424,-3.9424,-3.9424,-3.9424,-3.9424,-3.9424,-3.9424,-3.9424,-3.9424,-3.9424,-3.9424,-3.9424,-3.9424,-3.9424,-3.9424,-3.9424,-3.9424,-3.9424,-3.9424,-3.9424,-3.9424,-3.9424,-3.9424,-3.9424,-3.9424,-3.9424,-3.9424,-3.9424,-3.9424,-3.9424,-3.9424,-3.9424,-3.9424,-3.9424,-3.9424,-3.9424,-3.9424,-3.9424,-3.9424,-3.9424,-3.9424,-3.9424,-3.9424,-3.9424,-3.9424,-3.9424,-3.9424,-3.9424,-3.9424,-3.9424,-3.9424,-3.9424,-3.9424,-3.9424,-3.9424,-3.9424,-3.9424,-3.9424,-3.9424,-3.9793,-4.0239,-4.069,-4.1528,-4.2252,-4.2645,-4.3486,-4.4006,-4.4006,-4.4384,-4.4587,-4.4587,-4.4587,-4.4587,-4.4587,-4.4587,-4.4587,-4.4587,-4.4587,-4.4587,-4.4587,-4.4587,-4.4587,-4.4587,-4.4587,-4.4587,-4.4587,-4.4587,-4.4587,-4.4587,-4.4587,-4.4587,-4.4587,-4.4587,-4.4587,-4.4587,-4.3329,-4.3329,-4.3329,-4.3329,-4.3329,-4.3329,-4.3329,-4.3329,-4.3284,-4.318,-4.2596,-4.1938,-4.128,-4.0621,-4.0008,-3.9469,-3.9424,-3.9424,-3.9424,-3.9424,-3.9424,-3.9424,-3.9424,-3.9424,-3.9424,-3.9424,-3.9424,-3.9424,-3.9424,-3.9424,-3.9424,-3.9424,-3.9424,-3.9424,-3.9424,-3.9424,-3.9424,-3.9424,-3.9424,-3.9424,-3.9424,-3.9424,-3.9424,-3.9424,-3.9424,-3.9424,-3.9424,-3.9424,-3.9424,-3.9424,-3.9424,-3.9424,-3.9424,-3.9424,-3.9424,-3.9424,-3.9424,-3.9424,-3.9424,-3.9424,-3.9424,-3.9424,-3.9424,-3.9424,-3.9424,-3.9424,-3.9424,-3.9424,-3.9424,-3.9424,-3.9424,-3.9424,-3.9424,-3.9424,-3.9424,-3.9424,-3.9424,-3.9424,-3.9424,-3.9424,-3.9424,-3.9666,-4.0432,-4.0622,-4.1013,-4.1723,-4.2583,-4.3047,-4.3047,-4.3873,-4.4384,-4.4384,-4.4514,-4.4587,-4.4587,-4.4587,-4.4587,-4.4587,-4.4587,-4.4587,-4.4587,-4.4587,-4.4587,-4.4587,-4.4587,-4.4587,-4.4587,-4.4587,-4.4587,-4.4587,-4.4587,-4.4587,-4.4587,-4.4587,-4.4587,-4.4587,-4.3329,-4.3329,-4.3329,-4.3329,-4.3329,-4.3329,-4.3329,-4.3329,-4.3135,-4.2566,-4.1923,-4.1265,-4.0606,-3.9948,-3.9514,-3.9424,-3.9424,-3.9424,-3.9424,-3.9424,-3.9424,-3.9424,-3.9424,-3.9424,-3.9424,-3.9424,-3.9424,-3.9424,-3.9424,-3.9424,-3.9424,-3.9424,-3.9424,-3.9424,-3.9424,-3.9424,-3.9424,-3.9424,-3.9424,-3.9424,-3.9424,-3.9424,-3.9424,-3.9424,-3.9424,-3.9424,-3.9424,-3.9424,-3.9424,-3.9424,-3.9424,-3.9424,-3.9424,-3.9424,-3.9424,-3.9424,-3.9424,-3.9424,-3.9424,-3.9424,-3.9424,-3.9424,-3.9424,-3.9424,-3.9424,-3.9424,-3.9424,-3.9424,-3.9424,-3.9424,-3.9424,-3.9424,-3.9424,-3.9424,-3.9424,-3.9424,-3.9424,-3.9424,-3.9424,-3.9424,-3.9424,-3.9409,-3.9538,-4.0239,-4.0758,-4.0878,-4.1674,-4.2189,-4.2189,-4.297,-4.3502,-4.3502,-4.4196,-4.4587,-4.4587,-4.4587,-4.4587,-4.4587,-4.4587,-4.4587,-4.4587,-4.4587,-4.4587,-4.4587,-4.4587,-4.4587,-4.4587,-4.4587,-4.4587,-4.4587,-4.4587,-4.4587,-4.4587,-4.4587,-4.4587,-4.4587,-4.3329,-4.3329,-4.3329,-4.3329,-4.3329,-4.3329,-4.3329,-4.3329,-4.309,-4.2447,-4.1788,-4.113,-4.0472,-3.9813,-3.9424,-3.9424,-3.9424,-3.9424,-3.9424,-3.9424,-3.9424,-3.9424,-3.9424,-3.9424,-3.9424,-3.9424,-3.9424,-3.9424,-3.9424,-3.9424,-3.9424,-3.9424,-3.9424,-3.9424,-3.9424,-3.9424,-3.9424,-3.9424,-3.9424,-3.9424,-3.9424,-3.9424,-3.9424,-3.9424,-3.9424,-3.9424,-3.9424,-3.9424,-3.9424,-3.9424,-3.9424,-3.9424,-3.9424,-3.9424,-3.9424,-3.9424,-3.9424,-3.9424,-3.9424,-3.9424,-3.9424,-3.9424,-3.9424,-3.9424,-3.9424,-3.9424,-3.9424,-3.9424,-3.9424,-3.9424,-3.9424,-3.9424,-3.9424,-3.9424,-3.9424,-3.9424,-3.9424,-3.9424,-3.9424,-3.9424,-3.9424,-3.9424,-3.9424,-3.9737,-3.999,-3.999,-4.0758,-4.128,-4.128,-4.2125,-4.2583,-4.2583,-4.3426,-4.3873,-4.3873,-4.4384,-4.4587,-4.4587,-4.4587,-4.4587,-4.4587,-4.4587,-4.4587,-4.4587,-4.4587,-4.4587,-4.4587,-4.4587,-4.4587,-4.4587,-4.4587,-4.4587,-4.4587,-4.4587,-4.4587,-4.4587]}]]